GFSNW_925_thetae_000.txt.gz
Theta_e
310 312 312 313 314 313 318 309 311 326 316 310 309 312 320 321 318 317 320 318 317 317 320 322 321 320 320 316 319 317 314 313 313 316 314 315 315 315 309 308 312 308 306 310
310 311 312 314 314 314 321 312 321 323 312 308 304 312 320 320 318 319 320 321 320 320 321 322 322 321 317 312 317 316 313 313 315 316 313 313 316 315 311 308 307 314 309 309
310 311 312 315 314 315 319 316 320 316 309 307 310 314 317 320 318 320 319 320 319 320 322 320 322 322 318 313 315 315 313 312 312 314 314 311 314 316 312 311 308 310 309 310
309 311 313 316 314 317 320 311 315 316 313 313 312 313 319 320 321 319 317 320 320 320 323 322 322 320 317 315 315 315 311 314 313 313 312 313 312 312 314 312 311 312 311 310
310 311 315 316 315 317 318 318 313 307 310 315 319 316 318 320 320 320 320 319 320 320 318 318 320 317 314 313 317 315 308 310 309 317 312 311 313 311 310 312 312 311 313 312
309 311 315 315 315 318 314 317 314 311 307 311 317 315 321 320 318 319 318 318 317 319 320 316 313 312 311 314 316 311 306 306 304 304 307 306 306 309 309 309 309 310 313 311
310 312 315 315 316 318 318 320 316 312 307 307 313 317 319 319 318 319 319 317 316 316 311 310 309 309 312 313 312 308 304 303 299 304 301 304 308 307 309 311 312 311 311 310
311 314 315 316 316 318 322 322 318 312 305 308 316 318 319 318 317 320 320 318 313 310 308 310 313 308 309 308 311 307 304 301 303 304 303 304 307 313 313 313 311 311 311 309
313 314 315 315 316 317 320 321 323 313 312 313 315 318 317 312 314 312 319 316 310 306 300 304 309 313 313 314 318 309 305 299 302 297 301 301 305 308 310 310 312 310 309 308
313 315 317 315 315 316 319 322 323 316 315 316 315 316 317 312 312 311 316 317 316 306 299 300 305 308 309 313 312 308 305 302 299 295 298 303 303 310 310 313 311 310 308 307
313 314 317 319 316 316 319 321 324 317 315 317 319 316 314 314 313 314 314 313 310 303 306 303 303 302 308 309 310 311 311 306 304 300 299 307 305 310 311 310 307 309 307 306
311 313 315 320 320 319 318 322 320 318 314 315 317 317 317 317 313 313 310 314 312 309 306 297 304 308 308 302 310 308 311 307 306 305 306 305 305 308 308 307 307 308 307 306
310 312 318 321 319 320 318 322 319 317 308 312 314 317 317 318 317 317 314 308 311 308 303 300 298 303 303 308 308 308 309 306 306 308 309 307 307 306 307 308 307 308 306 305
309 312 318 319 320 321 322 319 315 314 304 307 312 316 316 317 320 317 314 311 308 303 302 301 305 301 303 300 305 305 307 309 309 307 309 308 308 308 308 309 308 307 306 305
308 312 317 318 320 320 320 320 318 316 310 309 306 312 314 316 317 316 315 311 309 306 303 301 305 297 303 303 303 305 307 309 308 308 308 308 307 307 309 309 308 307 305 303
308 309 315 317 316 314 311 308 319 316 314 309 311 306 308 313 315 315 313 312 307 307 307 301 301 304 304 309 308 309 308 308 307 308 308 306 306 308 308 308 307 305 301 295
309 308 309 313 314 310 308 306 315 318 313 306 308 306 304 307 310 306 308 309 308 307 304 302 299 304 305 306 306 310 309 309 309 308 310 310 309 310 307 306 302 296 294 293
313 314 314 314 315 315 314 315 317 316 310 302 305 305 304 307 305 307 304 304 307 306 305 304 304 304 304 311 309 309 309 309 309 309 307 308 307 299 294 294 294 294 294 294
312 314 313 310 311 310 312 314 315 315 310 305 305 308 310 304 304 301 303 305 306 305 309 306 308 305 311 309 305 306 306 307 307 305 305 302 297 295 295 295 295 295 293 292
310 310 308 306 308 309 311 311 304 302 301 304 304 303 309 310 301 304 304 301 308 313 308 306 308 309 304 300 300 300 301 303 306 305 300 296 296 296 297 296 294 293 294 297
309 303 303 309 309 308 300 303 304 307 309 305 304 302 306 303 309 308 301 305 304 311 306 312 309 308 300 295 295 296 297 297 297 297 297 298 298 297 296 295 294 297 298 295
308 307 307 307 301 302 305 305 304 307 308 303 306 304 305 302 302 306 303 308 304 312 303 308 309 300 295 296 297 298 298 296 296 296 296 296 296 297 297 296 295 293 292 291
306 302 299 304 301 309 310 311 309 307 301 300 300 305 299 301 302 303 304 309 309 301 307 309 303 300 302 301 298 295 295 295 296 296 296 295 291 291 291 291 291 291 290 290
300 303 306 304 305 302 301 302 302 298 297 298 298 300 302 298 303 302 308 303 302 308 304 300 302 301 300 294 293 293 292 293 294 291 291 291 291 291 291 291 291 291 291 291
297 298 301 299 296 297 296 296 297 296 296 297 299 299 301 301 303 301 301 301 301 297 295 302 299 299 298 292 291 291 291 289 291 292 292 292 292 292 292 293 292 292 292 291
295 296 298 297 299 299 298 297 298 297 296 296 298 301 302 301 301 300 299 298 298 300 300 298 297 297 294 294 293 293 295 295 295 293 293 293 292 292 292 292 292 292 292 292
297 297 295 296 298 298 297 296 298 296 297 300 297 300 300 297 298 300 301 301 300 299 298 296 297 297 294 294 295 294 293 293 293 293 292 292 291 291 291 290 291 292 292 292

GFSNW_925_thetae_003.txt.gz
Theta_e
314 310 309 312 313 312 313 310 314 322 314 313 310 314 315 318 320 316 319 315 316 317 319 321 321 321 319 316 318 319 314 317 320 316 314 314 314 315 313 317 313 312 315 317
313 310 309 312 312 312 316 311 320 319 310 312 309 311 318 320 317 317 319 320 319 319 322 322 321 321 316 313 316 318 315 318 321 318 314 314 316 314 311 311 312 315 326 316
310 308 311 312 312 314 317 317 323 319 309 307 311 313 315 317 316 318 318 319 319 321 322 320 322 321 317 313 316 314 314 314 317 320 315 313 316 316 312 314 317 314 318 315
308 309 312 312 312 314 315 312 317 319 317 311 310 310 314 318 320 318 317 320 319 321 323 322 321 320 316 316 315 315 314 317 314 313 312 312 311 314 313 313 313 318 315 313
308 311 312 312 313 314 314 314 315 308 313 313 311 310 319 319 319 319 319 321 320 319 321 320 322 319 315 315 317 314 310 315 311 316 312 311 314 311 312 313 313 311 312 314
309 310 311 312 315 315 314 315 311 313 306 313 314 314 315 319 319 319 318 318 319 320 320 316 313 312 312 315 317 312 310 311 311 312 308 308 313 312 312 312 311 315 317 316
309 310 311 314 315 316 317 318 313 312 308 310 313 317 318 319 318 320 318 317 319 316 312 311 312 312 313 312 309 308 307 306 305 314 306 314 312 309 309 311 310 310 311 312
309 310 313 315 315 316 320 320 316 311 306 309 313 317 318 318 317 320 320 318 314 312 310 315 316 314 313 311 309 307 306 307 307 316 312 308 309 308 313 315 314 312 312 312
310 311 314 315 315 316 319 321 319 312 311 311 312 318 316 316 316 316 317 313 309 307 306 311 317 320 316 314 317 309 306 303 312 307 311 312 310 306 311 311 317 312 313 311
312 314 315 315 316 316 319 321 319 317 315 315 315 318 318 313 314 316 314 314 315 307 307 312 315 316 311 315 314 312 313 307 311 303 314 311 306 309 309 315 316 311 311 311
313 314 315 315 316 316 319 321 322 319 316 316 318 314 314 314 315 319 316 317 314 309 313 314 312 314 313 313 311 313 315 314 311 304 309 314 305 311 316 316 309 310 310 310
313 316 316 315 315 317 319 321 322 320 316 316 316 316 316 316 313 315 311 317 314 313 312 306 306 312 309 307 318 309 314 312 314 311 314 308 306 312 309 308 310 311 310 310
316 318 319 315 315 316 319 320 318 317 312 315 316 317 316 316 316 316 317 309 311 309 305 305 305 311 307 314 312 311 310 306 311 311 310 308 308 308 308 308 310 309 309 310
318 319 320 319 317 318 318 321 318 314 308 310 315 315 314 316 318 315 313 310 307 304 305 305 306 310 305 307 310 311 311 309 310 311 310 309 309 309 311 310 308 309 309 309
317 319 321 321 321 318 316 317 315 313 315 312 310 311 312 313 313 312 311 310 309 308 308 306 311 303 306 304 306 310 309 312 314 316 312 311 311 308 308 310 311 311 310 306
317 318 319 320 320 319 318 313 318 314 314 311 314 306 308 312 313 312 311 310 308 309 311 307 304 304 308 311 313 311 308 308 309 312 309 308 309 307 309 311 311 309 307 301
311 314 314 313 311 310 308 309 314 314 312 308 310 309 306 306 308 306 309 309 308 310 307 305 305 307 307 306 313 312 309 309 309 309 309 312 310 313 307 305 297 295 294 294
314 314 314 313 313 315 315 313 314 313 309 304 308 307 307 306 308 308 305 307 309 308 307 304 306 306 307 313 309 306 306 307 309 309 308 309 301 297 296 295 295 296 297 297
313 311 309 309 311 310 313 313 314 313 309 306 303 310 312 305 305 303 306 306 309 305 309 308 310 306 311 304 301 302 301 303 305 301 298 297 296 295 296 296 296 296 296 296
310 310 308 306 309 310 309 310 305 304 302 305 304 304 309 309 303 305 306 304 306 312 310 307 309 310 299 295 296 297 298 298 303 305 299 298 297 296 296 296 296 296 296 296
310 304 305 309 308 307 300 303 305 306 306 306 304 304 309 304 311 309 303 306 305 312 309 312 311 307 298 297 298 297 296 297 298 298 298 298 297 297 296 296 296 297 297 297
308 308 307 306 302 302 305 305 305 304 307 303 306 305 306 303 304 307 304 309 306 313 305 309 311 299 295 298 297 297 297 298 298 298 298 297 297 297 297 297 297 295 293 291
307 303 300 305 302 306 303 311 309 308 302 301 301 305 300 302 302 303 306 311 312 303 309 310 302 297 300 298 296 296 296 297 297 296 296 294 292 291 291 290 290 290 290 290
298 302 305 303 307 303 303 304 303 298 298 299 300 301 303 299 304 302 311 303 303 309 310 305 299 301 297 296 295 297 297 294 292 291 290 291 291 291 291 291 291 291 291 290
298 299 300 300 297 297 297 296 297 296 296 298 301 300 302 302 303 301 303 304 304 301 302 303 298 296 294 292 292 292 292 288 290 292 292 292 292 291 291 291 291 291 291 291
296 297 299 297 299 299 298 298 298 297 296 296 299 301 303 302 302 303 303 303 301 301 300 298 297 296 296 295 293 293 294 294 294 293 292 292 291 290 290 290 290 289 289 289
297 298 295 297 298 299 297 297 297 296 298 301 299 303 301 299 300 301 301 301 300 299 298 298 297 296 295 294 294 293 292 292 291 291 291 289 289 288 287 286 285 285 286 285

GFSNW_925_thetae_006.txt.gz
Theta_e
306 310 315 314 311 311 311 318 323 320 319 325 321 322 319 320 323 320 321 320 320 321 323 322 322 321 322 321 321 322 319 323 325 321 318 318 319 319 317 318 318 320 323 317
307 310 314 314 310 311 312 320 325 317 314 325 327 319 319 322 321 320 323 322 322 323 325 325 325 324 319 318 321 323 320 324 324 322 320 318 320 319 316 318 320 319 329 316
307 311 314 312 310 313 317 321 328 326 317 318 320 319 319 318 320 321 322 323 324 325 325 325 326 325 320 318 320 313 317 322 323 325 320 320 321 320 317 317 319 317 319 315
305 312 314 311 311 312 316 322 324 322 327 320 318 319 318 318 323 322 321 324 325 326 328 326 327 324 319 320 317 320 321 323 320 317 317 316 317 319 318 317 318 318 315 316
303 312 314 309 312 312 317 323 323 320 322 318 317 315 317 317 321 323 323 324 325 325 328 325 327 325 322 323 321 322 318 324 319 320 317 316 317 317 318 318 318 317 316 317
305 313 312 309 312 313 317 319 316 322 315 318 318 317 318 317 323 323 322 324 326 326 325 323 322 320 320 321 323 322 322 320 318 320 315 316 321 318 317 317 317 318 318 318
307 313 309 310 312 315 318 321 319 323 322 321 318 316 316 323 324 325 322 323 326 321 317 318 319 319 318 317 315 315 316 317 317 323 313 330 315 313 314 316 316 316 316 316
310 310 309 310 312 315 319 320 320 321 323 320 318 316 316 321 322 325 325 322 320 318 320 325 324 326 325 321 315 313 313 317 318 329 318 316 312 311 313 315 314 316 315 315
308 308 310 311 313 314 320 322 317 322 324 321 317 318 320 325 327 326 321 317 316 315 322 326 329 328 322 322 322 315 312 313 320 317 334 334 315 311 315 315 316 315 316 317
308 309 310 311 314 314 320 322 317 319 319 319 319 320 321 323 326 328 321 319 320 315 324 337 332 327 318 321 321 321 321 320 325 320 328 318 312 313 314 316 316 316 316 317
308 309 311 314 315 314 319 322 318 325 325 320 319 319 321 321 325 329 322 323 321 321 330 334 326 331 321 319 317 320 321 323 324 316 327 326 310 314 319 317 318 316 316 317
310 311 313 314 315 314 319 324 320 320 324 323 319 318 317 320 322 324 322 326 324 325 327 324 322 321 316 321 326 315 320 320 321 318 318 314 312 317 316 315 316 316 316 315
313 314 314 315 315 314 318 322 318 321 324 321 322 322 318 316 317 318 324 320 320 319 317 322 322 323 320 323 323 320 316 312 318 316 315 314 313 313 313 313 314 314 314 314
316 315 315 315 315 315 317 320 317 320 322 321 323 316 317 314 316 317 318 318 314 313 317 322 316 325 315 322 319 322 317 314 317 317 315 315 314 314 314 314 314 315 315 315
318 317 315 315 315 315 317 317 317 316 323 323 324 316 314 314 315 315 315 316 318 320 321 319 326 315 317 312 315 320 314 317 319 319 314 316 315 314 313 315 315 315 315 315
319 318 315 315 316 316 318 319 316 313 315 325 328 314 316 314 316 316 316 317 318 319 323 322 314 310 318 318 322 317 314 313 314 315 313 313 314 314 314 315 311 310 309 307
318 318 317 316 317 315 318 319 314 312 312 323 324 323 314 311 315 313 318 317 318 321 319 316 318 316 316 313 324 315 311 311 313 313 314 316 313 312 306 304 301 300 300 300
313 313 313 312 315 316 316 312 312 310 313 319 321 319 321 312 318 316 311 315 319 314 312 309 313 311 315 321 313 308 307 308 312 307 309 310 304 301 300 301 302 302 299 297
310 309 310 311 313 318 316 312 311 310 316 320 321 324 323 311 309 310 312 314 315 310 314 313 316 312 317 307 304 305 305 305 306 304 304 302 300 299 298 299 298 298 297 296
309 309 312 316 310 309 309 311 317 316 313 311 308 308 315 313 310 311 313 314 313 318 315 311 316 312 300 299 300 301 302 304 308 308 304 301 300 300 299 298 297 297 297 298
310 313 313 310 308 310 310 312 314 314 316 310 308 309 313 309 315 313 309 311 312 316 316 315 316 311 302 301 300 300 301 301 302 301 301 300 299 298 299 298 298 298 298 298
311 311 308 306 309 311 310 310 310 313 314 308 312 309 310 308 308 313 309 313 310 315 310 315 315 303 298 299 299 299 300 301 301 300 299 299 299 299 299 298 296 292 291 290
307 307 306 311 307 312 318 313 312 312 305 303 304 307 307 308 309 308 313 318 315 309 313 313 306 300 299 298 298 299 299 299 299 299 297 294 293 292 291 292 290 291 292 291
304 307 310 309 311 308 305 307 306 300 300 303 305 304 310 303 310 307 319 305 306 311 313 311 301 301 300 299 300 300 299 296 294 294 293 292 291 290 290 290 290 290 290 290
302 304 305 303 299 299 298 297 299 298 298 302 306 305 307 305 307 304 305 308 311 309 310 304 300 297 300 299 298 297 298 293 294 296 293 291 291 291 291 289 289 289 288 288
299 299 302 299 301 301 299 299 299 298 298 300 302 303 306 305 307 308 310 310 309 306 303 299 297 297 298 296 296 296 296 295 296 293 292 291 289 289 289 287 286 286 286 286
300 300 296 297 298 299 297 296 297 296 299 302 304 309 306 303 307 307 305 307 305 300 299 298 299 299 299 299 297 294 294 294 293 291 290 288 287 286 286 286 284 284 284 283

GFSNW_925_thetae_009.txt.gz
Theta_e
303 305 305 308 312 315 311 318 323 323 321 324 327 328 323 319 322 323 320 321 319 320 320 320 319 319 320 322 322 320 320 322 327 323 322 321 322 322 322 322 321 322 326 320
302 304 306 307 312 313 313 322 324 324 323 329 334 324 321 320 322 322 322 320 320 319 320 320 320 320 324 323 323 321 323 322 326 324 323 321 319 320 320 319 322 319 328 319
300 302 306 306 311 313 315 321 326 325 322 325 324 323 321 321 322 322 322 320 321 323 323 323 324 324 323 322 323 313 318 321 323 325 323 322 322 319 320 319 322 320 320 317
300 302 307 307 311 313 315 322 323 324 330 329 325 322 320 319 321 322 324 324 322 322 323 324 325 326 324 322 318 320 323 324 322 323 321 319 319 319 319 319 318 321 318 314
301 303 306 308 312 312 315 322 324 324 327 324 323 320 320 320 321 323 324 323 321 322 323 324 323 326 326 326 324 325 323 326 324 325 321 320 320 319 317 318 318 317 316 316
302 302 305 308 313 311 316 321 322 325 326 326 323 323 319 320 322 326 323 322 324 323 326 328 326 326 325 325 327 327 326 327 323 321 320 321 324 321 319 318 318 318 319 318
303 302 304 308 312 311 316 321 322 325 328 327 322 319 318 319 322 325 324 324 324 326 323 323 323 322 321 321 322 324 325 324 323 322 319 327 317 316 316 318 318 317 317 317
304 302 302 309 312 311 317 322 323 324 332 322 319 318 317 319 324 326 327 326 325 323 324 326 326 327 327 322 318 318 319 322 323 331 320 317 315 314 314 316 316 317 316 315
302 301 302 308 312 311 315 321 323 323 326 323 318 318 317 325 327 329 325 322 322 322 328 330 326 327 323 326 325 317 316 319 321 320 329 330 319 315 317 317 315 315 315 315
303 303 306 312 310 311 313 325 320 320 319 318 318 319 318 319 324 328 326 324 323 322 331 335 329 326 322 323 323 324 323 324 327 323 328 322 316 315 316 316 318 316 316 315
304 305 307 311 310 312 311 325 323 320 319 321 319 317 319 319 322 332 327 326 326 327 331 335 329 334 326 324 321 323 323 326 328 325 325 327 313 316 319 320 317 316 316 316
308 310 311 309 311 312 314 324 323 326 320 326 322 323 322 320 321 325 325 325 327 328 329 331 333 327 323 327 327 320 324 322 324 320 321 317 315 315 316 316 316 316 316 315
309 308 308 310 311 312 314 325 325 324 328 325 323 323 321 320 322 324 327 327 326 327 328 331 332 329 327 327 327 324 320 317 319 318 316 315 315 315 315 315 315 316 316 317
307 308 310 311 312 314 316 325 325 321 326 330 326 320 321 318 320 322 324 325 323 323 325 331 322 329 322 329 325 323 320 318 318 318 316 315 315 315 316 315 316 317 317 317
309 309 311 313 314 314 318 321 320 322 323 326 327 320 318 319 320 321 321 322 323 324 327 322 330 323 323 321 321 322 318 316 320 319 317 318 317 317 316 317 317 316 316 315
312 313 313 314 314 314 320 325 317 318 322 327 329 321 319 320 320 321 322 323 323 324 327 326 321 317 323 324 322 318 317 317 317 318 317 317 317 316 312 311 309 308 307 306
315 314 314 314 314 316 320 319 318 316 319 326 327 327 319 318 320 320 322 322 324 324 324 326 324 320 320 321 322 318 314 313 315 314 316 318 312 311 307 307 306 304 303 301
315 314 314 313 316 315 319 309 314 315 318 323 325 325 326 318 324 325 319 324 324 321 319 317 322 318 322 324 317 313 311 312 313 310 312 309 307 305 305 304 301 300 299 298
313 313 314 316 317 320 316 311 313 314 318 325 324 324 326 317 315 316 319 321 323 316 316 319 321 315 322 314 312 311 309 310 311 308 307 306 304 303 301 300 299 298 298 299
314 316 317 321 315 309 310 310 318 320 319 316 315 317 321 319 316 315 317 315 318 321 317 315 319 318 307 305 306 307 308 309 309 308 306 305 304 302 300 299 299 299 300 299
315 318 314 312 309 313 315 316 320 319 319 313 311 315 318 313 318 313 312 315 316 320 320 318 319 316 307 305 305 304 304 305 305 305 304 302 301 301 300 300 299 298 296 295
313 314 312 311 314 316 315 314 314 316 316 310 313 311 312 311 313 314 314 314 313 319 314 319 316 307 303 301 302 303 303 303 302 301 301 300 300 299 297 295 294 292 292 291
312 311 308 314 311 316 314 316 314 312 309 306 309 311 311 310 312 313 314 314 319 313 318 316 310 303 300 300 301 302 301 301 300 299 297 295 294 293 294 293 291 293 294 293
309 312 311 312 312 307 306 308 307 301 302 307 309 308 311 308 311 310 317 308 312 316 316 315 305 301 301 301 301 301 300 298 296 296 294 293 292 291 290 290 290 290 289 290
303 306 308 304 300 299 298 298 300 299 301 305 310 310 312 309 311 308 310 310 315 314 313 306 301 299 300 301 301 300 296 295 298 297 293 293 293 292 289 288 287 287 287 286
300 300 302 300 302 301 299 299 299 299 300 304 308 308 311 309 310 312 314 315 315 309 304 300 298 300 301 300 298 299 298 296 297 295 293 291 289 289 289 287 285 286 285 285
302 301 297 299 299 299 298 297 297 297 300 304 305 311 308 305 310 310 309 310 306 300 299 299 299 300 299 298 298 295 296 296 295 292 290 288 288 287 287 287 285 284 284 283

GFSNW_925_thetae_012.txt.gz
Theta_e
301 304 304 305 306 310 313 316 318 320 318 321 318 327 325 321 322 320 321 320 318 318 321 319 319 322 323 322 321 321 320 321 331 323 321 320 321 323 320 334 325 333 334 324
299 302 304 305 306 308 312 318 322 321 320 320 326 323 324 322 322 322 322 320 321 319 321 321 319 319 325 325 322 322 321 322 329 324 324 322 321 319 321 322 328 329 335 326
299 302 304 305 306 308 314 318 323 325 324 320 323 326 323 323 323 321 321 321 320 319 320 320 321 321 324 324 323 316 323 322 322 329 323 323 324 320 318 320 332 327 324 318
300 302 303 304 306 307 312 321 323 324 325 327 325 327 324 322 321 322 322 320 319 322 322 322 322 323 326 324 318 321 323 323 321 320 321 322 322 321 320 319 321 322 322 318
298 303 302 304 306 306 311 322 323 325 326 324 327 326 326 322 320 322 323 323 321 322 323 322 323 323 328 325 325 324 324 328 327 327 323 322 322 321 320 318 318 318 318 318
300 303 301 303 306 307 312 316 321 324 325 326 328 329 325 323 322 323 322 322 323 323 326 326 328 328 328 325 327 328 329 334 330 328 321 322 323 324 321 321 319 318 319 319
301 302 302 302 306 306 313 316 322 324 328 326 328 326 323 321 322 325 324 324 325 327 325 325 325 324 324 325 325 327 330 330 330 331 320 326 318 318 317 318 318 318 317 318
302 303 302 303 307 306 311 316 322 325 328 327 325 327 326 322 322 325 324 328 327 326 326 328 328 332 325 322 320 322 324 329 330 332 326 319 317 315 315 315 317 317 317 316
301 302 302 303 305 306 308 314 320 325 329 330 323 323 322 324 330 330 327 325 326 327 335 337 328 331 324 326 324 318 318 325 332 325 332 330 322 317 317 317 319 316 316 316
301 302 302 302 303 307 309 313 318 325 328 325 322 322 322 322 330 331 327 325 325 326 336 331 337 333 323 329 328 324 326 328 326 327 330 328 318 316 315 319 323 318 317 317
302 303 302 302 304 305 308 312 315 324 326 323 323 321 320 322 329 334 329 328 328 335 334 334 337 334 332 328 322 325 326 330 328 331 327 326 315 315 320 324 319 318 317 318
303 303 302 303 303 304 308 312 315 323 328 326 325 324 323 322 321 328 329 328 329 331 333 333 337 325 322 327 331 321 327 326 331 325 327 321 316 316 317 316 317 317 317 316
303 303 303 304 304 306 310 312 316 325 329 327 324 324 323 323 324 327 329 328 328 330 332 337 337 325 331 326 334 326 322 320 325 323 316 316 317 315 316 315 316 316 317 318
303 304 304 304 305 308 309 312 318 326 328 325 328 322 323 321 322 325 326 329 328 331 332 336 322 328 327 333 331 333 323 319 318 319 318 317 315 317 317 317 317 318 318 317
304 304 304 305 309 309 309 311 316 323 323 328 328 322 320 321 322 323 324 327 329 330 329 319 334 329 329 327 328 330 320 319 327 327 319 320 319 318 317 317 314 312 312 309
306 308 309 309 307 310 312 320 321 322 324 330 329 322 322 321 322 323 324 327 328 328 331 330 327 320 328 327 328 318 319 318 317 319 318 318 316 312 310 310 309 308 307 306
307 307 308 309 310 312 319 319 317 321 324 329 327 325 321 322 323 324 324 324 326 327 329 331 326 323 324 321 328 319 315 315 314 314 316 315 312 310 309 306 304 302 301 300
308 308 309 310 312 315 318 312 315 319 319 322 325 321 324 321 327 326 323 328 326 323 321 324 328 321 329 328 318 315 313 314 312 311 310 309 308 307 305 302 301 300 300 299
311 312 313 313 316 321 317 314 315 314 319 318 323 321 324 320 318 319 323 324 327 319 319 326 323 317 324 319 315 313 312 314 312 309 308 307 306 304 302 301 300 300 300 299
313 315 318 319 314 313 312 316 317 317 317 317 319 318 322 319 315 315 317 317 323 320 319 317 324 320 311 309 310 310 310 312 310 308 306 305 304 302 300 300 300 299 299 297
318 320 317 311 311 315 317 317 320 315 317 315 314 316 320 316 319 314 314 318 319 321 320 320 318 316 311 308 307 307 307 307 307 305 304 302 300 300 300 298 297 295 294 292
317 315 312 312 315 316 313 314 314 318 318 310 313 314 314 314 316 314 314 314 317 320 314 319 317 312 307 305 305 305 305 304 303 301 301 300 299 298 296 294 293 292 291 290
312 312 307 314 310 314 315 315 315 313 306 306 310 310 312 312 313 313 313 314 316 315 315 316 312 306 303 303 304 304 302 302 301 298 296 295 294 294 293 291 291 294 292 289
310 309 309 310 310 307 305 306 305 300 300 305 309 308 311 309 308 310 315 308 312 316 317 315 306 303 301 302 303 302 300 296 296 296 294 292 290 290 290 289 289 288 288 287
304 305 307 304 300 299 299 298 300 299 301 304 312 311 311 309 308 308 309 311 315 313 314 307 302 301 301 301 301 298 297 296 296 294 292 291 290 289 288 287 287 286 286 285
299 299 302 300 302 301 299 299 299 298 300 306 309 310 311 308 310 313 314 316 316 309 303 299 299 299 300 301 299 296 297 298 296 293 291 290 290 289 288 286 285 285 283 283
300 300 295 298 299 299 298 297 297 297 302 304 307 310 307 306 310 309 306 307 304 299 298 298 298 299 299 299 297 297 297 296 294 291 290 289 288 288 288 287 285 285 284 282

GFSNW_925_thetae_015.txt.gz
Theta_e
296 297 303 303 304 304 309 314 317 313 314 318 318 319 322 321 323 323 323 320 319 318 320 319 317 319 324 323 320 321 322 324 323 325 320 319 318 320 320 317 318 319 318 320
298 297 302 304 304 305 310 316 317 315 314 315 318 316 320 323 324 324 322 322 320 321 320 322 318 324 323 323 322 321 322 318 317 319 322 321 320 318 318 322 318 319 315 318
298 299 301 304 304 305 310 316 318 319 318 315 316 316 319 323 323 324 323 321 321 320 320 320 321 325 324 323 321 316 322 322 318 318 320 322 322 320 318 319 316 316 317 319
300 299 300 302 304 305 310 315 316 320 323 321 319 317 319 323 325 323 322 321 321 320 319 320 320 326 324 324 318 321 320 320 320 321 323 322 322 322 320 316 319 317 317 319
298 299 299 300 303 305 310 316 317 319 319 320 321 318 322 323 322 323 322 323 320 319 321 322 322 325 325 324 323 321 321 323 323 323 322 321 321 320 319 319 319 317 316 316
298 298 299 299 304 306 309 310 314 319 321 320 321 318 323 322 322 322 320 322 322 321 324 323 325 324 324 325 323 322 322 318 317 322 316 316 314 316 319 319 318 318 315 314
298 299 298 298 304 305 308 309 316 321 321 321 320 320 324 323 322 324 321 321 321 324 322 321 320 320 325 326 327 324 320 320 314 316 313 311 316 317 315 317 316 314 314 314
298 299 299 300 303 306 305 310 315 320 316 321 319 322 323 325 323 322 326 327 324 322 324 322 322 316 313 321 322 325 324 315 318 314 316 316 315 315 317 315 315 314 314 313
298 299 299 302 303 305 305 306 309 318 323 323 319 321 323 325 321 326 326 324 323 326 323 315 321 321 319 321 319 318 317 315 312 314 316 312 315 316 315 315 314 315 314 314
299 299 302 303 302 304 306 307 308 311 325 321 320 322 324 322 326 324 327 324 324 324 312 319 315 319 322 323 320 316 313 312 312 310 310 314 319 314 314 312 314 316 315 315
300 302 303 302 303 302 307 307 308 313 322 321 322 320 321 321 324 322 325 323 322 317 319 317 316 316 316 317 322 319 316 316 313 316 317 318 315 314 312 316 315 314 313 314
300 301 302 302 303 304 305 307 308 309 314 323 324 323 321 323 323 323 321 321 325 324 321 319 315 314 313 316 316 320 320 319 317 317 316 315 313 313 315 313 313 314 314 314
300 301 301 301 303 303 303 305 309 312 317 320 324 324 321 326 325 323 324 324 325 325 323 318 317 318 309 317 316 321 320 318 315 314 315 315 313 313 312 313 314 315 312 312
301 301 302 302 302 303 304 304 307 312 317 316 323 323 320 322 326 326 327 326 328 325 323 313 314 317 321 313 317 315 318 316 317 316 315 317 317 316 316 313 313 308 306 305
302 302 303 303 302 303 304 305 307 312 316 320 321 321 321 321 324 325 326 325 324 321 314 307 315 312 315 308 311 311 316 316 312 310 318 316 315 312 310 309 308 307 305 303
302 303 303 303 304 305 307 312 309 310 312 320 318 319 320 321 323 322 324 323 322 323 319 314 317 318 313 311 310 317 315 315 316 318 314 311 309 306 305 305 304 303 302 301
302 303 303 304 305 307 312 317 314 317 313 318 316 314 317 321 322 319 320 322 322 320 321 313 313 316 317 306 312 315 314 312 313 312 310 310 309 306 303 301 300 299 298 298
304 304 304 306 308 309 311 315 316 317 317 316 312 315 316 319 315 314 317 316 315 315 315 312 309 312 306 313 314 312 312 311 310 308 308 306 304 302 301 300 299 298 297 298
305 306 307 307 310 315 315 315 315 313 316 311 309 316 319 316 312 309 313 314 312 310 307 309 309 305 315 316 312 311 311 312 309 307 305 304 303 302 300 299 298 298 298 297
309 311 313 310 313 312 315 317 310 309 312 309 309 311 316 315 306 309 310 306 308 309 307 311 311 305 308 308 308 308 310 307 305 304 303 302 302 300 300 299 298 297 294 292
314 313 310 310 314 313 307 307 308 309 307 307 307 309 313 312 312 311 307 309 307 313 310 309 306 307 309 306 306 305 304 304 304 304 302 300 299 299 297 294 293 290 289 288
315 313 311 311 312 309 308 307 306 310 311 305 309 309 312 306 311 305 309 309 306 313 309 313 313 307 304 304 304 303 302 300 300 300 300 299 297 295 293 291 290 289 288 288
310 306 304 310 304 310 308 310 309 309 304 304 303 306 307 306 308 307 310 316 312 305 311 312 307 305 303 304 303 302 300 300 298 296 295 293 292 291 291 291 291 288 287 287
304 304 305 307 308 303 303 304 303 299 299 301 304 304 305 302 306 305 311 307 308 313 312 310 304 303 302 302 302 301 297 294 293 292 291 290 290 289 289 289 288 287 286 285
299 300 304 302 299 299 298 297 299 297 299 300 305 304 306 305 307 305 307 309 311 310 309 304 301 301 300 300 297 295 294 293 292 291 290 289 288 288 287 286 286 285 285 284
297 297 301 299 301 300 299 298 299 298 298 299 301 305 307 306 307 310 309 311 309 304 300 299 299 299 299 297 296 296 295 293 292 291 290 289 288 287 286 285 284 283 283 283
298 298 295 297 298 298 298 296 298 297 300 303 303 306 305 302 307 306 303 303 301 298 298 297 298 298 297 295 295 294 293 291 290 290 289 289 288 285 285 285 284 283 282 282

GFSNW_925_thetae_018.txt.gz
Theta_e
299 300 299 297 298 301 304 309 314 313 313 314 314 320 319 315 320 321 324 322 321 316 317 318 317 318 318 320 320 320 320 320 319 322 320 318 319 318 316 315 316 316 315 319
298 299 298 298 298 302 305 310 313 313 313 316 313 316 318 317 318 321 323 322 320 319 319 319 318 320 321 321 320 320 319 319 317 320 319 320 318 316 318 317 313 317 315 317
299 298 297 296 297 302 305 311 313 314 314 313 311 315 318 318 316 319 322 323 322 320 319 320 322 324 323 322 320 319 319 317 315 318 318 319 321 321 317 318 315 316 315 317
298 297 297 296 297 303 305 310 314 313 314 315 313 313 316 317 317 321 321 322 323 321 318 320 320 324 323 322 317 320 318 319 318 318 321 321 320 320 320 317 316 316 316 316
297 297 295 297 297 302 305 310 316 314 316 314 314 313 315 315 315 318 321 323 322 318 317 318 321 324 322 321 321 319 319 318 321 320 318 319 320 318 318 318 318 316 315 315
296 297 297 299 298 303 305 306 311 315 315 316 316 317 314 314 314 317 317 321 321 319 318 319 320 321 321 321 320 320 319 316 315 319 314 314 315 315 316 317 317 317 316 314
296 296 296 299 300 304 304 307 311 317 317 319 318 317 315 315 316 316 320 319 320 320 318 317 316 318 320 323 324 321 316 315 310 314 311 315 317 314 315 314 313 312 312 311
296 296 295 299 300 301 305 308 309 315 309 319 319 318 317 316 317 320 318 322 319 319 319 318 317 314 315 321 321 322 322 313 315 312 314 315 315 314 312 313 315 313 312 312
297 298 298 300 299 300 303 305 307 310 316 318 319 318 317 318 320 319 324 323 320 322 315 312 317 316 316 319 318 315 315 313 314 313 314 312 313 314 314 312 314 314 312 313
298 298 299 298 298 300 303 304 305 307 317 319 318 317 317 316 320 321 325 324 324 318 310 312 313 317 317 318 317 314 310 309 310 305 308 310 312 314 311 309 310 313 312 312
298 298 298 298 298 299 304 304 305 308 314 317 320 316 317 319 321 321 321 323 321 313 317 316 313 311 315 316 318 316 314 313 309 314 311 314 314 313 311 309 312 311 311 312
298 298 299 299 299 301 304 306 305 306 310 314 313 317 320 318 319 321 319 321 323 322 319 313 311 312 308 312 317 318 315 313 313 313 313 313 312 313 314 311 311 311 313 313
298 298 299 299 301 303 304 305 307 307 310 314 317 320 321 321 322 322 320 319 321 324 316 313 314 313 306 312 311 316 317 317 315 314 315 316 312 313 312 313 313 310 310 311
300 299 300 303 302 302 303 305 306 308 312 313 319 321 320 322 322 320 321 320 322 320 313 310 308 312 312 308 313 312 315 314 315 313 316 316 315 313 311 307 305 304 303 302
300 302 302 301 302 303 303 304 305 306 312 314 314 316 320 323 324 326 325 323 321 316 312 306 310 306 313 301 308 309 313 314 311 311 313 313 312 309 307 306 305 303 301 300
301 301 301 302 302 302 304 306 304 305 305 313 314 317 319 320 323 324 324 322 321 319 313 306 313 315 309 307 307 315 314 314 313 316 312 308 305 304 303 302 301 300 299 298
301 301 302 302 302 305 307 309 313 308 307 312 314 314 317 318 319 317 319 318 318 318 317 310 311 314 309 302 310 314 312 312 309 308 308 307 306 302 300 299 299 298 297 297
302 302 303 303 304 308 308 310 312 312 311 314 313 314 314 317 313 315 314 313 312 313 314 310 308 311 301 311 313 311 309 308 307 306 306 304 301 300 298 298 298 297 296 296
302 302 304 305 306 310 309 311 310 311 313 313 309 315 318 312 310 307 309 307 312 309 307 309 308 308 311 313 312 310 308 308 305 303 302 301 300 299 298 297 296 296 295 292
302 304 308 308 310 312 307 309 311 309 309 306 309 310 314 313 305 308 306 306 307 308 306 308 307 302 307 306 307 308 306 304 303 302 301 300 300 299 299 298 296 294 292 289
306 310 308 311 312 310 307 306 308 308 307 306 307 305 313 311 311 309 304 308 305 307 307 307 310 307 306 304 303 303 304 303 303 302 300 299 298 298 295 292 290 289 289 289
313 311 312 311 309 304 307 305 305 308 310 304 308 308 309 308 310 308 306 309 305 314 306 305 307 305 304 302 301 301 300 300 299 299 298 298 296 294 291 289 288 288 288 288
310 305 302 307 301 308 305 308 308 308 303 303 303 307 305 306 306 305 307 311 311 300 308 310 304 306 304 302 300 300 299 298 297 295 294 292 291 290 290 289 288 288 287 285
301 302 304 306 305 303 302 303 303 299 299 301 301 303 305 301 306 304 313 306 307 311 310 309 304 304 302 301 300 297 296 293 292 291 290 290 290 289 289 288 287 286 284 283
299 299 302 301 299 298 298 297 298 297 298 299 303 304 305 304 307 305 306 309 311 309 308 304 302 301 299 299 296 294 293 291 291 290 289 288 288 287 286 286 285 284 282 281
294 297 301 299 301 299 298 298 299 298 297 298 301 305 306 305 306 308 307 309 308 304 300 298 298 297 296 296 294 293 292 291 290 289 288 287 286 286 285 284 284 284 282 281
297 298 296 297 298 298 298 296 298 296 300 303 300 304 304 302 304 303 301 302 300 298 297 297 297 296 295 295 294 292 291 291 290 289 288 287 286 284 283 283 282 282 281 280

GFSNW_925_thetae_021.txt.gz
Theta_e
300 303 302 300 299 300 302 305 310 311 312 316 314 316 316 315 315 318 321 322 323 319 315 315 315 315 315 314 317 317 317 316 316 318 318 318 317 317 314 315 316 314 314 316
300 303 302 300 299 301 303 305 310 311 312 317 316 314 316 317 315 317 319 322 321 317 315 316 315 316 316 318 316 318 318 317 317 318 318 318 319 317 316 315 311 316 315 315
301 301 301 300 299 298 303 307 310 312 313 313 314 314 315 318 317 316 317 321 322 321 318 317 318 320 322 320 319 317 315 315 316 318 318 318 320 319 316 316 314 314 314 314
300 300 300 299 299 298 302 306 309 311 313 314 313 313 314 317 318 316 315 317 321 322 320 319 319 323 322 321 317 318 318 318 314 314 315 319 319 318 315 316 315 315 315 315
300 300 299 299 298 300 302 306 312 311 311 312 312 314 314 315 316 317 317 315 319 317 321 317 318 321 321 321 320 318 316 316 317 320 317 317 319 317 316 316 316 314 314 314
299 299 299 298 297 299 300 304 306 312 311 312 313 313 313 313 315 315 315 317 319 320 318 316 314 318 318 318 319 317 316 314 314 317 314 314 314 314 315 315 315 315 315 313
299 299 299 298 299 299 299 304 307 313 311 313 313 312 312 313 314 314 314 313 315 317 316 316 314 314 319 321 321 316 313 312 309 312 311 314 315 314 313 313 312 311 311 312
299 298 298 298 299 299 297 303 306 313 310 311 314 312 313 313 312 313 312 314 312 315 317 317 319 312 317 319 317 321 316 311 312 315 314 314 316 312 312 313 314 312 312 312
298 298 297 298 299 299 297 301 305 308 314 314 314 313 313 314 313 312 314 313 317 316 313 311 317 319 319 319 318 314 312 310 315 309 316 316 314 312 312 311 313 312 311 312
298 297 297 298 298 298 297 303 306 307 310 314 315 316 314 314 313 313 316 322 321 316 308 308 313 313 316 317 317 313 311 308 313 306 309 310 309 312 309 313 311 311 311 310
297 297 297 297 298 299 298 301 305 306 308 309 313 315 315 315 314 315 316 323 319 308 316 314 311 311 314 313 314 313 316 314 309 307 307 314 310 312 310 308 311 311 310 309
296 297 297 297 299 298 300 302 304 305 308 308 307 308 309 311 314 316 318 319 320 318 317 313 309 310 305 313 316 315 315 313 313 313 312 310 311 310 310 309 310 309 310 310
297 298 299 299 300 299 299 302 304 305 306 306 308 315 315 317 318 315 320 316 320 320 316 314 311 314 307 312 310 315 315 313 313 313 314 314 312 312 311 311 311 311 311 309
298 298 299 298 298 298 300 302 306 305 308 310 316 316 317 320 320 319 320 318 318 316 315 310 307 313 310 306 313 311 313 314 314 313 316 314 313 310 306 305 303 302 301 300
297 298 297 298 298 299 301 302 305 307 307 312 314 314 317 319 321 320 320 320 317 312 312 308 313 308 312 300 307 306 312 313 312 312 314 312 313 307 305 304 302 301 300 299
297 298 298 298 299 303 304 304 304 304 305 309 311 312 316 318 321 320 318 319 317 314 311 307 312 314 311 310 309 313 312 311 310 313 309 308 304 302 302 301 300 299 298 298
298 298 299 302 303 302 303 304 307 304 304 309 311 311 316 317 316 314 318 316 317 318 315 306 309 313 306 299 310 313 312 309 307 305 305 305 304 302 300 299 298 297 296 296
301 300 301 301 302 302 304 308 310 305 307 310 310 311 313 314 310 317 313 314 313 312 313 307 306 310 300 310 312 309 308 307 305 303 304 303 299 298 297 297 296 296 295 293
300 301 302 302 303 304 307 308 307 310 311 311 306 311 316 313 311 308 309 309 312 310 310 310 313 309 313 310 311 309 308 308 302 301 300 299 298 298 297 296 295 294 293 292
302 302 305 306 305 307 307 306 308 309 310 306 307 309 314 314 306 309 308 305 308 313 309 308 308 308 306 304 307 305 304 303 301 301 300 298 298 297 296 296 295 293 291 290
303 305 305 307 307 306 304 303 306 307 307 305 307 307 312 310 312 309 303 308 304 309 310 310 310 309 305 302 304 304 303 303 303 302 300 298 297 296 294 292 291 289 289 289
304 309 308 307 306 306 304 304 305 307 309 304 308 308 310 306 308 307 306 308 305 311 305 305 312 304 301 300 300 300 299 299 299 299 298 297 295 293 291 290 289 289 288 287
307 304 303 306 300 306 308 310 308 308 302 303 303 306 303 304 305 304 305 306 305 304 303 308 303 305 301 300 300 300 299 299 298 296 294 292 291 289 289 288 288 287 286 285
301 306 303 304 303 302 302 303 303 299 299 300 301 303 305 301 306 304 312 306 307 309 309 306 304 303 301 300 298 297 296 294 293 292 291 290 289 288 288 287 286 284 283 284
299 300 302 301 299 298 298 297 299 298 298 300 304 304 305 304 306 304 306 310 310 308 303 304 302 301 299 297 295 293 292 291 291 290 289 288 288 286 285 285 284 283 282 282
297 297 300 299 300 300 298 298 299 298 297 298 301 303 305 306 306 307 305 308 307 303 299 298 297 298 296 295 293 292 291 290 289 289 288 287 286 285 284 283 282 281 281 280
297 297 296 297 298 298 298 296 297 296 300 303 296 303 304 302 302 302 300 299 298 297 297 296 295 295 293 292 292 291 290 289 288 287 287 285 284 283 283 282 281 280 280 280

GFSNW_925_thetae_024.txt.gz
Theta_e
302 301 300 300 301 302 302 305 304 309 311 314 314 314 314 314 316 316 319 320 323 323 315 315 314 314 314 311 313 314 316 314 313 317 316 317 315 316 314 316 316 313 312 314
302 301 300 300 301 301 302 305 307 309 310 312 314 313 314 314 315 315 318 320 321 319 316 316 314 314 314 313 313 315 316 313 313 314 314 316 318 316 314 312 310 315 314 315
303 301 300 300 301 300 302 305 306 310 310 308 311 312 313 315 316 315 316 318 320 321 320 314 315 315 320 316 314 315 314 314 312 314 313 315 318 316 315 315 314 314 313 315
303 301 300 300 302 301 302 304 305 309 310 310 310 311 313 314 315 316 315 316 319 320 322 317 319 320 321 318 318 315 314 315 313 313 314 316 317 318 315 315 314 316 316 313
303 301 301 302 301 300 301 304 306 310 308 308 310 313 313 314 314 317 317 316 316 318 321 318 318 321 319 319 317 316 314 316 314 318 317 317 318 316 314 314 314 313 313 313
302 301 302 302 301 301 301 300 304 308 308 309 309 311 312 313 313 314 314 315 315 317 316 315 315 314 316 317 317 316 313 313 313 317 313 315 315 314 315 314 314 314 315 313
302 301 301 301 300 299 299 300 305 309 308 311 309 309 311 313 313 314 314 314 314 314 315 314 314 313 317 318 317 313 310 311 309 310 310 314 315 313 313 313 312 311 312 310
302 301 300 300 300 299 299 300 303 309 308 309 311 310 311 311 312 313 314 313 312 314 316 318 320 314 318 317 315 315 312 309 312 314 314 313 315 312 312 313 312 310 309 311
301 301 301 300 299 299 299 301 303 305 310 309 310 311 309 310 311 311 312 312 311 314 315 312 320 322 319 318 318 313 311 308 313 308 313 315 313 313 309 310 312 309 311 311
301 300 300 300 300 299 299 299 299 302 307 311 310 312 311 310 310 311 310 311 317 314 305 311 313 317 317 319 319 316 311 308 312 304 309 312 311 311 309 313 313 309 311 310
300 300 300 300 299 299 298 298 298 304 306 307 310 312 311 311 311 311 312 316 315 308 314 314 312 309 313 312 315 316 319 315 310 306 308 319 308 311 311 310 309 309 309 308
299 299 299 299 299 299 298 297 297 301 305 309 306 306 306 307 311 311 311 313 316 316 316 310 307 312 304 311 315 313 317 315 314 314 315 311 308 310 307 307 309 309 308 308
299 299 298 298 299 299 298 297 298 299 305 306 306 308 311 310 310 312 313 315 317 315 314 311 311 312 307 315 312 314 313 310 312 312 312 310 310 311 309 309 308 307 308 306
298 298 298 297 297 297 297 298 300 304 306 306 309 312 313 316 314 314 315 316 316 313 314 307 308 311 309 310 313 311 311 312 312 311 315 314 312 311 308 305 303 302 300 299
297 297 296 295 296 298 298 298 301 303 307 308 308 307 311 316 317 317 316 315 314 312 312 306 311 307 310 304 308 305 311 313 313 314 312 311 310 306 304 304 302 300 299 298
296 297 297 298 299 298 299 301 301 303 304 307 307 310 312 316 317 316 316 317 312 311 311 309 311 313 314 313 313 313 311 310 310 312 309 305 303 301 301 300 299 298 298 297
297 298 298 298 298 298 301 302 303 302 303 306 306 308 309 315 316 314 314 312 313 314 312 306 309 312 311 309 317 313 311 310 306 304 305 305 304 302 299 298 297 297 296 295
297 297 298 298 299 300 302 303 307 303 303 305 307 310 310 313 313 314 310 310 310 311 312 307 308 308 302 310 310 309 307 305 304 302 303 303 299 298 296 296 296 295 294 293
297 298 298 300 302 302 303 304 306 304 305 305 306 311 311 312 311 308 307 307 310 309 309 308 310 308 314 311 310 308 306 307 302 300 300 299 298 297 296 295 294 294 293 293
299 300 301 300 303 304 304 305 306 308 310 308 307 309 312 313 306 309 307 303 310 314 309 308 309 310 306 305 306 305 303 301 301 300 299 298 297 296 295 294 293 293 292 292
302 304 303 305 305 304 303 303 304 305 306 305 305 305 311 309 310 310 303 307 304 313 311 315 312 312 306 303 305 304 302 302 303 302 300 299 297 296 294 293 291 291 291 290
303 305 305 305 305 303 304 304 303 306 309 304 307 307 309 305 308 309 305 308 306 314 305 311 313 306 301 300 300 300 300 299 299 298 297 296 294 293 292 291 290 289 287 286
305 303 301 305 299 305 306 310 308 308 302 302 302 308 303 304 304 304 307 310 311 304 310 310 304 304 301 300 299 298 298 297 296 294 293 292 291 290 290 289 287 286 285 285
301 302 302 303 303 302 301 302 303 299 299 300 301 303 304 301 305 303 312 305 307 309 308 306 304 302 300 299 298 297 295 294 293 292 290 289 289 288 287 286 286 285 284 283
298 299 302 301 299 298 298 297 299 298 298 299 302 303 304 305 306 304 308 311 309 307 305 302 300 299 298 296 294 293 292 291 291 290 288 287 287 286 284 284 285 284 283 282
297 297 299 298 299 299 298 297 299 298 297 298 301 304 306 305 304 304 302 307 303 301 299 297 297 296 294 294 292 292 291 290 290 289 288 287 286 285 282 282 282 282 281 280
297 297 293 295 296 296 295 295 295 295 299 302 301 301 299 300 300 298 297 298 297 296 296 294 294 294 293 292 291 290 289 289 288 287 286 285 283 282 281 281 280 280 280 280

GFSNW_925_thetae_027.txt.gz
Theta_e
304 304 303 302 301 301 302 302 304 303 303 308 311 312 312 313 314 316 318 320 323 324 316 315 316 317 317 312 314 317 317 319 319 320 316 316 317 319 318 325 320 317 319 319
304 305 303 302 301 301 302 303 304 304 305 308 311 311 312 313 314 315 317 319 320 320 319 315 315 315 313 313 314 318 317 316 319 318 316 317 319 317 316 315 316 319 327 322
304 305 303 302 301 301 301 304 305 307 306 307 309 310 312 314 313 314 315 318 319 320 320 316 315 315 316 314 313 315 316 316 318 319 318 317 319 317 316 319 321 322 320 320
301 305 303 302 301 301 301 304 306 307 307 307 309 309 310 312 314 315 315 316 316 321 320 317 317 317 320 317 317 315 318 318 315 314 313 316 317 317 316 318 319 322 321 316
301 305 303 302 301 301 301 303 305 306 308 307 307 309 311 312 313 313 316 316 316 316 321 320 318 319 320 320 317 317 315 319 314 315 315 315 318 317 317 317 315 316 315 316
301 302 303 302 301 301 301 301 302 307 307 308 308 307 310 312 312 313 314 314 315 317 317 318 316 315 316 318 319 317 317 317 317 319 314 316 320 318 317 317 315 318 319 319
302 300 303 301 301 300 301 301 303 306 308 309 307 307 309 310 312 313 313 315 315 314 313 314 315 315 317 317 317 316 314 316 315 319 314 324 319 313 315 317 316 314 313 314
301 299 303 301 300 300 300 301 303 306 308 308 309 308 307 311 312 313 313 314 313 312 313 318 318 318 318 317 315 316 314 314 315 322 320 317 315 314 316 317 317 314 314 312
302 301 302 300 300 301 299 300 303 305 307 308 307 309 308 309 312 313 312 312 311 313 313 314 322 324 321 322 319 313 311 311 321 313 321 323 319 314 311 312 318 313 312 313
300 303 301 300 301 301 300 300 301 303 306 306 309 310 309 309 310 312 312 312 313 313 310 315 317 321 319 322 323 320 317 314 319 313 322 319 314 311 311 319 321 313 312 313
302 302 301 301 301 300 299 298 301 303 305 305 305 308 310 310 310 310 311 313 313 312 314 316 317 316 318 318 318 319 322 322 321 315 321 324 312 309 317 318 311 312 313 314
302 301 302 302 301 301 299 298 299 300 300 305 305 306 305 307 309 309 310 311 312 312 315 313 312 316 313 316 322 313 323 320 323 321 324 317 311 315 312 310 313 311 314 311
301 300 300 301 301 300 299 298 298 298 300 302 305 306 307 308 307 309 313 313 315 314 314 314 315 316 313 318 316 316 313 311 318 318 317 314 313 311 311 309 311 309 311 310
301 301 301 300 300 300 297 298 297 299 302 305 306 308 308 309 310 309 310 313 314 314 314 312 312 317 312 316 317 317 315 313 314 315 313 315 314 312 312 309 309 307 306 306
300 300 299 299 299 299 298 297 298 298 303 306 308 306 307 307 313 309 312 313 315 314 315 310 316 310 312 307 311 314 313 315 317 319 315 317 315 313 308 308 307 305 303 301
299 299 299 299 299 298 297 297 297 300 300 303 305 307 309 314 316 315 314 315 314 316 314 311 311 312 315 316 317 315 313 313 313 315 311 308 305 304 304 304 303 301 301 300
298 297 297 297 297 297 299 300 300 298 299 305 305 307 310 313 316 315 316 314 315 315 315 312 314 314 313 311 318 315 312 312 309 306 308 308 305 307 302 301 299 298 297 297
296 296 295 296 297 297 300 302 300 299 302 305 305 307 308 312 311 314 311 313 312 314 314 309 313 309 306 315 313 311 309 307 306 306 304 306 302 299 298 298 298 297 296 295
296 297 296 298 298 300 301 303 302 303 303 303 303 309 313 311 311 308 308 308 313 310 311 311 312 311 316 314 311 310 307 309 305 301 301 301 301 299 298 298 297 296 296 295
298 299 300 300 301 302 304 305 305 305 305 306 307 308 312 310 306 309 310 305 311 316 313 308 313 315 308 306 306 307 304 302 302 302 300 299 299 298 297 297 296 296 295 294
299 301 300 300 302 303 302 303 303 303 305 306 307 306 311 309 311 310 305 307 307 317 315 315 315 315 307 303 305 304 302 302 303 303 300 300 299 297 295 295 294 293 293 292
301 303 303 303 303 302 303 304 302 303 309 304 307 308 310 305 309 308 305 309 306 317 307 314 316 307 302 302 302 301 301 301 299 299 297 296 295 294 293 292 292 289 287 287
304 301 300 304 300 306 305 307 307 307 302 302 303 306 304 304 305 305 306 310 311 304 311 312 307 303 301 300 299 298 297 296 295 294 293 292 291 291 290 288 287 287 286 285
300 301 302 302 303 301 300 302 303 299 299 300 301 303 305 301 305 304 312 306 306 310 310 307 303 301 299 298 297 296 294 293 292 291 290 290 289 288 287 287 287 286 285 284
299 299 302 301 299 298 298 297 298 297 297 299 303 304 305 305 306 304 307 309 307 304 303 300 298 297 296 295 294 293 292 290 290 289 288 287 287 286 285 285 285 284 283 283
296 293 294 295 297 294 294 293 296 296 296 298 301 304 305 303 301 301 300 303 299 298 297 296 295 294 293 292 291 291 290 289 289 288 287 286 285 284 283 282 282 281 281 280
296 294 290 290 292 291 291 291 292 293 299 301 298 295 296 297 296 293 292 293 292 289 293 294 293 292 291 291 290 290 289 288 287 286 284 283 282 282 282 281 280 280 279 279

GFSNW_925_thetae_030.txt.gz
Theta_e
305 305 304 304 304 303 302 302 305 304 304 306 308 310 312 310 311 316 319 320 320 321 318 319 317 317 317 317 319 319 319 319 320 319 320 321 321 321 323 324 323 323 325 321
306 305 305 304 304 302 302 302 305 304 304 307 308 309 310 311 311 314 319 320 322 323 322 321 318 317 318 318 318 319 320 320 321 319 320 320 321 322 322 322 322 321 329 321
303 305 305 305 304 302 301 303 305 306 306 306 308 308 308 311 311 312 317 319 321 323 324 321 320 318 317 318 318 317 319 319 319 320 318 318 321 321 321 322 324 321 322 319
300 302 304 305 304 302 301 303 306 306 306 309 308 310 310 311 310 312 314 317 319 322 323 321 320 317 321 316 316 317 320 319 319 317 317 317 318 317 319 320 320 321 320 320
301 301 304 305 304 302 301 303 307 309 308 306 306 309 309 310 310 309 313 316 318 319 321 319 322 320 319 322 320 319 320 319 320 320 318 318 318 318 317 318 318 318 320 321
302 302 302 305 303 302 301 301 304 308 307 308 307 310 309 309 310 311 311 311 313 315 317 317 319 318 318 319 322 321 321 321 321 320 320 320 321 320 319 319 319 319 321 322
301 302 301 304 303 300 300 302 305 308 309 309 308 306 308 309 310 311 311 313 315 315 313 315 316 315 321 321 321 322 323 322 323 322 321 332 320 319 320 319 319 320 320 320
301 302 301 301 302 300 301 302 305 308 310 309 307 307 307 308 309 310 311 315 314 314 315 315 313 315 321 322 322 322 322 322 324 331 324 321 319 318 320 321 321 321 321 320
302 302 301 302 302 300 301 302 303 307 309 309 308 307 308 310 311 313 312 313 314 315 318 319 319 317 314 322 324 317 318 320 327 322 325 330 321 320 319 319 322 320 319 319
302 301 299 303 301 300 301 302 303 305 307 307 308 309 310 308 310 312 313 315 315 314 318 323 321 320 315 316 326 324 322 322 327 326 328 323 321 318 317 322 323 321 320 319
302 301 300 302 301 301 300 301 302 305 306 307 307 308 309 309 311 314 313 315 315 316 317 320 321 324 322 319 319 324 324 326 328 326 330 329 318 316 322 323 322 320 320 319
301 300 302 301 301 301 300 301 303 304 306 306 303 302 303 308 309 312 315 312 313 314 315 318 319 324 321 320 325 319 324 324 326 325 324 323 318 321 320 320 320 319 319 318
301 301 302 300 301 300 300 301 302 303 305 305 305 304 306 307 308 310 313 313 312 314 314 319 323 328 323 326 322 321 320 318 323 322 322 321 320 319 317 316 318 316 317 317
301 302 301 299 299 299 299 300 301 302 303 304 305 305 307 306 309 309 311 312 312 315 316 318 322 324 319 324 324 322 320 317 321 323 321 317 319 319 319 316 315 314 316 315
302 301 300 301 299 299 299 300 300 301 304 305 305 304 305 305 308 311 310 313 316 319 319 320 319 320 319 318 318 323 317 320 323 326 322 322 322 321 318 316 315 315 315 313
302 302 301 299 298 298 299 300 299 300 302 304 305 305 308 309 310 312 313 314 314 317 318 320 319 316 319 324 322 317 318 318 319 320 317 319 314 315 317 315 315 313 313 312
301 301 300 298 298 299 300 301 300 300 300 303 307 308 309 310 313 314 316 315 316 315 317 320 320 321 317 322 323 317 318 317 317 314 313 315 312 315 311 312 311 309 310 308
298 298 298 298 298 298 300 302 299 299 302 303 307 308 309 312 315 315 312 317 317 317 317 318 320 318 317 322 320 319 316 314 314 312 310 310 311 309 308 307 306 306 306 304
298 298 298 298 299 299 297 300 299 300 302 306 305 311 314 312 312 312 311 313 316 313 319 319 320 322 322 319 316 317 316 315 315 308 308 307 308 307 305 305 305 305 303 302
297 297 299 301 299 297 299 299 302 302 304 307 309 311 314 315 311 311 310 308 313 316 319 315 320 322 315 310 310 311 310 309 307 308 307 306 305 304 303 303 302 302 301 300
298 301 302 302 298 304 303 304 305 304 306 307 308 311 312 313 315 315 310 311 310 324 321 321 321 322 313 306 307 306 306 306 307 307 307 306 305 304 302 301 300 299 298 297
301 303 302 302 304 304 304 305 302 304 309 308 310 310 310 308 312 312 310 313 312 319 310 319 320 307 303 303 303 305 305 305 304 304 303 302 302 301 300 299 295 293 291 289
303 304 304 305 303 307 306 308 308 309 305 304 306 310 313 308 306 308 311 315 316 306 312 309 304 302 300 300 300 298 298 298 297 296 297 294 293 292 291 290 288 288 287 287
303 305 304 304 305 304 304 304 306 302 300 301 304 306 306 302 305 304 313 307 308 315 312 306 301 299 297 296 295 294 293 292 292 292 291 290 289 289 288 288 288 288 288 287
299 299 300 301 299 296 297 297 299 298 297 300 303 304 305 304 306 304 307 311 307 303 301 299 297 297 295 294 293 291 291 290 289 289 288 288 288 287 287 286 286 285 284 283
294 290 292 293 295 293 292 292 295 295 295 299 302 304 306 303 303 302 300 302 298 296 294 293 295 293 293 292 291 290 289 289 288 287 286 286 285 285 284 283 282 282 282 281
294 292 289 289 290 289 290 290 291 291 299 301 299 298 297 298 297 295 293 293 292 291 290 290 291 291 290 290 289 289 288 287 286 285 285 284 284 283 283 282 281 280 279 279

GFSNW_925_thetae_033.txt.gz
Theta_e
305 306 306 305 305 304 304 303 306 304 304 308 307 308 311 309 312 311 313 316 318 316 318 322 318 318 319 318 318 319 320 320 323 322 321 320 321 322 323 328 326 327 329 325
306 304 306 306 305 305 304 304 305 304 305 309 309 308 308 308 308 312 311 314 319 321 319 319 321 319 318 319 319 320 321 321 324 323 320 321 321 324 324 323 325 327 334 324
303 303 303 305 306 305 304 303 306 306 307 308 309 308 309 308 307 309 312 312 315 317 321 321 320 321 320 319 319 320 321 320 321 324 321 320 321 320 321 323 330 326 326 322
301 302 302 304 306 305 303 302 306 307 308 309 310 309 308 308 307 307 311 312 316 317 316 318 320 321 320 319 317 319 321 323 321 320 319 319 318 319 320 322 322 325 324 322
301 301 301 301 306 305 303 300 306 308 309 308 309 309 308 308 308 308 311 313 314 319 321 319 323 321 321 319 319 320 322 322 321 319 318 318 318 318 318 320 320 321 321 321
301 301 302 301 304 305 302 300 304 308 308 309 310 311 309 307 308 310 310 311 314 315 315 319 321 319 319 321 322 321 321 324 324 323 319 319 323 319 319 319 318 319 321 320
301 302 302 302 302 304 299 301 305 311 309 310 310 308 308 308 307 308 308 310 313 315 316 316 315 315 315 319 319 321 323 324 325 326 328 328 321 320 320 320 319 319 318 318
301 302 302 302 301 305 300 303 306 309 311 309 309 308 308 307 307 309 310 310 311 313 315 316 315 317 316 316 314 318 323 326 327 329 325 321 319 320 321 320 320 320 320 320
302 302 302 302 301 301 301 303 304 309 311 310 308 308 308 309 309 311 311 312 315 317 317 316 314 312 311 315 319 319 321 326 329 327 326 327 322 320 320 320 324 320 320 321
303 301 302 302 301 301 302 303 303 307 308 309 309 309 309 308 309 312 312 315 317 316 320 323 316 316 311 315 324 324 325 326 331 330 327 323 320 320 321 325 323 321 321 321
302 301 302 301 300 301 302 303 305 307 308 308 308 309 309 308 310 314 312 315 316 318 319 316 313 320 317 316 314 322 325 327 330 328 330 331 321 321 322 323 322 323 323 320
301 302 301 300 301 300 301 304 305 306 308 308 308 308 309 309 309 311 313 314 315 315 315 317 314 324 326 318 320 317 321 326 326 324 325 324 322 322 322 321 323 324 322 320
301 302 301 300 301 299 302 304 304 305 306 308 308 308 307 308 309 310 314 316 313 314 313 314 319 323 323 323 323 320 321 319 324 324 324 323 323 322 322 323 323 323 321 320
301 301 300 301 299 300 302 303 303 304 305 308 308 306 307 307 308 310 311 313 313 313 314 318 322 321 314 322 321 322 319 321 321 322 321 322 322 323 323 322 321 320 319 320
300 302 302 300 299 301 302 302 303 303 306 307 306 305 304 306 307 309 311 313 315 314 317 321 320 316 317 320 322 322 318 319 324 326 321 325 323 322 323 322 321 319 318 319
301 301 301 300 300 301 301 301 302 303 304 306 308 306 306 305 306 308 312 313 315 314 316 319 317 313 316 324 321 313 315 319 320 321 321 321 322 319 319 321 320 319 318 318
300 300 299 300 300 301 302 303 302 302 302 304 304 307 308 307 309 311 312 313 313 315 317 319 318 318 318 322 324 317 317 315 318 319 318 318 318 319 317 318 318 315 317 317
299 299 299 300 300 300 303 301 300 301 303 304 303 305 305 309 311 313 313 315 315 314 315 316 318 318 321 321 316 315 315 317 318 318 316 316 314 314 314 314 314 314 315 315
299 299 299 300 300 301 302 300 300 303 303 303 306 307 310 309 311 312 314 316 315 313 317 317 317 321 322 319 318 317 317 317 316 315 313 312 313 313 311 311 311 312 312 311
298 299 300 302 301 300 299 301 303 302 303 305 308 307 307 313 309 310 310 312 315 317 318 316 319 320 314 309 311 312 313 313 312 314 315 313 312 311 309 309 309 308 308 307
301 303 303 300 299 300 302 304 304 304 306 307 308 308 308 311 314 312 309 309 313 319 318 319 319 317 304 302 304 307 309 310 310 310 310 311 311 310 308 306 306 305 304 303
301 302 300 299 297 301 306 306 305 307 307 310 311 311 312 308 311 315 314 311 311 320 312 320 313 302 299 298 300 300 301 303 306 306 307 306 306 306 304 302 298 294 291 290
304 304 304 306 304 307 311 307 306 308 308 308 310 313 312 311 310 312 315 321 316 307 310 307 303 299 297 296 296 295 294 295 295 294 293 292 292 291 291 291 290 289 288 287
303 306 305 306 307 302 300 301 304 301 301 304 306 310 308 304 306 304 314 306 309 314 311 305 299 297 296 294 293 291 291 290 290 290 290 289 289 289 289 289 289 288 288 287
297 297 299 298 297 297 296 296 300 298 298 299 304 305 304 305 307 305 309 312 306 303 301 297 297 295 294 293 292 291 290 289 289 288 288 287 287 287 286 286 285 284 283 283
293 290 292 291 295 295 293 293 296 294 294 298 301 304 308 305 304 301 302 302 299 297 294 293 293 292 291 291 290 289 289 289 288 287 286 285 285 284 283 282 282 282 282 282
293 291 288 289 289 289 291 292 294 293 297 302 302 300 300 301 299 296 295 294 293 292 291 289 288 289 289 289 288 288 287 287 286 285 285 284 284 283 283 283 281 281 280 279

GFSNW_925_thetae_036.txt.gz
Theta_e
303 303 305 304 306 305 305 305 306 304 304 307 307 309 308 308 309 309 310 311 311 312 314 318 322 320 320 319 319 319 320 322 323 321 321 320 321 322 322 327 327 329 336 328
303 303 303 304 306 306 306 305 305 305 306 306 308 307 310 307 308 309 310 311 312 313 317 323 323 323 321 320 321 319 320 320 324 324 322 322 321 321 322 325 327 330 336 328
303 304 305 305 305 306 306 304 305 307 307 308 308 309 311 309 308 308 308 309 312 313 316 319 323 322 321 322 320 319 322 321 322 325 323 323 323 321 321 325 330 329 329 326
301 301 301 305 305 306 305 303 304 307 308 308 309 309 308 309 309 308 309 310 311 312 314 317 320 320 322 322 321 319 323 323 321 321 320 321 321 321 320 321 328 329 327 327
301 301 301 301 306 306 306 299 306 308 307 308 309 309 311 308 309 309 308 310 310 312 313 318 320 323 323 324 323 321 323 323 322 323 321 320 320 320 320 320 320 320 322 323
300 301 301 301 302 305 307 299 303 308 307 309 309 310 311 310 310 310 308 309 310 313 313 316 318 320 319 319 323 324 323 324 324 325 322 320 321 320 320 320 320 321 322 323
300 300 301 301 302 303 303 298 305 307 309 310 309 308 309 310 309 311 309 310 310 312 317 318 318 316 318 318 318 319 322 324 324 326 325 325 320 320 319 319 319 320 320 319
301 301 301 301 302 302 302 297 305 307 310 310 308 308 309 309 309 311 310 310 311 312 318 318 319 319 317 317 316 315 316 322 328 327 326 322 319 320 320 321 321 320 320 320
302 302 301 301 301 302 301 299 302 307 308 310 308 308 309 310 310 311 311 310 310 313 313 318 319 318 315 316 314 313 316 322 328 328 327 327 323 321 320 320 322 321 320 321
303 302 301 302 302 302 301 300 299 307 309 309 308 309 309 309 309 312 312 312 313 313 313 314 319 316 311 315 317 319 315 322 328 328 328 326 322 320 319 324 324 323 323 322
303 302 301 302 302 302 301 301 302 306 308 310 309 309 310 310 310 312 311 313 313 317 316 317 317 320 315 312 313 322 320 324 328 329 327 327 322 320 322 324 327 325 324 324
301 300 302 302 302 302 300 302 303 305 308 309 308 309 309 310 309 311 312 313 314 314 315 318 318 324 323 319 320 317 320 320 327 324 327 325 321 321 323 325 326 325 324 325
301 302 302 301 302 301 301 303 304 305 307 308 309 308 307 309 310 310 314 314 313 315 315 317 320 320 323 324 320 318 319 316 318 317 322 322 324 324 323 323 324 323 323 324
302 302 301 301 300 300 301 304 304 305 307 308 308 308 309 309 310 311 312 314 313 314 316 318 321 322 318 321 318 319 317 319 319 320 317 315 318 320 323 324 323 323 322 321
302 301 300 301 301 301 303 304 304 305 307 307 309 307 306 307 308 309 310 312 314 314 314 319 319 318 320 322 320 320 315 316 320 321 320 322 322 320 322 322 320 323 321 320
301 300 301 300 300 303 303 302 303 303 304 308 309 307 307 306 307 308 310 312 315 317 317 317 315 315 317 324 319 316 314 314 316 318 321 322 321 320 321 320 320 321 321 320
301 301 300 301 301 303 304 305 303 303 303 306 306 307 308 307 307 308 310 311 313 316 316 317 317 318 316 320 320 316 315 316 316 318 318 320 320 320 318 317 318 319 318 318
300 300 301 301 301 301 303 302 303 304 304 304 306 306 306 307 310 310 310 313 313 314 316 317 318 318 319 320 317 317 316 317 315 318 318 318 315 314 315 314 316 317 317 317
300 300 300 301 302 303 302 301 302 303 305 305 304 306 307 303 311 313 313 314 315 313 317 316 317 319 317 310 309 312 313 314 314 314 315 314 314 314 314 312 312 313 316 316
300 301 302 303 302 301 299 301 304 304 305 305 305 305 305 305 306 312 314 314 314 314 316 314 316 314 302 300 301 304 304 308 312 313 313 313 314 315 313 311 311 312 312 311
302 303 302 301 300 303 304 304 304 303 305 306 305 305 306 302 306 310 310 310 314 317 317 317 317 309 300 298 297 299 299 302 305 307 308 307 310 312 310 307 302 297 296 294
301 300 300 300 301 302 304 305 305 306 307 308 308 308 304 300 309 309 308 311 310 317 317 315 306 300 298 296 295 294 295 297 297 297 297 296 296 297 295 293 292 291 289 288
303 304 302 302 302 306 306 305 305 309 303 305 307 306 307 307 309 308 311 310 312 305 309 304 300 296 296 294 293 291 291 291 291 291 290 290 290 289 289 288 287 287 286 285
302 304 303 304 302 300 298 299 301 300 300 299 301 308 305 303 305 304 310 305 306 311 308 300 296 294 294 293 292 290 290 289 288 288 288 287 286 286 285 286 285 285 285 284
296 297 298 297 296 296 295 296 299 297 296 298 303 303 304 305 306 305 309 309 301 300 298 295 294 292 291 291 290 290 289 288 287 286 286 285 285 285 284 284 283 283 282 282
291 290 293 292 294 294 294 294 296 295 294 296 301 304 306 304 303 300 301 299 297 294 293 291 291 290 289 289 288 288 287 287 286 286 285 284 283 283 282 282 281 281 281 281
293 291 290 291 291 292 294 294 294 294 298 302 300 300 301 301 298 295 295 293 292 290 290 288 287 288 287 286 286 286 286 286 285 285 284 284 283 283 282 282 281 281 280 280

GFSNW_925_thetae_039.txt.gz
Theta_e
300 300 301 302 303 304 305 306 306 304 304 306 306 307 307 307 307 308 310 309 309 309 310 311 312 322 321 319 318 318 317 319 318 319 320 319 318 319 320 325 327 327 326 324
300 300 301 301 303 304 306 306 305 304 304 306 305 306 307 307 307 307 308 309 308 309 310 310 322 323 321 321 319 321 317 318 319 319 318 318 319 319 320 321 322 324 324 325
300 300 301 302 302 303 305 305 304 306 305 304 304 305 307 307 307 308 308 308 308 309 310 311 319 321 320 320 320 320 321 318 318 319 319 320 321 321 320 319 322 323 323 324
300 301 301 301 303 303 305 303 302 305 307 306 305 305 306 307 308 308 307 307 307 308 309 309 314 318 320 320 320 322 324 321 318 317 318 320 321 321 321 320 321 324 325 325
300 301 302 301 302 304 305 299 302 305 305 306 306 307 305 306 307 307 308 306 307 308 308 308 310 318 321 322 320 321 323 323 320 320 318 319 320 321 320 319 319 323 323 323
299 300 300 300 301 301 306 303 300 305 306 307 307 307 307 307 307 307 307 307 306 307 308 310 316 317 319 321 318 315 321 321 321 320 319 319 319 319 319 320 319 319 322 322
299 299 299 300 300 302 303 299 303 305 308 307 307 306 306 307 307 308 308 307 307 306 311 315 314 316 318 319 320 317 315 317 320 318 320 324 319 318 318 318 318 317 317 317
301 301 300 300 299 302 302 298 303 305 306 307 306 306 306 306 307 308 308 308 308 307 311 315 315 312 316 316 317 319 316 315 319 322 322 322 321 318 318 318 317 318 317 317
301 301 301 301 300 300 302 299 299 304 306 307 306 306 306 307 307 307 308 308 307 308 308 311 313 315 317 316 316 316 315 312 316 321 323 324 321 318 318 319 318 318 318 318
302 302 301 302 301 301 302 302 299 302 301 306 306 307 307 306 307 307 307 308 309 308 305 309 312 314 315 316 316 315 312 312 315 317 320 319 320 318 319 320 318 319 318 319
302 302 302 302 302 301 301 302 299 302 303 307 307 308 308 307 307 308 307 309 310 309 307 310 310 311 315 315 315 315 315 317 319 320 321 323 317 319 319 317 317 319 318 319
302 301 301 301 302 302 301 301 300 301 304 306 307 307 308 307 306 307 308 309 310 309 309 309 310 308 309 311 312 317 318 315 318 321 320 318 315 318 317 319 321 321 319 318
301 300 301 301 302 302 302 301 301 300 301 305 303 308 309 309 309 310 312 309 311 310 310 311 312 309 307 308 312 317 316 316 317 315 314 316 314 317 318 321 321 321 319 319
301 302 302 302 301 301 301 301 301 302 304 304 305 306 307 308 308 310 310 311 312 310 309 309 310 310 312 308 312 313 317 316 318 317 315 316 316 318 320 320 320 320 319 319
300 300 301 301 300 301 301 302 302 303 305 306 308 307 308 309 305 310 310 310 312 310 312 310 311 311 312 312 313 312 313 316 316 316 316 317 318 319 317 316 321 320 320 319
302 301 301 301 301 301 303 300 302 304 304 307 306 306 307 306 307 310 310 310 311 312 309 308 312 313 313 309 312 314 313 312 312 315 316 314 313 316 317 318 318 317 317 318
301 300 300 301 301 301 303 303 301 304 303 305 302 303 305 306 307 307 308 310 310 311 312 312 311 312 313 304 309 313 312 314 313 314 315 318 316 316 314 314 313 314 314 315
301 301 301 302 303 303 303 303 303 304 303 303 300 301 302 303 304 306 306 308 309 311 309 312 313 312 312 309 307 307 306 309 311 311 312 313 312 312 312 311 310 311 311 312
301 301 301 301 302 302 301 303 303 303 304 301 298 304 303 302 305 305 306 307 306 310 309 311 313 309 305 303 301 302 302 304 307 309 309 309 310 311 310 309 308 310 308 307
301 301 302 301 301 302 302 302 302 302 303 303 300 301 303 304 301 302 303 298 306 306 308 310 309 303 301 298 297 297 297 301 302 305 304 304 304 307 300 298 297 295 294 292
302 301 302 300 301 303 302 300 301 302 301 302 301 300 305 302 304 308 301 302 303 306 308 308 307 300 297 295 294 294 294 296 297 299 298 298 298 298 296 293 291 290 289 287
302 301 300 301 301 301 301 299 301 301 303 302 303 303 304 301 302 307 305 308 306 309 304 304 300 296 294 293 292 291 291 292 292 292 292 292 291 290 290 288 287 286 284 284
302 302 299 303 300 303 299 302 303 305 300 300 302 305 299 300 303 305 304 310 310 304 304 299 295 293 292 291 290 289 288 288 288 287 286 286 286 286 286 286 284 284 283 283
299 299 295 298 296 297 296 296 298 298 297 297 298 301 301 299 303 303 309 303 303 304 300 294 292 291 291 290 288 287 286 286 285 285 285 284 284 283 283 282 282 282 282 281
292 291 294 293 294 293 294 294 297 295 295 295 300 300 301 303 303 302 305 303 297 296 292 292 290 289 288 288 287 286 285 284 284 283 283 282 282 282 282 282 282 282 281 281
287 287 288 287 287 287 292 292 294 294 294 295 298 302 302 300 297 296 296 295 293 291 289 289 287 286 286 286 286 285 285 284 284 283 283 282 282 281 281 281 280 280 280 280
290 286 283 284 286 289 292 291 291 292 297 299 299 296 296 297 295 293 292 289 288 287 286 285 285 285 285 284 284 283 283 283 284 284 283 282 282 281 281 281 280 280 279 279

GFSNW_925_thetae_042.txt.gz
Theta_e
299 299 299 300 300 301 303 305 306 303 304 305 304 305 305 307 307 307 307 309 309 307 309 310 309 314 315 319 319 321 318 315 317 316 316 316 316 318 319 321 325 323 320 323
299 299 299 299 300 301 304 305 304 304 303 305 304 304 305 305 307 307 307 308 308 308 308 310 310 314 321 320 321 321 321 322 318 318 316 316 316 317 318 320 321 323 323 323
299 299 299 299 300 300 303 303 304 305 304 303 304 303 304 305 305 306 306 307 307 307 307 308 310 313 319 319 320 319 321 324 323 320 317 316 319 318 317 319 319 319 321 321
299 299 299 299 300 300 302 302 302 304 307 305 305 304 304 305 305 306 307 307 307 307 308 308 308 310 319 320 319 321 323 324 322 322 321 317 317 319 319 319 319 320 319 321
299 299 299 300 300 301 303 299 302 304 304 306 305 305 305 305 305 306 306 308 306 306 307 307 308 308 309 318 319 318 317 322 317 319 320 318 317 317 318 319 319 318 318 320
299 300 300 300 301 302 303 302 299 305 306 307 306 305 304 305 304 306 305 306 307 306 306 306 309 310 313 315 317 315 318 316 317 318 318 318 317 317 317 320 318 320 321 320
300 300 300 300 301 302 303 302 303 304 307 306 307 305 305 304 306 305 306 306 306 306 305 313 313 314 317 318 318 315 315 315 315 317 317 325 319 316 316 318 317 316 316 316
298 298 299 298 298 300 302 301 302 304 305 306 305 306 305 305 304 306 305 305 305 305 305 311 313 309 313 314 317 317 315 314 316 317 320 320 319 318 317 317 317 316 316 315
300 300 299 299 299 299 301 301 300 302 305 306 305 305 305 306 305 305 305 306 305 305 306 310 310 310 313 315 317 317 312 313 315 315 316 323 318 317 317 317 317 315 316 316
301 301 301 301 300 300 301 302 300 300 300 304 305 305 306 305 305 305 304 305 307 307 305 308 309 309 312 313 314 315 313 311 316 315 316 319 319 316 317 321 319 317 317 316
301 301 301 301 301 301 301 301 299 300 300 302 305 306 305 305 305 305 304 306 308 309 309 308 307 306 311 311 313 313 313 314 314 315 317 320 317 318 321 318 318 321 320 317
301 301 301 302 302 302 301 301 299 301 301 303 304 305 306 305 304 305 305 307 307 309 309 306 305 306 301 308 310 314 314 314 314 315 315 317 317 318 316 318 320 320 318 318
301 301 302 302 302 302 302 301 300 301 301 299 300 305 306 306 307 305 307 306 308 311 309 307 307 307 304 305 308 309 311 313 316 317 315 315 315 315 317 316 318 318 318 318
302 301 302 302 302 302 302 300 300 300 301 302 302 302 304 306 307 308 307 307 310 308 306 308 308 305 307 304 308 308 312 315 316 315 314 314 314 315 316 314 318 318 316 318
302 301 301 301 302 301 301 300 300 301 301 301 303 304 305 308 307 308 309 309 308 308 309 305 307 307 309 308 310 308 312 314 315 314 312 311 312 314 314 314 317 318 317 318
301 300 301 300 300 302 301 301 300 300 303 307 305 305 307 307 307 308 308 308 308 309 311 305 308 309 308 306 309 311 308 307 310 312 311 313 314 312 314 316 315 319 317 316
300 302 302 302 301 300 301 301 301 301 301 306 305 307 305 305 307 307 308 309 310 308 310 310 308 309 310 301 307 306 306 303 308 306 311 314 312 312 310 311 310 312 312 312
301 301 300 301 301 301 302 302 301 300 302 302 302 304 305 302 302 305 306 306 307 309 309 309 310 309 309 307 301 301 301 302 304 303 305 306 308 306 305 306 308 305 302 301
299 300 300 301 301 302 302 301 302 301 303 299 296 299 306 301 302 302 304 305 304 307 307 307 310 303 299 298 298 297 297 299 301 303 302 303 301 299 298 298 297 296 294 292
301 301 300 300 301 302 302 302 302 302 302 300 298 297 301 304 301 302 301 298 304 307 306 309 304 299 296 294 294 294 294 297 297 301 301 300 300 296 294 292 291 290 289 287
301 300 300 299 301 302 301 300 300 301 301 299 299 297 303 301 301 306 297 300 301 306 305 306 301 296 294 292 291 290 292 293 293 295 294 294 294 293 291 289 287 286 285 285
300 300 300 300 300 297 299 298 298 300 304 300 298 300 301 301 302 305 304 304 304 306 302 300 296 293 291 290 289 288 288 288 288 288 288 288 288 287 286 286 285 284 283 283
302 299 298 298 294 293 295 301 303 303 299 298 300 303 300 300 301 303 304 307 307 303 298 293 292 290 289 288 287 286 285 286 286 285 284 284 283 283 283 283 282 282 281 280
294 293 290 289 290 292 293 294 295 296 297 296 297 300 301 299 302 304 306 301 300 298 294 291 289 288 288 287 286 284 284 283 283 283 283 283 282 282 282 281 281 281 280 280
289 289 289 288 290 289 290 291 293 294 295 295 299 300 301 301 300 297 299 295 293 292 289 288 287 287 286 286 285 284 284 283 282 282 282 281 281 281 281 280 280 280 280 279
286 286 285 285 284 286 287 290 292 292 293 295 297 300 300 295 294 292 293 292 290 288 287 286 285 284 284 284 284 284 283 283 282 282 281 281 280 280 280 279 279 278 279 278
284 284 279 280 281 286 289 290 290 290 295 297 295 292 294 294 293 289 287 286 285 284 283 283 283 283 282 282 281 281 280 280 279 280 281 280 280 280 279 279 278 278 277 277

GFSNW_925_thetae_045.txt.gz
Theta_e
296 297 298 299 299 299 300 303 304 304 304 304 305 303 303 304 306 306 306 307 309 309 308 307 308 309 310 318 319 320 320 315 315 316 315 314 315 316 316 319 319 320 318 320
296 296 297 298 299 299 301 302 303 303 304 306 305 303 303 304 306 306 307 307 307 307 307 307 308 310 318 319 320 319 320 321 319 316 315 314 314 314 314 318 317 319 321 319
296 297 297 298 299 299 299 300 303 304 304 302 303 304 304 304 304 304 305 306 306 306 307 307 307 310 311 319 319 319 319 322 325 326 322 320 320 318 315 317 318 318 319 319
296 296 298 298 299 300 299 300 300 304 306 305 304 304 304 305 304 305 305 305 305 306 306 306 306 307 312 317 319 319 319 319 320 319 316 317 317 321 320 317 316 318 318 318
296 297 298 298 299 300 299 298 303 303 306 306 305 305 305 304 304 305 305 306 307 306 306 305 306 306 307 312 316 317 318 316 317 317 316 315 316 316 317 318 316 316 316 317
297 298 298 299 299 298 300 299 300 304 306 307 306 305 305 305 305 304 304 305 305 305 306 304 304 304 305 308 315 315 317 316 316 315 314 315 314 317 316 317 316 317 319 317
298 299 299 298 299 299 299 300 302 303 305 306 306 306 305 304 305 304 304 304 304 304 304 307 311 312 313 314 315 312 313 313 313 315 313 314 310 313 312 316 316 316 316 316
298 299 299 299 300 300 301 301 302 303 304 305 306 306 306 304 303 304 303 303 304 304 304 308 309 307 313 313 315 313 312 311 313 312 314 313 310 313 316 315 318 316 315 315
299 299 299 299 299 300 301 302 302 302 304 304 305 306 306 306 304 303 304 304 303 304 306 308 311 307 309 314 317 315 312 312 308 315 312 311 307 313 314 317 321 316 319 315
297 297 298 299 299 298 300 301 300 300 300 303 304 305 306 305 304 304 303 304 305 305 304 309 309 309 309 312 314 315 313 312 316 316 316 312 312 315 317 322 319 317 320 319
298 298 299 299 300 300 299 299 301 300 300 301 304 305 305 305 304 304 303 306 306 307 306 309 308 303 307 309 311 311 312 313 313 315 317 316 313 318 319 317 315 318 320 318
300 300 300 300 301 301 300 300 300 301 301 301 301 303 304 304 304 304 304 305 306 306 307 306 304 303 299 307 310 310 311 309 309 312 312 312 317 318 316 315 317 318 318 317
301 301 301 301 301 301 301 301 300 300 301 301 299 301 302 304 305 304 305 304 305 307 304 303 305 305 302 305 305 309 309 309 312 312 312 312 312 313 314 315 317 316 316 316
301 301 301 301 301 301 301 301 300 299 300 302 298 300 300 302 305 306 306 304 307 306 305 305 305 305 305 302 307 306 306 310 311 311 312 313 313 313 314 315 316 314 316 315
301 301 301 301 301 301 301 301 300 300 301 300 298 302 302 302 302 307 306 307 306 306 307 302 304 305 308 307 305 305 309 311 311 310 313 312 313 311 313 315 314 315 316 315
301 301 301 301 301 302 301 300 300 300 300 301 298 301 304 304 306 307 306 307 307 307 307 304 305 306 309 309 310 308 306 305 305 309 306 307 309 312 309 312 311 314 314 311
301 302 302 302 302 302 300 301 300 300 300 302 303 306 304 305 306 306 306 306 308 307 308 306 307 308 309 304 309 303 302 301 303 302 305 311 309 307 302 301 304 300 298 296
300 300 302 301 300 300 302 302 300 300 299 300 303 305 305 303 305 308 306 308 307 306 305 308 307 308 305 302 298 298 297 299 302 300 302 302 302 299 296 296 296 294 293 291
301 301 299 300 300 302 302 300 300 300 300 301 300 304 307 302 303 303 304 305 304 306 304 308 307 299 296 295 294 294 294 296 298 298 301 300 299 296 293 292 291 290 289 288
300 300 298 297 300 301 301 300 299 297 299 299 301 298 304 303 301 302 303 300 304 306 307 304 299 296 293 291 291 290 291 294 295 298 299 296 297 294 291 289 288 288 286 285
300 300 296 300 301 301 300 300 300 301 299 298 299 298 302 299 302 303 299 300 299 304 308 301 298 294 291 290 288 288 289 290 290 292 290 289 290 289 288 287 286 285 285 284
300 300 299 299 296 295 297 297 295 301 303 299 296 298 300 301 302 305 304 302 303 306 299 295 292 291 289 288 287 286 286 286 286 286 286 286 285 285 284 284 283 282 281 281
299 295 293 293 289 290 292 300 300 300 299 296 299 302 300 300 301 302 304 306 306 298 294 291 290 288 287 286 285 284 284 284 284 284 283 283 282 282 282 282 281 280 280 279
291 291 288 287 287 289 290 292 292 293 293 295 296 300 301 299 301 303 303 297 295 293 288 288 288 287 286 284 284 283 283 282 282 282 281 281 280 280 280 280 279 279 278 278
289 287 286 287 287 288 289 289 291 292 293 295 298 299 298 295 297 293 294 293 289 289 286 285 286 285 285 284 283 283 282 282 281 281 280 280 279 279 279 278 278 278 277 277
286 285 285 283 284 286 287 289 290 290 290 294 296 298 296 292 293 288 288 288 286 284 284 284 283 282 281 281 280 280 281 281 281 281 280 279 279 278 278 277 277 277 276 276
284 284 282 281 280 283 285 287 288 287 292 295 293 291 293 292 289 287 285 284 284 283 282 282 282 281 280 280 280 280 279 279 279 278 278 278 278 278 277 277 276 275 275 275

GFSNW_925_thetae_048.txt.gz
Theta_e
297 297 297 298 298 298 299 300 303 303 304 305 303 304 303 302 304 305 306 306 307 308 308 306 306 308 315 318 318 319 319 313 313 314 313 313 314 315 315 317 318 318 315 318
296 296 297 297 297 298 299 301 302 303 304 306 305 304 303 302 305 306 306 307 306 307 305 305 307 311 314 313 319 319 319 321 320 318 315 316 317 315 316 314 314 316 317 317
296 296 297 297 296 297 299 299 301 303 304 304 305 305 304 303 302 303 304 305 305 306 306 306 307 308 309 314 318 318 317 321 318 323 322 319 320 317 316 319 315 315 316 316
295 295 296 297 296 297 299 298 300 304 305 304 305 305 304 304 304 303 303 304 305 305 306 305 306 307 307 308 316 317 316 316 319 320 320 317 316 315 315 315 317 317 317 315
294 295 296 296 296 297 299 298 301 302 304 305 305 305 305 305 304 304 305 305 306 305 305 305 305 305 305 306 307 316 315 313 317 316 318 317 315 314 314 316 317 316 316 315
295 295 296 296 296 297 299 298 299 303 302 305 306 306 305 305 304 304 303 304 304 304 304 303 304 303 303 304 306 309 314 315 315 315 314 313 313 312 314 314 312 315 316 315
295 296 296 296 296 298 299 298 299 301 303 303 305 305 305 305 304 304 304 303 304 304 302 303 304 304 304 304 305 308 313 312 310 312 312 314 308 311 312 311 313 314 313 313
295 296 296 296 297 298 299 299 300 301 302 303 305 306 306 304 304 304 304 304 303 302 304 307 307 305 311 310 310 310 311 308 308 309 313 311 309 308 309 314 309 313 311 314
296 296 296 298 298 298 300 299 299 301 304 303 303 306 306 306 305 304 303 303 302 303 303 306 309 306 308 312 313 312 310 308 311 312 311 308 306 311 315 315 312 315 317 319
297 298 298 298 298 299 300 300 299 301 300 302 303 304 306 305 304 304 303 304 305 304 304 308 308 307 307 310 312 315 313 313 316 313 315 310 309 311 315 315 310 314 314 314
298 297 298 299 298 299 300 300 300 300 299 302 303 303 305 305 304 305 303 305 305 306 307 306 306 304 306 307 309 311 311 310 312 313 315 312 309 317 314 312 313 313 312 315
297 297 297 297 297 297 297 299 300 300 300 301 301 303 303 304 303 304 303 303 305 304 304 304 302 302 298 306 308 308 310 308 309 310 310 308 313 315 315 313 312 314 314 313
298 298 299 298 298 299 298 299 299 299 299 300 301 301 301 303 304 304 305 303 305 306 302 302 303 304 300 303 304 308 308 307 309 309 308 309 308 309 310 313 314 315 313 313
301 301 301 300 299 299 300 300 300 299 300 301 299 299 300 301 303 304 304 303 306 306 306 305 302 302 302 301 305 304 305 307 309 309 308 309 309 311 311 311 312 314 313 313
301 301 301 301 300 300 301 301 300 299 299 300 297 300 300 301 303 304 305 305 305 306 307 306 304 302 305 303 304 303 307 308 308 307 307 309 309 309 304 308 308 308 313 313
300 301 301 301 301 300 302 297 300 299 299 301 299 297 302 300 300 302 305 306 306 306 307 306 304 304 307 303 302 307 305 304 304 308 303 303 304 305 300 301 301 301 300 297
301 300 300 301 301 301 300 300 300 300 300 301 299 298 301 302 303 303 305 305 306 307 306 307 305 306 307 300 304 302 299 298 299 302 302 306 304 302 297 296 296 295 293 291
301 301 301 301 301 301 301 301 300 300 300 300 297 304 305 303 302 306 303 306 307 307 303 306 307 307 304 306 295 295 294 295 299 298 298 301 299 295 293 292 292 291 289 287
301 302 301 300 299 301 301 300 300 300 300 300 301 303 305 302 304 304 304 304 305 305 305 306 306 298 293 293 292 291 291 292 295 295 297 297 297 293 291 290 289 288 287 286
299 299 298 297 301 300 300 299 299 299 298 299 297 299 304 303 301 302 303 300 305 307 304 299 297 293 291 290 289 289 289 290 291 293 295 292 293 291 288 287 287 286 285 285
299 298 300 300 300 300 298 299 300 300 301 300 300 299 304 299 303 303 297 302 300 307 306 300 296 292 290 288 287 286 286 287 287 288 288 287 287 287 286 285 284 283 282 282
299 299 298 296 295 296 300 300 299 301 303 300 301 302 301 301 303 303 303 302 301 304 296 294 290 290 287 286 285 285 285 285 284 284 284 284 284 283 283 282 282 280 279 279
298 294 292 293 287 288 289 301 299 299 297 296 299 301 299 300 301 303 302 305 301 295 292 290 289 287 286 285 284 284 283 283 283 282 282 281 281 280 280 279 279 278 278 277
290 289 285 283 283 287 290 289 290 293 293 295 296 300 300 298 300 300 299 293 291 288 285 286 286 285 284 284 283 282 281 281 281 280 280 280 279 278 278 278 278 278 277 276
288 285 284 285 286 287 287 287 289 290 290 294 298 296 294 293 294 291 292 288 284 287 284 283 284 283 283 283 282 281 281 280 280 279 279 279 278 278 277 277 276 276 276 276
285 283 283 282 284 284 284 285 286 288 288 293 295 295 290 290 291 286 285 286 283 281 280 282 281 281 281 280 280 280 280 279 279 279 278 278 277 277 276 275 275 274 274 274
283 281 280 279 279 281 283 285 286 286 291 292 291 290 290 288 286 284 284 279 279 281 281 281 281 280 279 279 279 278 278 278 278 277 278 277 277 276 276 275 274 274 273 273

GFSNW_925_thetae_054.txt.gz
Theta_e
295 293 296 296 296 294 297 299 301 303 303 305 304 305 304 304 304 305 305 306 307 308 308 308 308 307 312 311 315 318 313 316 318 317 316 317 319 319 320 321 322 322 325 323
295 295 296 297 296 295 298 300 299 301 303 304 304 304 305 305 305 305 305 307 307 307 308 308 307 308 310 309 313 318 319 316 315 316 316 317 319 319 319 320 320 323 326 322
295 294 295 296 295 295 297 300 301 301 303 303 305 304 305 305 305 305 305 306 307 307 308 308 307 307 307 308 309 313 317 318 317 314 315 318 321 318 317 320 323 321 321 320
295 295 294 295 295 295 296 298 300 301 303 302 302 304 305 306 305 304 305 305 306 307 309 308 308 307 308 307 308 314 316 317 316 315 315 314 316 317 316 317 318 319 319 317
294 294 295 294 295 296 296 298 299 301 301 302 303 303 304 305 305 305 305 305 306 306 308 309 308 307 308 308 308 311 313 313 314 313 312 315 316 314 314 315 314 315 316 318
295 295 295 294 295 296 296 296 297 300 300 301 303 303 304 303 305 305 305 305 306 308 307 307 307 307 307 308 308 309 311 316 314 311 314 313 312 314 314 315 315 314 314 313
294 294 295 294 295 295 295 296 297 299 299 301 302 301 301 303 303 306 305 305 306 306 305 306 306 307 308 308 308 308 309 316 317 314 316 313 310 312 312 313 312 312 311 311
294 294 295 295 296 295 296 295 297 299 300 299 300 301 301 302 304 305 306 305 305 304 305 309 309 310 311 310 308 308 308 313 315 316 315 312 311 309 310 311 309 312 314 314
294 294 294 294 294 294 295 296 296 298 298 301 300 301 301 303 303 304 304 304 304 304 307 311 309 310 309 311 311 308 309 310 314 315 312 312 311 313 314 314 312 315 314 315
293 294 293 293 294 294 295 295 296 297 297 298 299 302 302 303 304 305 305 305 306 305 309 309 309 308 308 311 312 313 312 312 314 313 316 313 311 310 312 317 318 314 314 314
293 293 294 294 294 294 295 295 296 297 297 298 301 300 301 302 303 304 305 306 305 305 310 309 308 309 308 308 311 311 311 312 313 312 314 315 311 312 314 319 315 314 314 314
294 294 294 295 295 296 296 296 296 297 297 299 299 299 301 301 302 304 304 306 306 307 308 307 308 309 309 308 309 310 314 311 312 311 313 312 313 315 313 314 315 315 315 315
295 295 296 297 297 297 297 296 296 297 297 298 300 302 301 302 302 302 305 305 306 307 306 308 308 309 308 310 309 309 309 310 313 312 311 311 311 312 312 311 312 311 310 312
296 296 297 297 297 298 298 297 297 297 298 301 303 300 302 302 303 302 302 304 304 305 306 308 309 309 307 309 308 309 309 310 311 311 310 310 310 312 310 309 308 307 307 306
298 298 298 297 298 298 298 297 298 298 301 304 303 301 300 302 303 303 303 304 305 306 308 307 309 308 308 309 309 308 308 308 311 310 311 310 310 309 306 307 306 305 303 303
297 298 297 297 298 298 296 295 298 298 299 302 303 302 301 301 302 303 304 305 306 306 307 307 307 308 308 310 310 308 309 307 306 309 306 307 307 307 302 302 301 300 298 297
300 300 299 298 297 297 298 301 299 298 298 301 302 303 303 302 303 304 304 303 305 306 306 307 307 308 308 310 310 303 300 300 301 300 300 306 302 303 298 296 296 295 294 293
300 301 299 298 297 298 298 300 299 298 299 301 303 303 304 302 303 304 304 305 304 303 304 305 307 307 308 310 297 297 296 296 299 296 296 296 297 295 293 293 293 294 292 291
300 300 301 301 298 299 299 299 299 299 300 303 302 304 304 303 303 303 304 304 304 303 305 306 308 308 309 294 294 293 291 292 293 294 296 296 294 292 290 290 289 291 288 287
301 300 296 299 301 299 298 298 297 298 301 302 303 303 304 304 304 305 305 305 305 307 306 301 306 300 291 290 289 288 288 289 290 293 296 292 292 290 287 286 285 284 283 283
298 297 299 300 299 300 300 301 303 301 302 301 303 303 304 303 306 305 305 305 306 307 305 307 303 300 291 288 288 287 287 287 287 287 287 287 287 288 286 284 283 282 281 280
299 298 297 294 296 301 302 302 301 301 302 301 302 302 302 302 302 307 305 307 306 308 301 305 302 291 288 287 286 285 285 285 285 285 285 284 284 284 283 282 280 279 278 278
295 295 293 296 293 298 302 303 303 302 298 299 300 302 301 300 301 303 307 309 304 299 301 299 292 288 286 285 285 284 284 283 282 282 281 281 280 280 279 278 278 277 277 276
294 294 292 293 293 293 293 294 295 293 294 296 299 302 302 299 301 299 301 297 299 300 300 294 289 286 285 284 284 283 282 281 281 280 279 278 278 278 277 277 276 276 275 275
289 290 290 290 288 288 288 289 291 291 291 295 299 298 299 297 297 295 296 297 297 295 294 288 286 285 284 283 282 281 281 280 280 279 278 277 277 276 276 275 275 275 274 274
286 286 289 288 290 289 289 289 291 290 290 294 297 296 297 294 294 294 292 297 295 289 287 285 284 283 282 281 281 281 280 279 279 278 277 277 276 276 276 275 274 273 273 273
285 286 285 285 286 286 287 287 288 288 293 296 295 295 292 290 291 289 287 288 287 285 285 284 283 282 281 280 280 279 279 279 279 278 278 277 277 276 276 276 275 274 273 272

GFSNW_925_thetae_057.txt.gz
Theta_e
296 295 295 294 295 296 296 298 301 302 303 305 305 307 305 305 305 306 306 307 309 309 309 310 310 311 311 313 314 321 315 317 317 320 316 318 319 320 322 324 326 324 328 325
295 295 296 296 296 296 298 299 300 300 303 306 307 304 304 304 305 305 306 306 307 307 309 309 309 309 310 310 311 315 318 316 318 320 319 318 318 319 320 322 323 326 330 325
296 295 295 295 295 296 297 300 303 301 305 305 305 304 305 305 305 306 305 306 307 308 308 308 309 309 309 309 309 312 316 320 316 317 319 318 320 320 320 321 325 324 325 324
295 295 296 296 296 295 296 299 301 302 304 303 304 305 307 305 306 305 305 306 306 307 308 308 309 310 309 309 309 310 316 321 320 316 317 317 319 320 319 320 321 322 322 322
294 295 295 295 295 295 296 301 300 301 302 303 303 304 305 306 306 306 305 306 306 307 307 308 310 309 310 311 309 310 315 318 316 319 315 315 317 317 318 317 317 317 318 318
295 295 294 294 294 295 297 297 298 301 301 301 304 305 302 303 303 305 307 306 307 307 307 308 309 309 309 310 310 311 312 313 317 318 315 314 315 316 317 317 317 317 319 318
294 295 295 294 294 295 295 297 298 300 301 301 302 302 304 304 304 304 306 306 308 307 307 308 307 308 308 308 309 310 311 313 314 318 316 320 314 313 313 315 315 315 314 313
294 295 295 294 294 295 297 296 298 299 301 300 300 302 303 302 303 304 305 306 306 307 307 307 308 310 310 311 310 310 310 312 315 315 316 314 312 312 312 312 311 311 312 314
293 294 293 294 294 295 296 296 297 298 300 300 300 300 301 303 303 304 305 305 305 305 307 311 310 311 310 311 311 310 310 311 315 315 315 314 312 313 314 312 312 315 315 316
293 293 293 293 294 295 295 297 296 298 298 299 299 301 303 303 303 305 305 306 305 305 309 310 312 312 310 313 313 312 313 312 313 314 314 312 311 312 311 316 317 315 314 315
294 294 294 294 294 294 295 296 296 297 299 299 299 300 300 302 304 306 305 305 305 306 310 309 310 311 310 310 312 312 311 312 313 313 314 314 312 312 313 318 315 315 314 315
294 294 293 293 293 293 293 295 295 296 298 298 298 298 298 300 301 302 304 306 307 307 309 309 310 311 311 310 311 313 312 311 312 311 313 313 313 316 315 314 314 314 314 314
295 294 293 293 293 294 295 296 296 296 297 299 299 300 298 300 299 300 304 305 304 308 308 310 311 310 310 311 310 311 312 312 312 314 312 313 312 314 314 312 313 312 311 311
295 294 294 294 294 294 295 296 296 297 298 298 299 299 299 298 301 301 301 304 304 306 308 310 310 311 309 310 310 311 310 310 311 312 312 311 311 314 312 311 310 310 309 309
295 295 295 295 295 295 296 297 297 297 298 300 300 300 302 301 300 302 303 303 304 305 308 309 310 309 309 310 310 311 309 310 312 312 313 314 312 311 309 308 308 307 306 306
295 296 296 296 297 297 298 297 297 297 297 298 302 303 304 303 302 303 305 304 304 305 307 307 307 308 309 311 310 309 310 310 308 311 308 309 309 308 305 305 303 301 301 300
297 297 298 298 298 298 297 300 299 298 298 300 304 305 303 302 303 304 304 304 305 303 304 305 308 309 308 309 310 308 305 304 305 303 303 307 304 305 300 300 299 298 297 295
298 298 298 298 298 298 298 300 299 297 298 301 306 305 305 303 305 306 305 305 305 305 306 306 307 307 308 311 303 302 300 300 302 300 299 300 300 298 295 295 294 295 292 290
299 299 299 297 296 297 300 299 299 299 300 303 304 305 306 304 305 304 305 305 306 305 306 305 307 308 309 297 298 296 294 295 296 296 299 298 296 295 294 293 292 292 288 287
300 296 295 298 299 299 298 297 297 298 301 304 304 304 307 305 305 305 306 305 305 306 305 305 307 298 294 293 292 291 291 292 292 294 297 293 294 292 290 289 287 287 285 284
298 296 299 299 298 299 298 301 304 303 304 304 304 305 305 304 306 306 305 305 306 305 307 308 309 300 292 291 290 289 289 289 289 289 288 288 289 290 288 286 285 283 282 282
299 298 297 298 299 302 305 304 303 303 303 302 304 304 305 304 305 306 306 306 306 307 306 308 307 293 290 289 287 287 286 286 286 286 286 285 285 285 284 283 281 280 279 279
299 297 297 300 297 304 305 303 303 304 302 302 302 304 303 303 302 305 307 306 307 304 307 305 295 290 288 288 287 286 285 284 283 283 282 281 281 280 280 279 279 278 278 278
298 298 295 299 298 297 297 299 299 296 297 300 301 302 302 301 303 303 305 302 303 305 305 299 291 288 287 286 285 284 283 282 282 281 280 280 279 279 278 278 277 277 276 276
293 294 295 293 291 291 292 292 294 293 294 298 301 301 302 301 300 300 300 301 303 300 298 292 288 286 285 284 283 282 282 281 281 280 279 278 278 277 277 276 276 275 275 275
289 289 292 292 294 294 293 294 295 293 294 297 300 300 300 298 299 300 298 304 300 293 290 287 285 284 284 283 283 282 281 280 280 279 278 278 277 277 276 275 275 275 275 274
289 289 289 290 290 290 291 291 291 292 296 300 299 299 296 295 297 294 291 293 290 289 288 287 285 284 283 282 282 281 281 280 280 280 279 279 279 279 278 278 276 275 274 273

GFSNW_925_thetae_060.txt.gz
Theta_e
296 296 297 296 296 296 297 298 301 301 302 306 304 305 306 305 306 306 305 307 308 309 310 310 310 311 312 312 313 318 319 316 316 318 317 316 316 318 319 325 327 324 329 328
296 296 296 295 296 297 297 300 300 299 303 306 305 304 304 304 305 305 306 306 306 307 307 308 309 310 311 310 310 314 313 317 319 317 319 319 317 317 319 320 325 331 333 330
295 296 296 295 295 295 296 299 301 301 305 303 305 305 305 305 304 304 305 306 307 306 307 308 309 309 310 310 309 313 310 319 320 319 322 321 321 320 321 322 328 330 330 328
295 294 296 295 295 295 296 299 300 301 304 304 303 304 307 306 305 305 305 306 306 306 307 307 308 308 308 309 312 311 315 321 320 319 319 318 319 321 320 322 325 328 325 324
294 295 296 296 296 296 296 297 299 299 300 302 304 304 304 305 306 306 306 305 305 306 306 307 307 308 312 310 312 311 315 317 317 319 319 317 317 320 323 322 319 320 322 323
295 295 295 295 294 294 296 296 297 300 301 302 302 305 303 303 304 305 308 307 307 306 308 309 310 310 311 311 312 312 313 315 319 320 317 317 318 316 320 319 317 317 318 318
294 295 295 295 295 294 295 296 298 299 300 299 301 302 304 305 303 304 303 307 308 308 309 309 309 308 308 309 309 309 311 311 314 318 319 320 315 314 314 316 316 316 317 317
295 294 295 295 294 294 295 296 298 299 300 299 300 300 302 303 304 305 305 305 308 307 309 309 307 308 308 309 309 309 310 311 315 320 318 318 317 313 312 313 314 314 313 313
294 294 294 294 294 294 295 296 297 295 300 300 299 300 301 303 304 304 304 306 307 306 307 307 308 308 308 309 309 309 310 312 314 316 317 319 314 313 313 312 314 315 316 316
294 294 294 293 294 294 295 295 296 297 299 299 299 302 302 303 304 305 305 307 306 305 307 309 308 309 308 311 312 313 312 313 314 315 315 314 311 312 312 314 319 316 316 316
295 295 294 294 293 294 295 295 296 297 299 299 299 299 299 300 303 307 306 306 305 306 307 308 308 310 311 312 312 313 313 314 315 313 313 314 311 312 312 319 316 315 315 316
296 295 294 294 293 293 294 295 296 297 298 298 298 298 298 298 299 302 305 305 304 306 307 308 310 312 313 311 312 313 315 311 312 311 311 314 314 317 315 315 315 313 313 312
297 297 294 294 293 294 294 294 295 297 298 298 299 298 298 299 299 300 303 303 304 305 304 309 311 312 311 311 310 313 313 313 312 313 312 311 316 315 313 312 312 310 310 310
297 296 294 295 294 294 295 295 296 297 298 298 298 298 299 299 299 300 301 302 301 304 304 307 310 311 311 313 311 312 313 311 313 314 314 313 313 313 310 310 308 307 307 306
296 297 295 295 294 294 295 295 296 297 298 300 301 299 300 299 301 300 299 303 303 304 306 307 309 309 310 311 310 310 311 312 314 316 312 314 310 308 307 306 305 304 303 302
296 296 295 294 294 294 295 296 296 296 297 299 300 300 302 302 301 303 303 303 304 304 304 306 308 307 309 310 311 310 309 308 307 308 306 308 307 304 303 303 302 301 300 297
296 295 295 294 294 295 296 299 300 296 297 298 299 299 302 303 303 304 305 304 304 303 304 306 307 309 309 311 310 307 304 304 304 302 304 308 303 301 298 298 299 298 294 291
296 295 295 295 296 296 297 297 300 298 298 299 301 303 305 303 305 306 304 304 304 304 306 305 308 308 309 309 304 301 298 301 300 299 301 300 299 297 296 295 296 293 291 289
296 296 297 298 295 297 298 298 298 298 299 300 303 305 306 305 305 305 306 305 306 305 308 307 306 310 307 297 297 295 294 295 296 297 299 298 296 295 293 292 292 291 288 286
298 296 294 297 297 299 298 298 297 299 300 302 304 304 306 305 307 307 306 306 306 305 305 307 307 299 295 294 292 292 292 292 291 294 294 293 293 292 289 288 287 286 285 284
297 298 299 299 298 298 298 300 302 302 303 303 304 305 306 305 307 306 306 306 307 306 307 307 308 299 294 292 290 289 289 288 289 289 288 288 288 289 287 285 283 282 282 281
299 299 298 298 299 300 303 304 303 303 304 305 306 306 305 305 305 306 307 306 307 306 305 307 303 293 291 289 288 287 286 286 286 286 285 285 285 284 283 282 281 280 279 278
299 299 299 301 300 305 305 303 304 305 303 303 305 305 304 303 304 305 305 306 306 306 306 302 295 291 289 289 287 286 285 284 283 282 281 281 280 280 280 279 279 278 277 277
299 299 297 301 300 298 298 299 299 298 300 302 304 302 303 301 302 304 306 303 304 307 307 298 292 288 287 286 285 284 283 282 281 281 280 279 279 278 278 277 277 276 276 275
295 296 297 294 293 293 294 295 296 295 297 300 301 302 303 303 301 301 302 302 306 299 296 292 288 286 285 284 283 282 282 281 281 280 279 278 278 277 277 277 276 276 275 275
291 292 294 295 296 295 295 296 295 294 297 298 301 303 301 300 301 302 300 303 300 294 290 287 286 285 284 283 283 282 281 280 280 280 279 278 278 277 276 276 275 275 275 275
291 290 291 293 293 293 293 293 293 294 297 301 301 301 298 297 300 295 292 294 291 289 288 286 285 284 283 283 282 282 282 281 281 280 280 279 279 279 278 278 277 275 274 273

GFSNW_925_thetae_063.txt.gz
Theta_e
296 296 296 297 296 296 296 297 296 300 300 302 303 302 302 302 302 304 305 306 308 308 308 310 310 310 314 311 312 316 314 318 316 312 312 314 317 319 322 328 328 326 324 329
295 296 296 296 295 296 296 298 296 297 300 304 301 302 302 302 302 304 305 306 306 306 306 307 308 309 312 310 310 312 310 317 319 318 317 317 318 316 319 320 322 328 330 327
296 296 296 296 294 296 296 297 297 297 298 299 303 304 304 303 303 303 304 304 304 306 306 306 307 309 310 311 311 312 310 315 320 321 321 321 322 321 317 318 324 325 328 329
295 295 295 294 295 295 295 296 297 298 301 299 301 302 303 304 307 305 304 303 304 305 307 307 308 308 308 309 313 312 314 317 318 317 317 320 320 320 320 321 321 328 327 328
295 294 294 294 294 295 295 295 295 296 298 299 301 303 302 303 302 306 306 306 305 304 306 307 309 311 311 313 312 313 313 315 316 317 317 317 320 319 320 322 323 324 325 326
295 295 295 294 294 295 295 295 295 296 298 299 299 300 302 303 304 303 305 307 308 308 309 308 308 308 310 310 311 312 314 314 315 318 314 318 318 317 322 321 321 322 325 323
295 295 295 295 295 294 295 295 296 296 296 297 297 298 299 301 304 304 305 305 307 307 308 307 308 308 308 310 310 310 311 311 313 315 314 321 318 316 318 319 319 319 317 318
294 295 294 295 295 294 294 295 296 298 294 297 297 298 299 300 302 303 305 305 307 307 308 307 307 306 307 307 307 308 308 309 310 315 317 316 315 316 313 317 316 315 315 315
294 294 294 294 294 295 294 295 295 296 296 294 297 298 299 301 302 304 304 306 305 305 304 304 307 306 307 308 309 308 308 308 309 311 315 318 315 314 314 313 319 316 316 316
294 294 294 294 294 295 295 294 294 295 295 295 295 297 300 300 300 303 304 305 305 304 304 302 306 306 307 308 310 311 309 309 310 310 312 315 314 313 313 315 320 316 316 315
294 295 295 295 294 294 295 295 295 295 296 297 297 298 298 299 301 303 302 302 305 303 302 302 303 304 307 308 310 313 311 311 311 309 310 312 311 313 315 316 314 313 312 312
295 296 295 294 295 294 294 295 295 295 295 296 296 297 298 298 298 300 301 300 303 305 305 303 305 304 306 310 312 312 313 313 311 310 309 312 315 316 314 312 312 311 310 309
297 297 297 295 295 295 294 295 295 295 295 296 295 296 296 296 298 299 301 302 304 304 302 303 306 307 308 309 309 312 312 311 313 312 312 313 313 311 310 309 308 307 306 306
299 298 297 296 295 295 294 295 294 295 297 291 294 296 297 298 298 299 299 300 301 300 301 303 305 308 309 308 310 309 311 308 311 312 313 311 308 307 306 305 305 304 302 301
299 298 297 297 295 295 294 295 295 295 296 297 298 297 298 300 299 298 298 299 301 302 303 304 307 306 309 308 308 310 310 305 311 312 308 310 308 306 303 303 302 300 299 295
298 297 297 295 295 294 295 294 294 295 296 296 294 298 300 301 300 301 299 298 299 302 303 304 306 307 307 304 307 307 304 303 301 301 306 303 300 299 300 300 296 294 292 292
296 297 295 295 294 294 294 294 297 294 296 298 298 299 301 300 301 301 301 302 302 303 304 303 305 305 308 302 305 299 299 301 298 300 302 300 298 297 297 296 293 290 288 287
296 296 295 294 294 294 294 295 297 297 296 298 299 299 300 303 304 304 303 303 302 302 304 303 306 306 306 305 298 296 295 297 295 297 298 297 295 292 292 292 291 288 287 285
296 295 294 294 295 296 295 295 296 297 297 297 298 299 304 303 304 303 303 304 303 303 303 304 304 300 300 296 294 293 293 292 292 295 293 294 292 290 288 288 287 286 285 284
295 295 293 294 294 297 296 296 297 297 298 299 299 300 301 303 303 302 303 302 304 304 302 302 304 297 294 292 290 289 289 290 290 291 290 290 289 286 285 285 284 284 282 280
296 295 295 298 298 298 297 298 299 298 299 298 299 299 301 303 303 303 302 302 301 304 304 303 303 297 293 289 288 287 287 287 288 287 287 286 285 285 283 282 281 279 279 278
298 298 298 297 297 297 301 299 299 299 301 300 299 300 303 303 304 303 303 304 303 306 301 304 295 292 289 287 286 286 285 284 284 283 283 283 282 281 281 280 279 278 277 277
299 298 299 300 299 302 302 299 299 299 300 300 301 303 301 301 300 300 303 305 303 302 305 296 292 289 288 286 285 284 283 282 281 280 279 278 278 278 277 276 275 275 275 275
298 297 294 298 299 297 296 298 298 297 299 300 299 300 301 299 301 301 302 300 298 304 301 291 288 286 285 283 283 281 280 279 278 278 277 276 276 276 276 275 275 275 274 274
294 294 295 293 293 292 294 295 295 295 296 298 297 295 296 297 299 300 299 298 301 295 289 287 285 283 281 280 280 279 279 278 277 277 276 276 276 275 275 275 275 274 274 274
289 291 294 294 292 293 293 295 294 293 295 297 298 299 299 299 300 298 294 297 291 288 284 284 283 282 281 281 280 280 279 279 278 277 277 277 276 275 275 275 274 274 274 273
289 288 288 289 286 287 291 292 293 293 295 300 297 295 297 295 294 292 290 287 286 285 284 283 282 281 280 280 281 280 280 280 279 278 277 277 276 276 276 275 274 274 273 273

GFSNW_925_thetae_066.txt.gz
Theta_e
295 296 296 296 297 296 296 295 293 296 298 299 301 300 300 301 300 301 302 305 306 307 306 307 307 311 313 310 311 315 312 316 319 315 312 313 318 321 322 326 326 324 326 328
296 296 295 296 295 296 296 298 294 295 296 300 298 300 301 301 301 301 301 305 304 304 305 306 308 309 311 309 311 311 309 314 319 316 315 313 317 318 321 322 322 327 329 328
295 295 295 296 296 295 295 297 294 292 295 296 300 301 302 302 302 302 302 303 304 304 305 306 306 307 311 310 310 311 309 313 318 321 322 319 322 321 319 322 325 324 324 326
295 295 294 295 294 294 296 295 293 294 298 299 299 300 300 301 302 303 303 304 304 303 304 306 306 308 310 311 313 312 311 312 317 316 316 315 318 321 320 322 321 324 323 324
294 294 294 293 293 295 295 295 291 294 295 298 298 299 300 301 303 302 303 305 305 306 307 306 307 310 309 312 311 311 311 312 314 315 314 312 315 320 320 321 323 320 321 324
294 294 295 295 294 294 294 294 295 294 294 295 295 298 299 299 299 303 303 304 304 306 307 308 307 307 308 309 309 311 312 313 311 314 314 313 318 317 319 320 322 323 326 323
295 295 295 295 295 294 294 295 294 295 294 294 295 296 297 297 299 301 302 303 304 305 306 306 306 307 308 308 308 308 309 309 310 312 312 314 316 311 313 321 321 320 320 321
294 295 295 294 293 293 294 294 294 296 294 296 296 297 297 298 300 301 302 303 304 306 305 306 306 304 306 306 308 309 308 308 308 311 313 312 310 315 315 319 318 317 317 320
295 294 294 293 293 293 294 294 294 295 294 294 295 296 298 298 299 300 303 304 303 304 304 306 306 306 306 307 308 306 307 306 306 308 313 313 314 313 313 314 322 316 317 318
294 294 294 294 294 294 294 294 294 295 295 293 294 294 298 299 299 300 303 301 304 301 298 303 304 305 306 306 309 308 306 306 309 308 309 310 312 312 313 315 320 314 313 314
294 293 294 294 294 295 295 294 294 294 296 295 296 297 297 298 300 300 300 301 302 302 298 301 302 301 305 306 306 308 309 309 307 308 309 310 311 314 314 315 313 312 311 310
295 295 295 294 295 296 295 294 294 294 295 292 295 296 296 296 297 298 300 300 300 303 302 303 303 301 299 306 310 311 313 311 310 308 307 310 308 310 310 312 311 310 309 307
296 297 297 296 296 295 295 294 294 294 295 293 293 294 294 294 295 296 297 300 300 300 300 302 304 305 305 307 309 311 312 311 312 312 311 309 307 306 305 304 303 302 303 303
297 298 298 297 297 297 294 294 294 295 295 292 292 295 295 296 296 296 297 299 300 300 300 303 304 303 305 307 309 309 310 308 310 313 309 308 306 305 304 301 300 298 296 297
299 299 299 298 297 295 295 294 294 294 294 296 295 295 296 296 297 297 298 299 299 299 304 301 304 305 305 308 308 308 305 304 306 309 307 304 306 303 302 299 296 295 294 292
299 299 298 297 296 295 294 291 294 295 295 295 292 293 297 299 300 298 296 296 297 299 302 303 304 305 306 307 309 302 303 300 302 302 299 297 298 299 297 294 292 290 289 289
298 297 298 296 295 294 291 290 293 293 295 297 296 294 297 297 298 297 298 298 300 301 301 303 303 303 305 305 305 299 298 297 299 301 301 297 296 296 293 290 288 286 285 284
297 297 296 295 294 293 294 295 297 294 295 294 295 296 297 300 299 300 298 300 301 301 302 302 304 304 305 299 296 294 295 295 295 296 294 292 291 290 290 289 287 286 284 283
297 295 295 294 294 292 294 295 295 295 295 295 297 298 297 294 300 300 302 302 301 302 303 302 303 297 295 295 292 291 291 291 292 293 292 290 289 288 287 287 286 285 284 282
295 294 293 294 293 294 295 296 297 296 297 298 300 297 299 299 301 301 301 300 304 305 303 301 299 295 291 290 289 288 289 289 289 291 291 288 287 286 285 284 283 282 281 282
293 294 296 295 295 296 295 296 296 297 298 297 297 297 299 301 303 304 299 300 302 304 301 304 300 296 290 287 286 286 285 286 285 285 284 286 285 283 282 281 280 280 279 277
295 296 297 297 297 298 299 298 297 298 298 296 297 297 296 300 303 301 302 302 301 305 303 303 294 289 287 286 285 284 283 282 282 282 282 282 281 280 279 279 278 277 276 274
298 298 297 299 298 299 297 298 299 298 299 300 300 302 301 299 299 298 302 305 301 301 298 292 289 287 285 284 283 282 281 280 279 278 278 278 277 277 276 275 274 274 274 274
297 297 293 295 297 293 293 294 298 297 298 299 298 297 296 297 300 299 300 297 299 303 293 288 285 285 284 282 281 279 277 276 276 275 275 275 274 274 274 274 274 274 273 273
292 292 290 288 287 287 291 294 295 294 296 297 298 296 293 295 297 297 297 296 294 291 285 281 281 280 279 278 277 276 276 275 275 274 274 273 274 273 273 274 274 274 274 273
289 288 290 290 289 290 292 293 293 293 294 296 293 292 297 298 297 295 293 294 287 281 278 280 281 278 276 277 278 278 277 276 276 276 275 274 274 274 274 274 274 273 273 273
287 284 279 282 279 286 289 291 292 292 296 295 292 290 296 293 290 288 285 281 279 281 280 278 275 276 278 278 279 278 278 277 277 277 276 275 275 274 274 273 273 273 272 272

GFSNW_925_thetae_069.txt.gz
Theta_e
296 296 296 295 297 296 295 294 289 296 296 298 296 296 298 299 300 300 301 302 304 306 305 306 307 309 313 310 312 315 312 316 318 317 312 315 317 320 322 325 326 326 328 329
295 296 296 295 296 295 295 294 292 295 295 290 299 297 299 299 299 299 300 302 303 305 304 305 307 307 311 309 310 309 308 313 317 314 314 316 319 320 320 321 323 325 328 326
295 295 295 295 295 295 295 296 291 289 293 294 296 296 299 299 300 302 302 302 302 303 304 305 306 307 309 310 310 311 309 312 315 315 319 318 320 318 321 323 325 324 324 328
295 295 295 295 295 294 295 295 293 292 287 296 296 297 299 301 301 301 301 302 303 305 306 304 305 307 309 311 312 310 307 310 315 314 313 314 316 317 320 323 322 325 320 321
295 295 293 294 293 294 295 294 291 292 294 296 297 297 299 299 298 298 303 302 303 304 306 307 308 308 308 310 310 312 311 310 312 312 314 311 310 312 318 321 321 322 321 321
295 294 293 294 295 294 294 294 294 292 293 294 294 295 296 298 297 298 299 300 302 303 304 305 306 306 306 308 309 310 311 311 310 311 310 310 312 315 314 320 319 319 325 321
295 295 295 295 295 294 293 293 293 293 291 294 295 295 295 296 298 298 299 300 303 304 303 303 304 306 307 307 307 307 309 308 308 310 310 309 309 307 314 316 319 320 320 321
294 295 295 295 295 293 294 294 294 294 292 294 295 296 296 296 296 298 300 302 302 303 305 305 306 304 305 305 307 307 307 306 307 307 309 308 308 314 314 315 317 317 318 319
294 294 294 293 294 293 294 294 293 294 292 292 294 294 295 297 298 297 300 301 299 304 302 303 306 305 305 306 306 306 307 305 306 307 310 308 308 311 313 313 318 315 316 319
293 293 294 295 294 293 294 294 293 294 295 293 294 294 294 296 297 297 300 298 301 301 301 304 304 306 305 305 307 307 306 305 309 308 308 307 308 312 312 316 318 313 314 319
294 294 294 294 294 295 295 294 294 293 294 293 295 295 294 295 296 296 296 297 298 300 300 303 304 302 304 305 304 306 307 307 306 307 308 308 307 312 313 314 312 310 308 305
293 294 294 295 294 295 295 294 293 294 293 293 294 294 295 295 296 296 298 299 299 300 304 303 302 302 298 304 305 309 304 309 309 307 307 307 305 306 307 310 311 309 307 304
293 294 295 296 296 295 295 295 293 293 295 294 292 293 294 294 295 296 298 298 298 298 299 302 303 303 305 302 304 309 311 310 310 311 309 307 304 303 301 300 301 303 303 301
294 294 295 295 296 297 296 293 294 293 294 292 291 294 293 295 295 295 296 297 299 299 300 302 302 302 304 305 307 307 309 308 306 311 309 307 306 303 300 298 296 295 294 294
296 297 297 298 298 298 297 293 293 293 293 295 294 294 294 295 295 294 295 296 298 299 301 301 301 302 305 303 306 306 303 302 304 308 305 305 303 300 299 296 294 293 291 290
297 297 299 299 300 298 292 293 292 293 294 293 293 292 294 298 295 296 295 296 296 298 300 302 303 303 304 306 304 301 300 300 301 301 298 297 296 293 292 291 290 289 287 287
299 300 299 298 295 294 292 290 292 294 294 295 296 293 294 297 297 295 295 295 296 296 299 299 301 302 304 303 302 298 298 299 299 297 298 296 295 292 289 287 286 285 284 283
298 298 297 295 294 295 295 295 294 294 294 293 292 293 293 298 297 297 295 297 298 299 301 301 302 302 305 298 295 294 294 295 294 292 291 291 290 289 288 287 286 284 283 282
297 296 294 293 293 291 294 295 294 294 293 291 293 292 289 295 300 298 298 298 299 300 301 302 302 299 295 294 292 291 290 290 291 292 290 289 288 287 286 286 285 284 282 281
294 293 293 290 293 294 295 295 295 294 294 296 298 297 298 297 298 300 301 300 301 303 302 302 297 290 289 289 288 288 288 287 289 291 290 288 287 286 284 283 282 282 282 280
293 292 293 292 295 295 294 294 295 296 298 296 297 297 299 299 301 302 299 300 302 303 301 304 298 293 288 287 286 285 284 284 284 283 283 283 283 283 282 281 280 279 278 276
294 295 295 295 295 295 295 296 296 298 297 295 297 297 297 298 302 301 301 301 299 305 301 300 292 288 286 285 284 283 282 281 282 282 282 281 280 279 279 278 277 275 274 273
297 296 296 296 295 298 298 298 299 298 295 300 301 301 296 298 301 300 301 304 297 302 295 291 289 287 285 284 283 281 280 279 279 278 277 276 276 275 275 274 274 273 273 273
296 294 297 295 293 290 287 287 292 296 298 298 298 297 296 297 299 298 300 296 297 296 290 289 284 285 284 282 281 279 276 276 276 275 274 274 273 273 273 274 274 274 272 272
291 290 286 286 284 286 287 292 295 294 295 297 297 294 292 297 297 294 297 295 290 288 286 279 281 280 278 276 275 274 274 274 273 274 273 273 273 273 273 273 273 273 272 271
289 287 289 289 290 288 291 292 293 293 294 295 294 290 291 296 291 294 288 292 287 279 274 277 279 275 273 274 276 275 275 275 275 274 274 274 274 274 273 273 273 273 273 272
287 285 281 281 283 284 289 289 290 290 296 292 294 288 296 291 286 287 282 278 274 273 275 277 273 275 274 275 277 277 276 276 276 275 275 275 274 274 273 273 272 272 272 272

GFSNW_925_thetae_072.txt.gz
Theta_e
295 295 296 295 296 295 295 292 288 296 296 293 293 291 297 297 298 297 298 300 301 302 304 306 305 308 308 312 313 316 313 317 317 315 312 314 317 320 319 325 327 326 327 328
295 295 295 295 295 294 294 292 292 294 294 285 291 298 298 298 299 299 299 300 300 300 302 304 307 308 307 308 311 313 311 315 317 313 314 315 318 319 319 319 319 326 325 325
294 295 295 294 295 294 294 291 290 288 292 291 292 294 296 298 300 299 300 301 301 302 302 303 306 306 306 308 310 311 308 311 311 311 312 316 316 315 316 318 323 323 322 326
295 295 295 295 295 294 294 293 292 291 287 293 296 296 297 297 300 300 299 301 302 303 304 304 304 305 307 308 309 309 306 309 313 312 311 312 313 314 314 317 319 323 322 323
295 295 295 295 294 293 294 295 292 293 294 294 294 295 297 298 298 297 297 300 300 300 304 303 307 306 307 309 309 311 310 312 311 310 311 309 309 306 308 312 319 320 320 320
295 295 295 294 294 293 293 294 293 292 293 294 293 294 295 295 296 297 298 299 299 300 301 302 302 305 306 306 308 309 309 309 309 310 308 307 306 310 307 311 319 319 320 318
295 295 294 294 294 294 293 293 293 291 291 294 294 294 294 295 296 297 296 297 301 302 301 302 302 304 306 307 307 306 308 308 307 310 308 307 304 305 310 317 316 318 319 320
295 295 295 295 295 294 293 293 294 291 288 293 293 294 295 294 294 296 297 299 301 298 301 306 305 304 306 305 305 306 306 306 306 306 308 306 305 312 313 315 313 315 318 318
294 294 295 295 294 294 294 293 293 294 291 291 293 293 293 295 295 296 296 299 298 301 303 306 306 305 304 305 306 306 304 304 305 307 308 305 305 309 309 311 313 313 313 315
294 294 294 294 293 293 294 293 293 293 293 293 293 293 293 295 294 293 296 297 299 297 303 306 305 304 304 304 306 308 307 306 308 307 306 306 305 308 309 313 311 308 308 314
294 294 294 294 295 294 294 294 293 292 292 292 293 294 294 293 293 290 292 294 296 297 302 303 304 301 303 305 304 305 306 306 307 308 309 308 305 309 310 310 307 305 304 305
294 294 294 294 294 294 294 293 293 293 292 290 293 293 294 294 294 293 294 295 298 299 300 301 303 304 300 303 305 306 303 305 308 307 307 305 303 303 302 308 308 304 302 300
293 294 294 294 294 295 295 295 293 293 294 293 291 292 292 293 293 294 294 295 298 298 298 300 302 303 304 305 303 307 307 308 309 309 308 305 303 300 298 298 298 300 298 297
293 294 294 294 295 296 296 296 293 293 293 291 291 293 293 294 294 294 295 295 297 298 299 301 302 301 304 303 305 305 306 305 305 309 307 306 304 301 299 296 294 293 292 292
294 294 295 295 295 296 296 297 293 293 293 293 293 293 293 294 294 294 294 295 295 297 298 300 301 302 302 303 304 304 302 302 303 306 302 303 299 296 294 293 292 291 289 288
293 295 296 297 297 295 294 292 292 293 292 293 293 292 293 295 294 294 293 294 295 296 301 300 300 302 304 304 301 300 299 300 301 300 297 294 292 291 290 289 288 287 287 287
294 295 297 298 299 296 293 293 292 292 292 291 290 294 293 296 296 294 294 295 296 296 296 297 297 299 303 303 302 298 297 295 294 294 298 295 291 289 287 285 284 283 283 282
295 298 297 295 293 293 294 294 292 292 293 293 293 293 291 297 295 296 294 295 298 298 296 298 301 301 303 300 294 293 292 294 292 291 291 290 288 287 286 285 284 283 282 281
298 296 294 293 292 293 295 293 293 294 292 291 292 292 290 294 298 297 299 298 299 295 299 298 300 299 297 293 291 290 290 289 290 290 289 288 287 286 285 284 283 282 281 280
293 293 292 290 294 293 294 293 291 288 290 294 296 291 292 296 297 298 297 293 293 300 299 299 298 287 289 288 288 287 286 286 287 292 290 288 286 285 283 282 282 281 280 278
294 292 292 293 294 294 291 294 291 287 295 293 294 293 297 296 298 301 299 300 299 301 301 303 295 291 288 287 285 284 283 283 283 283 282 283 283 283 282 280 279 278 277 275
294 293 294 293 293 289 293 295 294 297 296 292 296 297 297 297 299 300 299 301 301 305 300 300 290 285 286 284 283 282 281 281 281 281 281 280 279 279 278 277 275 274 273 272
294 293 293 294 294 295 294 292 296 297 293 296 299 300 297 297 300 300 301 301 300 300 296 291 286 286 285 283 282 281 279 279 278 277 276 275 274 274 274 273 272 272 272 272
295 296 296 296 295 293 293 287 288 294 297 298 297 298 298 295 298 298 299 297 298 294 292 290 284 284 283 282 280 277 275 274 274 274 273 273 272 272 273 273 273 272 271 271
291 289 289 290 286 283 282 289 295 294 295 297 296 292 293 297 297 293 297 295 291 290 287 278 280 280 278 276 275 274 272 270 272 273 273 273 273 272 272 272 273 272 271 271
286 284 286 286 286 285 286 290 293 292 294 295 290 289 290 294 290 291 285 290 287 280 273 275 277 273 271 272 274 273 274 274 274 274 274 274 274 273 273 273 273 272 272 271
284 281 279 279 279 282 288 289 289 289 294 288 287 288 291 290 285 286 280 279 274 270 274 274 271 273 272 274 275 275 275 275 275 275 275 274 274 274 273 273 272 272 272 272

GFSNW_925_thetae_075.txt.gz
Theta_e
295 294 295 295 295 293 293 291 291 294 295 295 293 296 297 297 297 296 296 299 299 300 300 304 305 306 308 307 309 315 314 316 314 313 312 314 316 318 320 321 323 325 325 325
294 293 295 295 295 293 293 292 292 293 293 292 295 296 297 298 298 298 298 299 300 300 300 301 303 307 307 308 307 312 313 317 319 316 316 316 316 318 319 319 318 322 326 326
294 294 295 294 294 294 293 290 290 291 294 291 294 293 295 296 299 299 300 300 300 301 301 301 301 305 306 306 307 309 310 311 315 314 311 313 315 313 314 317 318 318 323 324
294 294 295 295 294 293 293 290 291 292 293 296 295 295 296 297 298 298 298 301 299 300 303 302 303 302 304 307 306 308 310 310 312 312 312 312 310 311 309 310 316 319 318 318
294 295 295 295 294 293 292 293 293 293 295 294 295 294 294 296 296 295 296 299 298 297 301 301 303 303 304 308 308 309 311 312 312 310 312 308 308 306 308 310 310 314 318 319
295 295 295 294 294 293 293 293 292 293 294 294 294 294 294 294 295 296 297 297 296 297 301 302 302 302 303 305 308 308 309 311 311 309 309 307 306 307 306 310 313 317 319 318
295 295 294 294 294 293 293 293 293 294 293 294 294 294 294 294 295 296 295 297 297 299 300 299 301 302 303 305 306 307 310 309 309 310 308 305 304 305 308 314 316 314 315 318
295 295 294 294 294 293 293 293 292 291 291 293 293 293 294 295 294 295 296 298 298 298 300 302 303 305 306 307 306 307 308 308 309 308 308 306 305 310 310 314 313 314 315 316
295 294 294 295 294 294 293 293 292 293 292 292 293 293 293 294 295 295 296 296 297 299 302 304 305 304 302 306 307 306 305 306 308 308 308 306 305 309 308 311 309 310 309 312
294 293 294 294 294 294 293 293 292 292 293 293 293 294 294 294 295 295 294 296 297 297 300 304 307 305 304 304 306 309 309 308 309 309 308 307 306 307 308 305 309 307 306 310
293 293 293 293 293 293 294 293 293 292 292 291 293 294 294 294 294 294 294 295 296 298 299 303 305 305 305 305 305 307 307 308 308 307 308 307 305 308 308 308 306 303 302 300
293 293 294 294 294 294 294 293 293 292 292 292 292 293 292 293 293 294 295 295 295 298 300 300 300 305 305 304 305 306 307 307 309 307 308 305 303 303 300 305 305 302 300 298
292 292 294 294 294 294 294 294 293 292 294 294 292 293 292 292 292 293 295 295 297 298 298 300 303 303 303 305 306 307 306 306 309 308 307 305 302 299 297 297 298 297 296 294
292 293 293 294 294 294 295 295 293 293 292 292 291 292 291 293 293 292 293 294 297 297 298 298 301 301 302 302 303 304 305 305 304 307 304 302 299 298 296 294 293 292 292 291
292 293 294 294 294 295 295 296 294 293 294 294 293 292 293 293 294 293 293 293 295 296 297 298 300 301 303 302 304 302 300 302 303 304 300 298 295 293 292 292 291 290 289 288
293 293 294 294 295 295 296 292 294 293 293 295 295 293 293 294 293 293 293 294 295 296 298 300 300 301 303 303 303 298 296 295 297 299 294 292 291 290 289 288 287 287 286 286
292 293 294 295 295 297 292 293 292 293 292 293 294 294 293 295 294 294 294 295 296 297 298 299 299 299 301 305 303 295 295 293 293 294 294 292 291 288 286 285 284 283 283 283
293 293 294 296 296 293 293 292 293 292 292 292 293 293 293 296 296 298 294 296 297 298 298 298 300 300 302 301 294 292 292 293 291 290 290 289 288 286 285 284 283 283 282 281
294 295 293 292 292 294 293 293 292 292 292 292 292 292 293 295 297 297 299 298 299 296 299 298 300 300 301 293 292 290 288 289 291 290 289 288 287 286 284 283 283 282 281 280
293 293 292 293 294 292 293 293 291 290 291 293 293 292 294 297 295 298 298 296 297 298 299 299 302 293 289 288 287 286 286 285 287 291 290 288 286 284 283 283 282 281 280 278
292 292 292 294 294 293 292 292 289 288 292 292 293 294 296 296 298 299 298 298 297 299 301 300 297 294 289 286 284 283 283 283 283 283 282 284 284 283 282 280 279 278 277 275
293 293 293 294 293 289 292 295 294 294 296 294 295 296 297 297 298 300 299 301 300 304 300 301 297 288 286 284 282 281 281 281 281 281 281 280 279 279 278 277 276 274 273 272
294 294 294 292 290 289 292 292 295 296 295 293 297 300 299 298 299 300 302 302 302 300 300 297 288 286 284 283 282 280 279 278 278 277 276 275 275 275 275 273 272 272 271 271
294 292 293 293 290 292 290 291 290 292 297 298 298 299 300 298 299 298 300 298 299 299 297 293 286 285 283 281 279 278 276 276 275 274 274 273 273 272 272 272 272 271 270 270
291 291 291 291 287 287 284 286 294 294 295 297 297 295 296 298 297 296 297 298 298 295 294 285 283 282 279 277 276 274 273 273 273 273 273 273 273 272 272 272 272 271 270 270
286 284 288 288 291 290 291 292 294 291 294 294 294 293 293 294 293 294 292 295 295 289 281 279 279 275 274 274 273 272 272 272 273 273 273 273 273 273 272 272 271 271 271 270
284 281 281 282 280 284 287 286 287 287 294 294 291 292 293 292 290 290 284 289 284 278 277 277 276 275 273 272 273 274 274 274 274 274 274 274 273 273 274 273 272 272 271 271

GFSNW_925_thetae_078.txt.gz
Theta_e
294 294 294 295 294 293 294 296 299 296 296 299 299 299 297 297 298 298 298 298 299 298 298 297 299 301 305 310 311 315 312 314 314 313 313 314 315 316 319 322 323 325 327 326
293 293 294 293 294 293 295 297 296 296 297 300 299 297 298 298 299 300 299 299 299 299 299 299 299 300 301 308 311 312 312 316 316 314 316 316 316 317 318 316 320 322 326 328
295 293 293 293 293 293 295 297 298 297 298 297 298 298 297 298 300 300 299 300 301 301 301 302 300 300 303 306 306 307 307 314 315 312 316 315 317 316 316 317 319 318 316 319
294 294 294 294 293 293 295 297 297 297 298 298 297 298 297 298 298 299 298 302 300 300 300 302 302 301 300 302 307 309 307 317 313 313 312 313 311 311 311 314 314 315 311 312
294 294 295 294 293 293 296 297 297 296 297 297 296 296 295 296 297 296 297 299 298 298 299 301 304 303 303 304 307 308 307 315 313 313 310 311 311 309 307 309 312 312 313 315
295 295 295 294 293 293 295 294 294 297 295 296 296 296 295 295 295 297 298 297 298 300 300 301 301 302 302 303 304 308 308 312 313 312 311 309 308 308 309 309 311 315 317 316
295 295 295 295 293 293 295 295 294 297 296 295 295 294 294 295 296 297 297 297 299 299 298 300 302 302 303 304 305 306 309 309 310 309 307 306 309 308 310 312 313 315 314 318
295 293 293 294 295 293 294 294 295 296 296 294 294 294 295 295 296 296 297 297 298 298 301 303 302 303 304 305 305 306 308 312 311 308 308 306 305 310 310 312 313 314 315 315
294 293 294 293 294 293 294 294 294 295 295 295 294 295 295 296 296 297 297 297 297 300 302 302 304 305 302 302 305 306 306 308 312 309 306 306 312 310 309 309 311 312 311 312
294 294 294 294 294 294 294 294 294 294 295 295 295 296 296 296 297 297 297 297 298 299 301 303 306 307 303 302 304 308 309 309 310 309 307 307 309 309 309 307 312 309 307 305
293 293 293 293 293 294 294 294 294 294 294 295 294 295 295 296 297 298 297 298 299 299 301 302 303 307 306 305 305 306 307 309 310 308 308 308 308 311 311 309 307 305 302 299
294 293 292 292 293 294 294 295 294 294 294 295 294 294 294 294 295 297 296 297 298 298 301 301 301 306 306 306 306 306 308 309 310 309 311 307 304 304 301 303 304 302 300 297
292 291 293 294 294 294 294 294 294 294 295 295 294 296 295 294 294 294 296 298 298 299 299 299 301 305 305 306 307 307 307 305 308 309 303 302 301 298 297 296 297 295 294 292
291 292 292 293 293 294 294 294 293 294 295 296 296 294 294 294 294 294 294 295 295 297 298 298 300 303 303 304 305 306 304 305 304 305 301 300 298 297 296 295 293 292 292 292
291 292 292 293 294 294 294 295 294 294 295 297 297 295 295 295 295 295 295 295 296 297 297 299 301 302 303 305 304 302 300 300 303 305 299 298 295 294 294 294 293 292 292 290
291 291 293 294 293 294 295 295 295 294 294 297 297 296 295 296 296 296 296 296 297 296 298 299 301 301 302 303 306 298 297 296 297 298 294 293 292 291 291 291 289 288 288 288
291 292 293 294 294 294 294 297 295 294 293 295 297 297 296 296 296 297 297 296 298 298 298 300 300 300 301 304 305 297 295 294 294 295 295 294 293 291 289 288 287 287 286 286
292 291 293 294 295 294 293 294 293 293 292 294 298 296 297 297 299 299 298 299 299 300 300 300 301 301 302 303 295 294 294 293 292 292 293 291 290 289 288 287 287 287 286 285
293 293 294 294 293 293 294 292 292 292 295 297 295 298 299 298 299 299 299 299 299 299 300 300 300 301 302 295 293 291 290 291 292 291 290 290 289 288 287 287 287 286 285 284
293 292 292 296 293 293 292 293 296 295 296 296 296 295 299 298 299 298 299 300 301 300 300 301 301 301 291 289 289 289 288 288 291 292 291 290 289 287 286 285 285 284 283 281
292 294 295 293 293 295 296 295 295 295 295 296 296 297 299 299 300 301 300 299 300 299 301 301 302 300 291 288 286 286 286 286 286 287 287 288 287 286 284 283 282 281 280 279
293 294 293 294 295 295 295 295 295 295 295 298 297 297 298 299 300 301 300 301 300 302 302 303 303 291 288 287 285 284 284 284 284 284 284 283 283 282 281 280 279 277 276 275
293 294 295 295 295 295 296 295 296 297 297 299 298 298 299 300 299 301 302 302 306 302 305 304 295 289 287 285 284 283 282 281 281 280 280 280 279 278 278 277 275 275 274 273
295 295 294 296 295 296 297 298 299 299 298 299 299 301 302 300 301 302 303 302 302 305 304 302 292 288 285 284 282 282 280 279 279 278 277 276 275 275 274 274 273 273 272 271
296 295 296 295 296 294 294 295 296 295 296 299 300 300 301 301 301 300 301 302 305 301 302 294 289 285 282 281 280 278 277 277 277 276 276 275 275 275 274 274 274 272 271 271
292 292 293 291 294 294 295 296 295 294 295 298 299 300 301 299 299 299 300 301 302 297 290 287 284 281 280 279 278 277 277 277 277 276 276 275 275 275 274 273 272 272 271 271
290 290 288 290 292 294 292 292 293 291 296 301 298 300 299 296 298 298 294 299 293 287 285 285 283 280 278 276 276 276 277 277 277 277 277 276 275 274 275 275 274 273 272 271

GFSNW_925_thetae_081.txt.gz
Theta_e
294 295 294 294 295 293 296 299 303 298 299 303 302 302 300 297 299 300 300 300 300 300 300 301 301 301 301 305 309 313 314 319 313 311 312 314 314 317 318 322 319 322 324 325
295 294 293 294 294 294 297 300 299 297 300 305 302 299 299 300 300 300 300 300 301 301 302 301 301 301 302 302 303 311 309 315 315 313 313 313 314 314 317 319 321 321 324 326
293 293 293 293 294 293 297 300 302 300 300 300 301 300 300 300 300 301 300 301 302 302 302 302 302 303 302 302 304 307 307 308 314 314 314 317 319 315 317 319 322 320 321 317
294 293 292 293 293 293 297 300 301 301 302 301 300 300 299 299 300 301 300 303 302 301 301 301 302 303 304 304 302 303 309 310 309 312 312 313 316 318 316 318 317 316 314 312
294 292 293 293 293 293 298 300 300 299 301 299 299 297 298 298 299 298 299 300 300 300 300 301 302 304 304 303 304 307 308 309 309 311 314 313 314 315 312 311 310 311 312 313
294 295 294 293 292 294 297 297 298 301 298 299 299 299 298 298 297 298 298 299 299 300 300 301 301 301 302 303 304 304 306 309 309 309 315 313 313 312 311 309 311 311 316 318
294 295 294 293 293 294 297 297 297 299 300 298 298 296 296 297 297 298 298 298 299 299 300 300 302 303 303 304 304 304 308 308 309 310 314 314 310 308 309 309 311 314 315 317
295 295 294 294 293 292 296 295 297 298 299 297 297 296 296 297 297 298 298 298 299 300 300 303 303 303 303 305 305 304 305 308 309 315 311 309 307 310 311 312 317 313 313 313
294 294 293 293 294 292 296 296 296 297 300 297 296 296 297 298 298 298 298 299 299 300 302 303 304 303 303 304 303 304 305 308 308 311 311 310 313 311 310 310 314 311 311 311
294 294 293 293 293 293 295 296 296 296 298 297 297 298 299 297 298 299 299 299 300 301 303 304 306 305 305 305 304 307 308 309 310 313 309 311 311 310 309 309 315 310 308 305
294 294 294 294 294 293 294 296 295 295 296 297 297 296 297 298 298 299 300 300 301 301 302 304 304 303 307 306 305 306 307 307 309 309 310 311 308 311 313 308 308 306 303 299
294 293 293 293 293 293 294 296 295 295 295 298 296 296 296 296 296 298 298 299 299 300 301 301 302 305 307 307 308 307 309 310 313 311 313 305 303 303 301 303 303 302 299 296
293 293 293 293 293 294 294 296 295 295 297 297 298 298 297 297 296 296 298 299 299 300 299 302 302 305 306 307 308 309 308 306 309 311 302 301 300 299 297 297 297 295 295 294
293 292 291 293 294 294 293 295 296 295 297 298 299 297 297 296 296 296 296 298 298 298 298 300 301 303 304 306 306 307 305 306 305 304 301 301 298 298 298 296 294 294 294 293
293 292 292 292 293 293 295 295 296 295 296 300 300 298 297 297 297 297 297 297 298 298 299 299 302 302 305 305 305 304 300 299 303 305 300 299 296 295 296 295 295 294 293 292
292 292 292 291 292 293 295 294 295 295 295 298 299 299 298 297 297 298 298 298 297 297 298 299 301 302 303 303 306 300 298 297 297 298 296 294 294 294 294 293 292 291 290 290
292 291 292 293 293 294 296 297 295 295 294 296 299 299 299 297 298 299 299 298 298 298 299 300 301 301 302 304 306 299 296 295 297 296 297 297 295 293 292 291 290 290 289 288
292 292 293 293 293 294 295 295 294 295 293 294 299 299 299 298 299 300 299 299 298 299 300 301 302 302 302 304 297 296 295 295 294 294 295 294 293 292 291 291 290 290 289 287
292 292 293 294 294 293 294 293 293 292 294 299 298 299 300 299 300 300 300 300 301 300 302 301 301 302 303 298 296 293 292 293 294 293 293 293 292 292 291 290 290 289 288 286
292 293 292 295 292 294 293 293 295 296 297 298 298 299 300 300 300 300 300 301 301 302 303 301 301 302 293 292 292 292 291 292 293 294 293 292 291 290 289 288 288 287 286 284
293 293 296 294 293 293 298 297 298 297 298 298 298 299 300 300 301 301 300 301 301 301 302 302 304 302 293 290 290 289 289 290 290 290 290 289 290 288 287 285 284 283 282 280
293 295 294 293 296 297 296 297 296 297 296 298 299 299 299 300 300 302 302 301 301 302 303 303 305 295 291 289 288 287 287 287 287 286 286 285 285 284 283 282 281 279 278 277
294 295 296 297 296 297 297 296 297 299 299 300 300 299 299 300 300 301 302 302 303 304 305 306 298 292 289 288 288 286 285 284 283 283 282 282 281 281 280 279 277 277 276 275
297 298 297 297 297 298 299 300 301 301 301 301 301 300 301 301 301 301 305 306 306 306 306 304 295 290 288 287 286 285 283 282 281 280 279 278 277 277 277 276 276 275 274 273
298 297 298 298 299 297 298 297 298 298 298 299 301 301 302 302 303 302 303 304 306 305 304 296 291 288 285 284 283 281 280 280 279 279 278 278 277 277 277 276 275 274 273 272
295 295 296 295 296 296 296 300 299 297 298 299 301 303 303 303 302 301 303 303 305 300 294 289 287 285 283 282 281 280 280 280 279 279 278 278 278 278 276 275 274 274 273 273
294 294 291 294 296 298 296 296 296 295 298 303 304 303 304 300 301 301 300 302 296 291 289 288 285 284 281 280 279 279 280 280 280 279 279 278 277 276 277 277 275 275 274 273

GFSNW_925_thetae_084.txt.gz
Theta_e
294 295 295 295 294 293 295 301 307 300 301 307 305 304 302 297 300 301 301 301 301 301 301 302 302 302 302 303 303 302 308 314 317 315 313 314 314 314 318 322 319 321 322 324
294 294 294 294 294 293 298 302 302 298 302 309 305 301 300 301 301 301 301 301 301 302 302 302 302 302 303 303 302 304 307 310 312 312 311 312 313 314 318 321 321 321 323 322
294 293 293 293 293 293 296 303 305 301 302 302 304 301 301 301 301 302 301 301 302 302 302 302 302 302 303 303 304 305 306 306 308 313 313 312 316 318 317 317 323 320 320 319
294 293 292 293 293 293 296 302 306 303 305 302 302 302 300 301 300 301 301 302 302 303 301 301 301 302 302 303 304 303 305 305 305 308 309 309 312 316 315 316 320 320 317 314
294 293 292 293 292 293 299 301 303 301 302 301 301 299 300 300 300 299 301 301 300 301 300 300 302 302 302 303 302 303 306 307 305 306 306 308 312 313 315 315 318 318 317 315
295 293 292 292 291 295 299 298 299 303 300 300 300 301 300 299 299 299 299 299 300 300 300 300 301 301 301 301 302 304 304 306 307 307 306 308 314 312 312 313 315 314 316 319
295 294 292 292 292 293 297 298 299 302 302 300 299 299 298 298 298 298 299 299 299 300 300 300 300 301 302 302 303 303 305 306 307 309 308 310 310 310 311 311 316 316 314 316
295 295 293 292 292 293 297 296 299 300 303 299 299 298 298 298 298 298 299 299 299 300 300 302 302 303 303 303 304 304 305 306 308 310 310 311 311 310 311 312 315 311 312 311
294 295 293 293 293 292 297 297 297 299 303 298 298 297 297 298 299 300 300 299 300 300 302 303 303 303 304 305 307 304 304 306 308 307 309 316 316 311 310 310 318 309 309 307
294 294 293 293 293 293 296 297 297 298 301 298 298 300 301 299 300 299 300 300 300 302 303 303 306 305 303 305 307 304 306 307 308 309 310 314 307 309 310 310 313 307 304 301
294 293 294 293 292 291 295 298 296 298 298 299 298 298 298 299 299 300 300 300 301 301 302 304 303 303 304 309 307 305 306 308 309 309 314 313 304 307 310 306 304 303 299 297
294 294 294 294 293 292 293 298 296 296 297 299 298 298 298 298 298 298 299 299 300 301 302 302 302 303 307 307 310 308 310 309 310 307 307 304 301 301 299 300 300 299 298 295
294 294 293 293 293 293 294 297 297 296 298 299 299 299 299 298 298 297 299 300 301 300 300 302 301 303 305 307 308 307 306 306 308 308 302 300 299 298 296 296 296 296 295 294
293 293 293 293 292 293 294 296 297 296 298 299 301 299 298 298 298 298 298 298 299 298 299 301 300 302 304 305 306 306 302 303 303 303 302 300 297 298 297 296 295 294 293 293
293 293 291 292 292 292 294 296 297 297 297 300 299 299 298 298 298 298 298 298 298 298 299 300 300 301 305 306 306 302 299 299 300 303 299 298 296 296 294 294 296 295 293 291
293 293 292 293 293 292 295 296 296 297 297 298 299 300 300 299 298 299 299 298 298 298 298 299 300 301 304 304 305 300 297 296 296 297 296 295 294 295 294 293 292 291 291 291
293 292 292 293 293 294 296 297 295 296 296 297 299 300 299 299 298 299 300 299 299 297 299 299 301 301 303 305 305 298 295 295 296 296 297 296 295 294 293 292 291 290 290 289
293 292 291 293 293 294 295 296 295 295 294 294 299 299 300 299 299 300 301 300 298 299 299 301 302 302 303 304 297 296 295 295 295 295 295 294 294 293 293 292 291 290 289 287
291 290 292 293 294 294 294 294 295 294 295 299 299 300 301 300 300 300 300 300 300 300 302 302 302 304 304 299 296 294 293 294 295 294 295 294 293 292 292 291 291 289 287 285
292 293 294 295 293 294 294 294 295 295 296 298 300 299 301 300 300 301 300 301 301 302 303 302 303 303 296 294 293 293 292 293 294 297 295 293 292 290 289 288 287 286 285 284
293 294 295 294 294 294 297 298 297 297 299 299 299 300 301 300 301 301 300 301 302 302 304 303 304 302 294 292 291 291 291 290 290 290 289 289 289 289 287 285 283 281 280 279
293 294 293 293 295 298 299 298 298 299 298 300 301 300 300 301 301 302 302 301 302 302 304 303 304 295 292 290 289 289 288 287 287 286 286 285 285 285 283 281 280 279 278 277
294 295 297 299 298 299 297 297 297 298 299 301 303 303 301 301 301 303 302 302 302 304 306 305 298 292 290 289 288 287 286 285 284 283 283 282 281 280 280 279 278 277 276 275
298 298 298 299 297 298 299 300 303 302 302 302 303 301 301 302 303 301 301 304 304 306 306 304 295 291 289 288 287 285 283 282 281 280 279 279 278 277 277 277 276 275 274 273
299 298 299 298 300 298 299 300 301 299 297 302 300 301 301 301 301 302 303 304 305 306 303 296 292 288 286 285 283 282 281 281 280 279 278 278 278 278 277 276 275 273 273 272
296 297 297 297 298 298 296 296 299 298 298 298 300 303 302 303 303 303 303 304 305 299 293 290 288 286 285 283 282 281 281 281 280 279 279 279 279 278 276 275 274 274 273 273
295 295 293 297 298 300 299 298 298 297 299 302 302 305 305 302 303 302 302 302 296 292 290 288 286 284 283 282 281 281 281 281 280 280 280 279 277 276 278 278 276 276 275 273

GFSNW_925_thetae_087.txt.gz
Theta_e
295 295 295 294 294 293 294 299 304 300 302 305 307 305 302 299 300 301 301 301 301 301 302 302 302 301 302 304 303 303 307 310 308 308 307 308 312 316 316 317 318 319 321 324
295 295 294 295 294 294 296 300 299 298 303 306 304 301 300 301 301 301 301 302 302 302 302 301 303 303 303 304 304 306 305 306 308 305 307 311 313 314 314 318 319 322 321 322
295 295 293 293 293 293 296 300 302 299 301 301 304 301 301 300 300 301 301 301 302 302 302 301 302 301 303 304 303 306 304 305 306 307 307 307 311 311 311 315 320 322 321 318
294 293 292 292 293 294 297 300 303 302 302 300 301 302 301 302 302 301 301 301 302 302 302 301 300 302 302 302 303 303 304 304 304 304 303 304 305 309 310 312 315 319 320 320
295 293 292 293 292 295 299 299 301 300 301 301 301 300 299 300 300 299 301 301 301 300 300 300 300 301 301 302 302 302 303 303 304 303 304 305 305 305 308 311 315 318 317 318
295 294 292 292 293 298 299 298 299 300 300 299 300 299 300 299 299 299 299 299 299 299 299 299 299 298 299 300 300 300 300 300 305 303 305 307 308 308 308 313 315 315 317 317
295 295 292 292 294 296 297 298 299 300 300 298 300 300 299 298 299 298 298 298 298 300 298 298 298 299 300 299 299 300 300 301 304 304 305 308 306 309 310 315 313 313 314 310
295 294 292 292 293 294 297 298 298 298 299 300 298 298 298 298 298 297 297 299 299 298 298 300 301 300 302 302 302 303 302 303 305 306 306 307 309 311 310 313 314 308 308 306
295 294 292 293 293 295 297 297 298 298 298 297 298 297 297 296 298 298 301 300 299 299 297 298 303 302 302 305 305 305 304 303 303 307 308 308 311 307 304 306 314 305 303 301
294 293 292 292 293 295 297 297 297 298 296 297 298 298 300 298 298 297 299 299 299 299 294 293 302 303 303 305 308 305 304 305 306 307 305 309 305 302 304 311 309 301 299 296
294 293 293 292 292 292 297 297 296 297 295 297 298 298 297 297 297 295 297 296 297 296 297 302 296 295 301 303 309 308 306 307 308 308 308 309 300 303 305 305 300 298 296 293
294 293 293 292 291 291 296 297 295 295 294 296 297 297 298 298 298 296 296 297 298 296 294 296 298 302 303 306 307 305 309 308 307 305 304 301 298 298 298 298 298 297 295 293
293 294 293 292 292 293 296 296 296 296 293 295 297 298 298 298 297 297 296 298 300 298 297 293 297 300 302 305 307 305 302 302 306 305 300 298 298 297 296 296 295 293 292 291
294 294 292 293 293 294 294 296 297 297 296 293 299 299 299 298 298 298 297 297 298 298 296 294 295 298 301 304 305 302 300 300 301 303 300 297 296 297 297 295 293 292 292 291
293 292 293 292 291 292 294 296 296 297 297 296 295 297 298 297 298 298 298 297 296 295 295 294 296 297 301 301 302 299 298 298 298 299 297 296 296 295 293 293 294 292 290 289
292 293 292 291 291 293 295 290 297 297 297 292 293 297 299 299 298 299 298 297 295 295 294 294 297 298 301 297 298 297 296 296 296 295 295 293 294 294 292 292 291 290 289 288
293 293 292 292 291 295 294 296 295 296 296 293 294 296 298 299 299 298 298 298 297 295 295 296 297 298 302 298 300 296 294 295 295 295 295 294 293 293 292 291 290 289 288 288
293 292 292 292 292 294 295 295 295 295 294 294 296 295 297 299 296 296 297 297 295 296 295 297 299 299 300 299 297 296 294 294 294 294 293 293 293 292 292 292 289 287 286 285
292 291 291 292 293 293 294 295 295 294 294 295 293 293 292 299 298 296 297 297 293 296 295 299 299 294 297 298 295 293 293 293 294 294 294 293 292 290 289 289 288 286 285 284
291 291 293 291 293 294 294 293 294 293 294 296 296 296 295 298 293 293 295 294 295 298 298 299 294 296 294 294 293 293 293 293 292 295 292 293 289 287 286 285 285 284 282 280
292 291 292 294 293 294 296 295 295 292 297 294 295 295 295 298 293 295 298 299 298 301 301 299 296 298 293 292 291 289 288 289 288 288 287 286 287 285 283 282 280 279 278 277
292 294 293 294 295 296 297 296 295 297 297 295 295 295 296 297 299 297 298 300 298 301 299 299 295 294 291 289 288 286 285 285 285 284 284 284 283 282 280 279 278 277 276 276
293 294 294 296 294 298 293 292 294 292 294 295 294 294 295 296 297 298 300 301 299 301 302 299 294 291 289 287 286 285 284 283 282 281 279 279 279 279 278 276 276 275 274 274
295 297 294 295 293 291 291 294 294 294 293 294 292 293 293 293 295 296 299 295 301 305 301 299 292 290 287 286 284 282 280 279 279 278 278 276 276 276 276 276 275 274 274 274
295 297 295 291 295 296 296 296 297 297 296 292 292 293 295 299 298 298 298 299 300 302 298 292 288 285 282 280 279 277 276 276 277 278 277 277 277 276 275 274 274 273 272 272
294 295 296 294 297 296 295 295 296 296 295 296 297 299 299 297 297 300 301 303 301 296 291 288 285 283 281 279 278 279 280 279 278 278 278 278 277 275 275 274 273 273 273 274
294 294 291 295 297 297 297 294 295 296 297 298 298 300 299 301 299 299 295 298 293 290 288 286 283 282 279 279 280 280 280 280 279 279 279 277 277 275 275 274 274 275 274 274

GFSNW_925_thetae_090.txt.gz
Theta_e
298 297 296 295 295 293 294 297 301 300 299 304 305 302 302 301 301 302 301 301 302 303 303 302 302 302 303 303 303 304 305 307 308 304 304 304 306 313 317 319 318 316 316 316
297 294 295 295 294 294 297 299 298 298 302 302 301 301 301 301 302 302 302 302 303 302 302 301 303 301 302 303 302 303 303 303 304 299 302 307 308 307 308 312 315 317 320 317
296 294 294 293 294 293 296 299 298 297 298 300 301 301 301 301 301 301 302 303 303 302 302 301 301 302 303 302 303 306 303 303 303 303 303 304 304 303 304 309 314 315 315 319
294 293 293 293 293 293 297 297 300 301 300 300 300 301 302 302 301 301 301 301 302 301 302 300 300 301 301 301 302 302 302 303 303 303 303 303 304 304 304 305 307 313 316 317
295 294 293 293 292 296 298 298 300 299 299 300 300 300 299 301 300 301 301 300 301 299 299 299 300 299 300 300 301 300 300 301 301 299 300 302 303 304 304 305 305 309 311 318
295 294 293 292 296 298 297 297 297 299 298 298 299 298 300 300 299 299 298 298 298 298 299 298 297 297 298 298 299 298 298 297 300 299 302 303 304 306 305 305 310 314 316 316
295 294 292 293 296 297 297 297 297 297 297 297 299 300 299 299 298 297 297 297 297 299 297 297 297 297 298 298 298 298 297 298 300 303 303 305 306 308 309 312 311 311 310 310
295 293 293 293 296 297 297 298 297 296 297 299 298 298 297 296 297 296 297 300 298 297 297 299 300 300 300 301 300 300 299 300 303 303 305 304 305 310 307 306 308 304 305 306
295 293 293 293 296 297 296 297 298 296 295 296 298 296 296 295 296 297 299 299 297 298 295 296 302 300 301 304 303 303 302 301 302 305 306 304 306 302 303 304 309 303 300 299
295 293 293 293 295 297 296 296 297 296 292 296 297 297 296 296 294 295 297 298 297 295 290 291 299 301 302 305 304 306 303 304 304 304 305 306 301 301 301 310 305 298 295 294
294 293 292 292 293 296 296 295 296 296 292 295 297 297 296 295 294 293 294 294 294 294 296 297 292 293 299 303 304 306 307 307 307 307 307 307 298 300 302 302 298 295 293 292
293 292 292 291 291 296 296 295 295 296 292 294 296 296 297 297 296 294 293 294 296 293 292 293 294 297 299 303 307 304 305 302 304 303 301 300 297 298 297 297 297 295 293 291
294 292 292 291 291 294 296 296 296 296 290 292 295 297 298 297 297 297 294 296 298 296 292 290 293 296 299 302 305 303 300 300 303 301 298 297 298 297 295 294 292 291 290 288
294 294 292 293 293 294 296 296 297 297 292 292 298 298 298 298 297 297 297 296 296 295 293 291 291 295 298 300 303 299 298 298 299 299 297 296 295 294 295 292 291 290 290 289
294 292 293 293 293 294 295 295 295 297 294 293 292 295 297 298 298 298 297 296 294 293 293 290 293 295 298 298 298 298 297 296 298 295 295 294 294 293 292 293 291 289 288 287
293 293 292 291 291 293 293 288 296 296 296 289 291 294 296 297 298 297 296 295 293 292 292 291 294 296 297 297 296 296 296 295 295 292 293 293 293 291 291 290 289 287 286 285
293 292 291 291 294 294 294 291 295 295 295 287 288 294 295 297 297 295 296 297 295 294 293 294 294 295 300 296 299 296 294 295 294 296 293 293 293 292 291 290 288 287 287 286
293 292 292 291 294 294 294 294 295 295 293 293 289 293 294 297 294 296 294 295 295 294 293 293 296 297 299 298 296 295 294 293 294 293 293 293 292 292 290 287 286 285 285 284
292 291 291 291 292 292 294 295 294 294 292 294 292 290 289 294 295 293 295 295 291 293 292 295 297 294 297 295 296 294 293 294 293 295 293 291 289 289 289 286 285 284 283 282
291 290 291 290 292 294 293 293 292 293 294 293 294 293 293 294 287 289 292 290 293 295 295 295 293 295 294 293 293 293 293 291 293 294 292 289 288 286 285 284 283 282 281 280
291 290 291 293 293 293 294 293 292 292 294 292 292 292 293 294 291 292 295 299 299 301 299 300 297 297 293 290 288 287 289 288 288 287 286 287 285 283 282 281 279 279 278 277
290 292 293 294 294 294 294 293 292 294 296 292 292 293 293 294 296 292 297 299 298 301 298 298 293 291 289 288 286 285 284 283 282 283 283 282 281 280 279 278 276 275 275 275
293 294 293 294 294 295 292 289 292 289 291 291 290 297 293 294 293 291 299 301 299 298 295 296 290 289 287 286 284 283 282 281 280 279 279 278 277 277 276 274 274 274 274 273
291 294 294 293 288 286 287 289 288 289 288 290 288 289 291 288 292 290 299 294 300 298 297 295 288 288 286 284 283 282 278 277 277 276 276 275 275 274 275 275 275 274 274 274
294 295 291 288 290 293 294 295 296 292 295 288 289 290 292 292 294 297 297 299 300 299 296 288 285 284 281 279 277 275 273 273 273 275 274 275 275 274 274 274 273 273 273 272
292 294 295 294 295 294 294 295 296 294 294 293 294 297 297 298 295 300 299 302 300 289 285 286 284 281 276 275 275 275 276 276 276 277 276 275 275 274 274 273 273 272 273 274
294 292 289 293 294 295 292 294 295 294 296 296 297 299 297 298 296 298 295 296 284 286 285 284 281 278 275 275 277 277 277 277 277 278 277 277 275 274 274 274 273 274 274 274

GFSNW_925_thetae_093.txt.gz
Theta_e
298 298 297 296 295 295 296 297 300 300 299 304 304 305 303 301 301 302 302 303 303 303 302 302 302 302 303 303 302 303 303 304 306 302 302 302 303 312 312 314 315 312 316 314
298 297 297 295 294 294 297 298 295 299 300 304 301 300 301 302 302 302 302 302 303 302 302 302 302 302 302 302 303 301 301 302 301 298 301 303 304 303 304 306 309 312 315 314
297 297 296 294 294 294 296 297 295 295 298 300 301 301 301 301 301 301 302 303 302 301 302 301 301 302 302 301 303 306 302 302 302 301 300 302 303 303 303 304 304 307 309 309
297 296 293 293 293 294 297 297 298 299 299 300 300 300 302 302 301 300 301 301 302 301 302 300 300 300 300 300 302 302 301 302 302 302 302 300 299 300 301 303 303 305 304 308
295 294 293 293 293 296 298 298 298 298 299 300 299 299 301 302 301 302 301 301 299 298 299 299 299 299 298 299 299 299 298 301 299 300 297 297 300 301 302 302 303 303 303 304
295 294 293 293 296 298 296 297 296 297 298 298 298 298 300 300 299 299 298 298 298 298 298 297 297 297 297 297 299 298 298 296 298 299 300 301 301 303 308 303 302 305 305 309
295 293 293 295 297 297 297 297 296 296 297 297 299 300 299 298 298 297 296 296 297 298 297 296 297 296 296 296 297 296 297 297 296 300 300 302 303 305 305 308 308 308 311 307
295 293 293 295 297 297 297 297 296 297 296 297 298 298 298 296 296 296 299 299 297 296 297 298 300 299 300 300 299 298 297 298 297 298 301 302 303 305 304 305 307 303 306 303
293 293 293 295 297 296 297 296 298 295 296 296 297 296 296 295 295 297 298 297 296 295 293 295 301 300 301 303 303 302 299 299 300 304 299 302 301 300 301 303 307 299 299 298
293 293 293 294 296 296 296 295 297 294 293 296 296 296 296 295 294 295 296 297 297 293 289 290 293 300 300 304 300 306 303 302 302 302 303 303 298 299 300 307 303 296 294 294
293 292 293 293 296 295 295 295 296 296 292 295 296 297 295 295 294 293 293 293 292 292 295 295 290 291 299 299 298 305 305 304 305 304 306 306 297 299 300 300 296 294 292 292
293 292 292 291 296 296 294 295 296 295 293 295 295 296 297 296 295 292 292 293 294 292 292 292 293 295 295 298 302 302 303 301 302 300 300 299 296 296 295 296 295 293 292 290
293 292 291 291 295 296 296 296 296 296 291 294 294 296 296 296 296 296 295 295 296 295 291 289 291 295 296 296 299 298 299 299 301 300 297 296 296 294 293 292 291 289 289 287
293 292 291 291 295 296 296 296 297 296 291 293 296 296 297 297 296 296 297 296 295 293 292 289 289 294 296 297 300 296 297 297 298 298 297 295 294 294 292 290 290 289 288 287
294 292 293 293 294 295 295 295 296 296 293 293 293 294 296 297 297 297 296 295 292 292 292 290 292 294 295 299 294 294 297 297 297 295 295 294 293 292 292 290 289 288 286 285
292 293 292 292 293 293 293 289 295 296 295 288 292 292 295 296 297 296 295 293 291 291 291 290 293 293 294 295 293 295 296 295 295 293 293 293 292 291 290 288 287 286 285 284
293 292 291 293 293 294 292 290 295 295 294 285 288 294 294 296 296 296 295 297 293 294 292 293 293 294 297 292 295 295 295 295 294 294 292 292 292 291 290 288 287 286 285 283
292 291 293 294 294 294 294 294 294 294 292 288 288 292 294 296 294 297 293 295 293 293 292 292 295 295 298 296 293 294 293 293 293 294 293 291 291 288 287 285 285 284 283 282
291 291 291 290 291 291 294 293 293 293 292 289 289 291 290 292 293 292 293 292 291 292 291 294 294 292 299 295 293 295 294 293 290 293 292 290 291 289 286 284 284 283 282 281
290 290 289 283 292 293 293 292 289 290 292 294 291 291 291 292 286 288 290 289 294 293 294 292 291 294 293 293 293 293 292 291 293 290 289 288 287 286 285 284 282 282 281 280
289 286 291 292 293 293 293 291 291 292 294 292 292 291 292 293 290 291 291 296 295 299 295 296 297 296 292 289 290 289 288 287 286 287 287 287 285 284 282 281 280 279 278 277
289 292 292 293 293 294 293 293 292 293 294 291 291 292 291 293 293 290 293 300 299 301 299 300 294 288 288 288 286 284 284 284 284 284 284 283 282 281 279 278 277 275 275 275
293 293 293 293 294 293 291 291 293 288 290 289 289 290 289 292 291 290 294 301 299 296 298 293 288 288 287 285 284 283 282 281 281 280 279 279 278 278 277 274 274 274 274 274
290 293 293 291 290 289 286 288 286 288 286 288 286 288 290 287 291 291 296 290 297 295 296 294 286 287 285 284 283 282 278 277 276 275 276 275 274 274 275 275 274 274 273 273
292 294 290 290 290 290 294 294 294 292 292 286 288 290 289 289 289 296 296 299 299 300 297 285 286 285 282 279 277 275 273 272 272 274 273 273 274 274 274 274 274 274 274 273
291 293 293 293 294 294 294 294 295 294 294 292 289 293 290 294 296 298 298 300 298 294 283 278 281 279 276 275 274 273 274 274 274 275 274 274 274 274 273 272 272 272 272 274
291 292 289 292 292 294 292 293 294 293 295 296 296 297 295 295 297 297 296 296 283 287 281 279 278 278 274 272 274 274 275 275 275 276 275 275 274 273 273 273 273 273 274 274

GFSNW_925_thetae_096.txt.gz
Theta_e
299 298 297 296 296 297 296 296 298 301 300 302 302 303 305 302 302 302 303 304 304 304 303 303 303 303 303 302 302 303 302 305 304 301 301 303 303 311 309 310 313 310 313 312
298 298 297 296 296 296 296 296 297 299 299 303 304 302 302 302 303 302 303 303 303 303 302 302 303 303 302 303 302 301 300 301 299 297 301 300 303 302 304 304 305 306 308 309
298 297 297 297 296 295 296 295 294 296 298 300 301 300 302 302 302 302 302 303 302 302 302 301 302 302 301 301 304 304 302 301 299 297 298 302 303 302 301 301 294 298 301 302
297 297 297 296 294 294 296 296 294 296 296 299 299 300 302 302 301 301 301 301 302 301 300 300 300 299 299 300 301 300 300 301 302 301 301 300 300 298 296 299 300 300 298 300
297 296 296 294 293 295 296 295 298 297 298 300 300 300 301 302 300 301 300 300 299 299 299 299 299 298 298 298 298 298 297 300 299 300 299 297 297 298 298 300 300 301 301 301
296 295 293 293 294 296 296 296 296 297 297 297 298 299 301 299 299 298 299 299 298 298 298 297 297 296 297 297 298 298 297 296 297 297 299 298 297 300 306 305 306 307 303 302
295 294 293 295 297 297 297 296 296 296 298 297 299 300 299 298 298 297 296 297 298 298 296 296 296 295 295 296 296 296 297 296 295 298 298 295 302 304 304 304 305 302 305 307
295 293 294 296 297 297 297 297 296 296 296 297 298 298 297 296 297 298 299 298 297 295 297 298 299 299 299 299 297 296 296 297 296 295 299 299 302 302 301 303 303 300 301 301
293 293 294 296 296 296 297 297 297 294 296 296 297 296 296 295 297 297 297 296 294 294 293 295 300 300 301 302 302 298 296 298 299 301 298 298 299 299 299 301 304 297 296 298
293 293 294 296 296 296 296 295 296 294 293 295 296 296 296 295 295 296 295 296 296 293 289 291 291 299 299 302 299 304 300 301 300 300 300 299 297 297 298 305 300 295 294 294
293 293 293 296 295 295 296 295 295 295 293 295 295 296 295 295 294 294 293 292 292 292 294 294 289 290 296 297 291 303 303 302 303 302 302 301 295 297 297 297 295 294 292 291
293 292 292 295 296 295 295 296 295 296 293 294 295 295 295 295 294 292 292 292 294 291 291 292 292 295 290 294 300 298 298 297 299 300 297 297 295 295 293 293 293 292 290 288
292 292 292 295 295 295 295 296 296 296 292 294 295 295 296 296 296 296 295 294 294 293 289 288 291 294 295 294 298 297 298 298 299 299 297 295 295 293 292 290 289 288 287 286
292 291 293 296 296 295 296 296 296 295 292 294 296 296 296 296 296 297 296 294 293 291 290 289 288 295 295 295 299 296 296 296 297 297 295 294 293 292 291 289 288 286 285 285
292 292 293 295 295 295 295 295 295 295 293 295 295 294 295 296 296 295 295 294 291 291 292 289 292 294 294 299 294 295 296 295 295 293 294 294 293 292 291 289 288 287 285 284
293 294 294 294 294 293 293 290 295 295 294 291 293 291 294 296 296 295 294 292 290 290 291 290 292 292 293 292 294 295 295 295 294 290 292 291 291 289 288 287 286 285 284 283
293 292 292 292 292 293 291 291 294 294 293 287 290 295 293 295 296 296 294 295 291 292 292 292 292 293 295 293 295 295 296 294 294 292 291 291 291 289 288 287 285 284 283 282
292 294 294 294 294 294 294 293 293 293 291 286 289 292 294 295 293 298 291 296 293 292 291 292 294 294 295 298 293 294 294 293 293 293 291 290 288 287 286 285 284 284 283 281
293 293 293 292 292 291 293 293 293 293 292 289 289 292 290 291 292 295 293 292 292 292 290 293 293 289 296 293 294 294 291 290 293 292 291 290 288 286 285 284 284 283 282 281
291 289 288 286 292 293 292 292 287 287 288 290 289 290 292 291 285 287 289 289 292 293 292 291 294 290 293 293 292 292 293 292 290 289 289 289 288 286 285 284 282 282 281 279
289 287 291 292 293 293 292 289 288 291 291 290 290 291 292 292 290 290 290 292 293 296 293 294 295 294 292 291 290 288 287 287 289 287 287 287 286 285 283 281 280 279 278 277
290 291 292 293 293 293 293 292 292 292 294 290 291 291 290 291 292 290 291 299 298 299 293 297 297 288 288 288 287 285 285 285 285 285 284 284 283 281 279 278 276 275 275 274
292 292 293 294 292 292 291 291 293 288 289 288 289 289 288 291 290 288 293 296 300 296 299 296 289 287 287 285 284 283 282 282 281 280 279 279 278 278 277 274 274 274 274 274
289 292 292 289 291 289 285 287 285 290 288 287 285 288 288 290 289 290 295 288 295 296 297 292 284 287 285 284 283 282 279 278 277 275 275 274 274 273 274 274 274 274 273 272
292 293 288 291 289 289 292 292 293 293 291 286 289 289 288 288 287 293 293 295 295 296 290 284 280 283 282 280 277 275 273 271 271 273 272 272 273 273 273 273 273 273 273 272
289 291 292 291 293 293 293 293 294 294 294 288 288 290 286 289 293 296 296 297 293 292 284 277 286 280 276 275 274 273 273 273 272 273 273 273 274 273 273 272 272 272 272 273
290 291 285 288 288 291 292 292 293 293 295 293 296 295 292 293 296 298 296 296 288 280 283 275 275 278 273 272 273 273 274 273 274 274 274 274 273 273 273 272 272 273 274 274

GFSNW_925_thetae_099.txt.gz
Theta_e
300 299 298 297 298 297 296 296 299 299 299 301 302 302 302 302 302 303 304 305 305 303 303 303 305 304 303 303 302 303 303 304 302 302 302 302 305 310 310 309 311 311 313 314
300 298 297 297 298 296 296 299 300 299 299 301 301 302 301 302 303 304 306 305 304 302 302 302 302 301 301 303 302 302 301 301 299 301 303 302 303 303 302 303 305 305 310 310
299 298 297 297 297 296 296 294 299 297 299 299 302 302 302 302 301 302 304 305 303 302 301 301 302 300 300 302 305 304 302 301 299 299 302 302 302 302 301 301 305 303 304 302
299 298 297 297 297 296 296 296 296 297 298 299 300 300 303 302 302 301 301 302 302 302 301 300 300 299 299 300 301 300 302 301 302 301 301 301 301 300 299 298 298 299 296 298
297 297 297 296 296 297 296 296 299 297 298 299 299 300 302 301 300 301 301 301 300 300 299 300 299 299 299 299 299 299 299 303 300 300 300 300 299 299 297 298 298 300 302 304
297 296 296 296 296 296 297 295 295 298 298 298 299 300 302 300 299 298 300 299 299 299 298 298 298 297 298 298 299 299 299 300 298 296 299 298 297 299 298 303 304 305 305 305
296 296 295 294 295 297 298 296 296 298 299 298 299 300 299 299 298 298 297 298 299 298 296 297 297 297 296 297 297 297 298 298 298 297 298 295 303 302 303 302 303 302 302 304
296 295 293 295 297 297 297 296 296 297 299 298 298 299 299 299 299 299 299 298 297 296 298 299 299 300 300 299 299 298 298 299 299 299 300 299 303 301 300 301 302 297 297 300
295 293 294 297 297 296 296 297 297 295 299 297 297 297 298 298 298 298 298 297 295 296 297 299 300 301 301 302 302 297 297 299 299 301 301 301 299 298 298 299 303 295 294 295
293 293 295 296 296 296 296 296 296 295 297 296 296 297 298 296 297 297 296 297 297 295 296 297 299 300 300 302 302 303 300 299 300 301 302 302 297 296 297 303 299 294 292 292
293 294 295 296 295 295 295 295 295 295 296 295 296 296 296 296 296 298 295 295 295 296 297 297 296 299 300 300 295 303 303 302 301 301 302 302 295 296 297 295 294 292 291 290
293 293 294 296 295 295 295 295 295 295 295 295 294 294 294 294 294 294 293 294 295 295 296 296 296 299 298 298 303 299 301 299 301 300 299 296 294 293 292 292 291 291 289 287
292 292 295 295 295 294 295 296 295 295 295 295 295 296 295 295 295 296 298 296 295 295 292 294 297 299 298 301 300 299 299 298 299 298 296 295 294 292 291 290 289 287 286 286
292 294 296 295 295 295 296 296 295 295 294 297 297 295 295 295 296 296 295 294 293 293 293 295 296 298 297 300 299 298 296 297 298 297 295 294 293 292 290 289 287 286 285 285
291 295 295 295 295 295 295 295 294 294 295 298 297 293 294 295 295 295 294 293 294 294 296 296 297 296 299 299 296 297 295 295 298 297 295 294 293 291 290 289 287 286 285 284
294 294 295 295 294 293 293 293 295 294 294 295 297 291 294 295 295 294 294 293 293 293 294 294 294 294 297 298 298 295 295 295 294 294 293 292 290 289 288 286 285 284 283 283
293 293 293 293 293 294 293 293 293 293 293 293 295 296 293 294 296 296 296 293 293 294 294 295 294 295 297 297 299 295 296 293 292 291 291 291 290 288 287 286 284 283 282 282
293 293 294 294 294 294 293 292 293 293 291 291 295 295 297 294 295 298 293 296 295 294 294 294 296 296 298 298 294 296 295 294 293 292 291 291 289 287 286 285 284 283 282 281
293 292 292 292 293 293 293 292 292 293 292 293 293 296 296 293 294 296 295 294 296 294 296 296 295 295 298 296 295 294 293 293 294 291 290 289 288 287 286 285 284 283 282 281
291 289 289 289 293 293 292 291 289 290 290 291 293 291 298 294 291 294 296 293 297 297 295 294 296 297 294 294 294 293 292 293 292 291 291 290 288 287 285 285 283 282 281 279
290 290 292 292 293 292 291 290 291 291 293 292 292 293 297 294 296 297 293 297 296 297 297 296 296 297 294 293 292 291 292 292 290 289 290 290 288 286 284 282 281 280 279 277
291 291 292 292 292 291 291 292 292 293 294 292 293 293 294 294 293 296 294 298 298 299 295 297 299 292 291 289 288 287 287 288 288 287 287 286 285 283 281 279 278 276 275 274
292 292 292 292 291 289 287 291 294 293 292 292 293 294 292 294 293 294 296 295 300 297 300 299 294 290 288 287 286 285 284 283 283 282 281 280 279 278 277 275 274 274 273 273
291 292 291 286 290 288 288 290 290 291 292 291 290 292 294 292 294 293 295 293 295 297 298 298 290 288 286 285 284 283 282 280 280 278 276 275 273 272 274 274 274 274 273 272
291 291 290 290 290 289 292 292 294 294 291 290 292 292 292 292 292 294 295 295 296 298 298 293 287 286 284 283 281 279 276 275 274 274 272 271 272 272 270 272 273 273 272 272
290 290 291 290 292 294 294 295 295 294 294 290 291 292 291 293 294 296 296 298 297 297 291 285 284 283 281 279 278 276 274 274 272 273 272 272 272 273 272 273 273 272 272 273
290 289 285 288 287 291 292 293 295 293 295 296 295 291 293 294 296 296 297 296 294 286 285 283 282 282 278 275 275 274 273 273 272 272 272 273 273 272 272 272 272 273 273 273

GFSNW_925_thetae_102.txt.gz
Theta_e
300 300 300 300 299 297 298 301 303 299 299 303 305 305 303 302 303 303 305 307 307 307 306 310 308 307 306 305 305 306 305 305 305 305 306 304 304 308 309 311 310 313 316 314
300 300 299 299 298 297 298 302 300 298 299 306 305 303 303 303 303 304 306 306 306 304 306 305 309 307 304 304 304 304 303 304 306 305 305 304 305 306 305 306 306 308 310 310
300 299 299 298 298 296 299 301 302 301 301 302 304 303 303 303 303 304 305 306 305 304 304 304 305 304 302 305 305 304 302 302 302 303 305 305 305 304 303 304 308 305 305 304
300 299 297 297 299 296 298 300 302 301 303 303 303 303 303 304 303 304 303 305 306 308 304 303 303 302 303 302 302 303 303 301 301 301 301 301 302 302 301 301 301 301 300 299
299 299 298 297 297 297 298 303 301 300 300 301 303 303 303 303 303 304 303 305 303 304 305 303 302 301 302 302 301 302 301 303 301 300 300 300 300 300 300 300 300 299 300 302
299 298 297 297 297 296 299 300 300 301 301 301 303 303 303 303 302 302 303 303 302 302 300 300 300 300 300 301 301 300 300 302 300 297 298 298 298 300 300 300 301 304 306 306
298 297 297 297 297 296 300 299 300 303 303 300 303 302 303 302 302 302 300 300 301 299 299 300 299 299 299 299 299 299 299 299 299 298 299 302 305 304 304 304 304 304 303 302
297 296 296 296 296 297 298 299 300 302 303 300 302 302 302 301 301 301 300 300 299 300 300 301 301 302 302 302 301 298 299 300 303 305 304 302 304 302 302 303 304 298 299 299
296 296 294 296 295 296 298 298 298 300 303 301 300 301 301 301 301 301 300 299 299 300 301 302 301 301 302 304 303 302 300 300 303 303 305 304 305 300 299 300 304 296 295 296
295 294 293 296 297 298 298 297 297 299 303 299 299 301 301 301 300 301 300 300 300 300 303 304 304 303 302 305 305 304 303 302 303 304 305 305 299 299 298 304 302 294 293 293
294 294 296 296 297 296 296 297 296 299 300 299 299 298 300 300 300 301 300 300 299 300 302 302 302 304 304 304 303 305 304 304 304 303 305 307 297 299 302 297 295 293 292 291
294 295 296 296 295 295 295 297 295 296 300 298 296 295 295 297 298 299 298 299 299 299 300 300 302 304 304 304 305 302 305 303 305 303 302 297 295 294 293 293 294 292 290 289
294 294 296 295 295 295 295 297 296 298 299 299 299 298 297 296 296 297 299 299 298 299 298 302 302 304 304 305 304 302 300 301 302 301 298 296 294 292 292 291 290 289 288 288
293 295 295 295 294 294 296 297 295 298 299 300 298 296 296 296 297 297 299 298 298 298 299 300 302 303 302 303 303 303 301 301 300 299 297 295 294 293 291 289 289 288 287 286
295 295 295 295 295 296 296 295 295 295 300 300 298 297 296 296 297 297 298 298 298 298 298 300 300 301 303 302 302 301 298 299 301 303 298 297 294 292 290 289 288 287 286 286
295 295 294 294 293 294 295 300 296 294 297 300 300 296 298 297 298 298 299 299 299 299 299 298 297 299 302 303 303 297 296 296 297 296 295 294 292 290 289 288 287 286 286 285
295 294 294 294 294 294 298 298 295 293 295 302 299 298 298 297 299 299 300 299 299 299 299 298 297 299 301 302 303 297 296 296 295 294 293 292 291 290 288 287 286 286 285 284
293 293 293 294 293 294 295 294 293 293 297 300 300 299 299 298 299 300 300 299 299 299 299 299 298 300 300 301 298 297 295 295 294 294 294 293 290 289 288 286 286 286 285 284
294 293 293 293 294 296 295 292 292 293 297 300 299 300 301 298 299 300 300 300 300 298 300 299 299 300 300 300 298 296 295 295 294 293 293 292 290 289 288 288 287 286 285 284
289 290 293 296 294 292 292 294 297 297 296 297 299 298 300 300 300 300 300 299 300 300 299 299 299 299 298 297 297 297 296 295 294 293 292 291 291 290 289 288 287 286 284 283
293 294 294 294 293 294 295 296 297 296 297 297 298 299 300 298 301 301 299 299 299 299 300 299 299 299 296 296 296 296 295 294 294 294 293 292 291 289 288 286 284 283 282 281
293 293 293 294 295 295 295 295 295 297 297 297 300 300 300 300 299 300 299 299 299 301 299 299 300 297 295 295 294 294 293 293 292 292 292 291 289 287 285 284 282 280 278 275
293 294 294 294 294 295 295 295 297 298 298 297 299 300 300 300 300 300 299 299 302 299 301 301 300 294 292 291 291 290 290 289 289 288 287 286 285 283 282 280 277 276 275 274
294 293 293 294 295 295 295 297 298 296 296 298 299 297 301 298 300 298 298 299 297 300 302 303 297 293 291 290 289 289 287 286 285 284 282 280 277 276 276 276 275 274 273 273
294 294 294 295 294 294 295 296 297 294 295 299 300 299 300 299 298 297 296 298 300 302 303 301 295 291 289 288 287 285 283 282 281 279 277 275 274 274 274 273 274 273 272 272
294 294 295 295 298 298 299 299 298 297 297 297 299 299 299 299 299 297 299 300 301 303 299 294 290 288 288 286 284 282 281 280 278 277 276 275 274 275 274 273 272 272 273 273
294 295 293 295 297 297 296 298 297 297 299 299 297 297 298 298 297 298 299 302 301 295 291 290 290 288 286 283 280 278 278 278 277 277 277 276 275 273 274 275 273 274 274 274

GFSNW_925_thetae_105.txt.gz
Theta_e
304 302 301 301 299 296 298 303 308 298 300 303 305 309 308 304 307 306 307 308 310 310 311 310 314 313 310 307 307 310 311 311 313 310 308 307 308 310 312 318 315 317 315 317
299 301 301 300 300 297 302 305 302 298 300 308 307 306 307 305 306 306 307 308 308 308 310 310 314 310 307 308 309 310 308 310 310 309 308 307 307 308 309 309 310 309 312 314
301 300 300 300 300 299 299 303 306 300 299 303 307 306 306 306 305 306 307 309 308 308 309 308 312 311 308 306 306 304 305 307 309 309 308 308 307 306 306 307 311 308 307 306
298 301 300 299 298 298 298 304 306 304 305 305 306 307 306 306 306 305 306 309 308 309 309 308 309 308 306 305 304 304 305 306 305 303 303 303 305 305 305 304 304 304 303 302
296 301 300 299 299 298 298 305 304 304 304 304 304 306 307 306 306 305 307 307 307 309 309 307 306 306 306 304 303 304 303 305 304 303 302 302 301 301 301 302 302 302 302 301
298 300 299 298 298 298 298 301 303 304 304 305 306 307 305 306 306 305 306 306 306 308 306 304 305 304 304 304 304 304 303 305 302 301 300 300 300 302 302 301 301 302 304 307
297 300 298 296 297 297 300 302 303 304 305 304 304 304 305 305 306 305 304 305 304 303 302 302 302 302 302 302 302 302 301 302 301 301 301 300 306 305 305 306 305 306 305 304
299 299 297 297 296 297 299 300 302 304 307 302 304 305 304 305 304 306 303 303 303 302 302 302 302 301 301 301 300 299 300 301 304 306 304 305 305 304 304 304 306 300 301 301
300 298 297 297 296 297 298 299 301 303 306 303 304 304 304 305 304 303 303 302 302 302 302 303 302 303 302 304 303 302 301 303 306 305 307 305 308 302 302 302 306 298 297 298
297 296 296 296 295 296 297 298 300 301 306 302 303 304 304 304 304 304 303 302 302 302 304 306 305 304 303 305 305 305 304 304 306 306 306 306 302 301 301 306 303 296 294 294
296 295 295 295 294 296 298 298 299 301 303 301 302 302 302 303 303 304 303 302 301 301 303 304 304 306 305 306 307 306 305 305 305 305 307 309 300 301 302 298 296 294 293 293
295 294 294 295 296 297 297 300 298 298 302 301 299 299 299 300 301 302 302 303 301 303 304 303 304 306 306 306 306 305 307 306 309 305 305 297 297 295 294 295 295 293 292 291
293 295 296 296 297 297 297 299 298 299 302 301 301 300 299 299 300 301 301 301 301 301 304 306 305 307 306 307 307 304 303 303 304 303 299 297 295 294 293 293 292 291 291 289
295 296 296 295 295 295 296 299 299 300 301 302 300 298 299 299 299 300 301 301 301 301 303 305 306 305 305 307 306 307 304 303 302 300 297 297 295 294 292 291 290 289 289 288
294 295 295 295 295 295 298 298 298 299 302 301 299 298 298 298 299 299 299 300 300 300 301 304 304 304 304 304 304 304 302 304 303 306 300 300 296 293 292 291 290 289 289 288
295 296 295 295 296 297 299 305 298 298 299 300 301 299 300 299 300 300 301 301 301 301 301 301 301 303 304 306 305 300 299 299 300 299 298 296 293 292 291 290 289 289 289 288
295 294 294 293 294 298 301 301 298 296 300 303 300 299 299 299 300 301 301 301 301 302 301 300 300 301 303 304 305 299 298 297 297 296 295 293 293 292 291 290 289 288 287 287
294 294 294 294 296 297 298 295 294 298 302 302 301 301 300 300 300 302 301 301 301 301 302 301 301 301 302 303 301 298 297 296 295 295 296 295 293 291 290 289 288 288 288 287
294 293 294 296 297 299 296 293 295 298 301 302 301 301 302 300 301 301 301 301 302 300 302 301 300 303 302 302 299 297 297 296 295 295 295 293 292 291 290 290 289 289 288 286
291 294 297 300 297 293 295 298 301 300 299 301 302 302 301 301 302 301 302 301 301 302 301 300 301 301 300 300 299 297 296 296 295 294 294 293 292 291 291 290 290 289 287 286
294 297 297 296 293 297 298 300 299 299 299 300 301 301 302 301 302 302 301 301 301 301 303 301 301 300 300 298 298 297 296 295 295 295 294 294 293 292 291 289 288 286 286 285
295 296 296 296 297 297 299 298 298 298 298 300 302 302 301 301 301 301 300 300 301 302 302 301 300 300 297 297 297 295 295 295 294 294 294 293 292 290 289 287 286 284 282 278
296 296 296 297 296 299 299 298 299 301 300 300 301 303 301 301 301 301 300 301 303 301 302 302 302 297 296 296 296 293 293 293 293 294 292 291 289 288 286 284 281 279 278 278
296 296 296 298 298 298 299 301 302 298 300 302 303 300 302 301 301 300 300 301 300 301 303 304 301 295 294 294 294 293 292 291 291 289 288 286 284 282 281 280 279 277 276 275
296 297 297 297 296 298 297 298 297 297 300 301 302 301 302 300 299 299 299 299 301 302 305 301 298 294 292 291 291 289 288 287 287 284 282 281 279 279 278 277 278 276 275 275
296 296 297 298 299 298 299 299 298 298 300 301 301 301 301 300 300 299 300 302 303 304 299 295 293 292 290 290 288 287 285 284 283 281 280 279 278 278 278 277 275 274 275 274
296 297 296 300 300 299 297 300 300 300 301 301 299 300 300 299 300 300 300 303 301 296 293 292 291 290 289 287 285 283 283 283 282 281 280 278 279 276 276 276 275 276 276 276

GFSNW_925_thetae_108.txt.gz
Theta_e
299 299 301 304 303 302 300 303 305 299 301 302 303 309 312 311 313 309 308 309 311 312 313 313 312 315 314 313 315 316 314 312 314 313 311 309 311 312 316 322 322 320 320 320
299 299 298 302 303 301 300 304 301 299 301 306 307 307 309 310 309 309 308 308 309 311 312 312 312 314 310 309 309 310 312 313 312 314 312 309 309 311 311 311 312 311 311 312
299 299 299 299 302 300 300 302 304 299 298 301 307 307 309 311 307 307 308 308 310 309 310 309 312 314 310 308 309 306 307 310 311 314 312 310 310 308 308 308 312 310 309 311
298 298 299 299 301 297 299 300 305 303 302 302 305 309 307 309 308 307 307 309 310 309 309 309 311 312 310 308 305 306 307 309 309 308 305 305 307 306 306 305 306 308 306 304
297 297 299 299 301 299 298 303 306 305 306 304 305 308 310 308 307 307 306 309 309 309 310 309 309 312 309 308 305 306 307 309 308 307 305 304 303 302 303 304 304 303 302 303
298 299 298 297 300 300 297 301 303 306 306 307 307 308 308 309 307 308 306 308 308 309 309 308 307 307 307 306 305 307 306 307 305 305 304 301 301 303 302 303 303 304 304 307
298 299 298 298 300 299 299 302 304 306 307 306 307 306 306 307 307 309 308 308 308 307 305 303 304 305 304 305 305 305 305 305 304 303 302 300 307 305 305 305 307 305 305 304
298 298 299 301 299 299 299 300 302 305 308 306 305 306 306 306 308 307 306 305 306 303 303 303 302 302 301 302 302 302 302 303 303 303 303 307 305 305 304 304 305 301 302 301
298 298 296 298 299 299 298 299 299 302 304 307 305 306 306 309 307 306 305 303 303 303 306 305 304 304 302 303 303 300 301 302 307 306 306 306 307 303 303 303 305 298 297 297
297 298 300 298 297 298 298 298 300 302 303 304 305 306 307 306 306 305 304 303 303 303 307 307 306 306 303 305 304 303 303 305 306 306 306 306 303 302 302 306 302 296 294 294
299 300 298 297 297 298 297 298 299 301 301 303 303 304 305 306 305 306 304 303 303 303 305 304 306 308 304 308 308 304 304 304 305 306 307 308 300 302 304 299 296 294 292 293
298 298 297 297 296 297 297 298 299 300 301 301 300 300 300 301 303 305 305 304 304 305 304 303 304 307 308 308 308 306 309 307 309 305 304 298 297 296 295 297 295 293 291 290
296 296 296 295 294 295 297 297 300 300 302 302 301 301 299 300 301 303 303 302 303 303 306 310 307 307 306 308 308 306 304 304 304 303 299 296 295 294 294 294 292 291 291 289
295 295 294 295 295 296 297 297 300 301 302 302 300 299 300 300 300 301 303 303 302 303 305 308 308 307 307 308 307 307 304 304 303 301 298 296 295 294 292 291 290 290 289 289
296 296 296 296 297 297 297 297 300 300 302 302 300 300 299 300 300 300 300 301 304 304 303 307 307 305 306 306 307 305 304 305 304 307 300 300 296 293 292 291 290 290 289 289
296 296 296 296 296 295 298 302 299 300 300 301 301 300 300 300 301 301 302 302 303 302 303 303 304 305 305 307 307 302 302 302 302 301 300 296 294 293 292 291 291 290 290 289
295 295 295 295 295 298 299 301 299 299 301 306 301 300 300 300 301 302 302 302 302 303 301 301 302 303 303 306 306 301 300 299 299 297 295 293 293 292 292 291 290 289 289 288
294 293 295 296 297 297 298 295 296 301 303 304 303 302 300 300 301 302 302 302 302 303 303 301 301 302 302 305 302 300 297 297 296 296 297 295 294 292 291 290 289 289 288 288
294 295 296 297 298 299 297 294 296 300 302 303 302 301 302 302 302 303 302 302 305 301 303 302 301 304 303 304 300 298 297 296 296 296 295 294 293 292 291 290 290 289 288 288
294 295 298 301 298 295 295 300 302 303 300 302 303 303 302 302 304 303 303 302 303 303 302 302 302 304 302 302 299 298 297 296 295 296 295 294 292 291 291 290 290 289 288 287
296 298 298 296 296 299 299 302 301 300 300 301 302 301 302 302 304 303 302 302 302 301 304 301 302 302 301 300 298 297 297 296 296 296 295 294 293 292 291 291 290 288 287 285
296 297 296 298 299 299 300 299 299 300 299 301 303 303 303 302 302 302 301 301 301 302 303 302 301 301 299 299 298 297 296 295 295 295 295 294 292 291 290 288 287 283 280 279
297 298 298 298 297 300 300 299 299 302 301 303 304 304 302 301 302 302 301 302 303 302 302 302 302 299 298 297 296 295 295 294 295 294 293 291 290 289 287 283 281 280 279 278
297 297 297 300 299 299 301 303 302 301 303 304 305 303 304 303 302 301 301 302 301 301 303 304 299 297 297 295 294 294 294 293 293 291 288 286 285 283 281 281 280 278 277 276
297 298 298 298 298 299 299 299 300 300 303 303 303 302 301 300 299 300 300 300 300 302 305 301 298 295 294 294 293 292 291 290 289 287 285 283 281 281 280 278 278 277 276 277
296 297 298 299 300 299 299 300 300 300 302 303 302 302 302 301 301 300 300 302 303 303 297 296 294 293 292 291 290 289 288 287 286 283 282 281 280 280 280 278 276 276 276 276
297 297 296 299 300 299 298 300 300 300 302 304 300 300 300 300 300 301 301 303 300 295 294 293 293 292 290 289 287 286 285 284 283 282 281 280 280 278 277 277 276 276 276 275

GFSNW_925_thetae_111.txt.gz
Theta_e
299 298 299 299 302 303 302 302 304 301 302 304 302 308 309 311 312 312 314 312 313 313 313 313 313 317 316 311 313 317 315 314 314 313 313 313 312 313 314 317 318 318 319 321
299 299 299 299 301 303 300 302 300 300 301 305 305 305 308 310 312 314 312 309 310 309 311 313 312 313 312 309 311 317 315 314 315 312 312 312 311 311 315 315 315 315 314 317
298 299 299 299 298 300 301 300 301 299 297 299 305 306 308 311 310 310 311 309 308 310 311 311 311 314 310 309 309 308 309 312 311 312 313 312 310 309 310 312 310 310 309 316
298 299 298 298 298 299 300 301 303 299 300 301 304 307 308 308 311 308 308 309 309 310 310 310 309 311 312 308 305 306 309 309 309 310 311 307 306 307 308 309 308 307 307 310
296 297 297 296 298 301 297 299 303 304 302 301 302 304 311 309 309 310 307 309 309 309 309 309 310 312 311 308 305 308 307 309 308 309 308 305 304 303 302 303 303 303 307 307
297 297 296 297 298 299 293 297 301 302 302 304 303 302 305 308 308 308 307 307 308 310 309 308 306 308 309 307 305 305 305 306 307 308 307 305 301 306 306 307 306 307 307 306
297 297 297 298 298 299 298 300 301 304 304 304 304 305 304 307 308 309 309 308 308 308 305 304 305 307 307 305 306 306 306 305 305 307 301 303 306 305 306 306 303 303 303 302
296 297 298 298 298 298 298 301 301 303 303 305 305 306 305 305 306 308 309 308 307 305 303 303 302 301 302 303 304 305 304 304 303 305 306 307 306 305 302 301 302 299 300 300
296 297 297 298 298 298 299 299 299 300 303 302 305 305 306 307 307 306 305 306 304 302 301 301 306 305 303 303 302 302 301 303 303 305 306 304 303 304 302 302 300 296 295 295
298 298 297 298 299 300 299 298 299 300 301 300 304 306 306 307 305 305 303 303 302 302 300 303 305 307 304 304 305 302 302 303 305 305 305 305 304 303 303 300 298 294 294 292
297 297 298 297 300 300 299 298 298 300 299 299 303 303 304 306 305 304 301 300 300 301 303 306 306 308 307 307 304 303 304 304 304 304 304 305 298 301 302 295 294 293 293 290
296 297 297 297 299 299 298 298 298 300 297 300 300 300 300 302 304 301 301 302 301 302 303 302 304 307 304 306 308 306 303 301 303 302 301 297 296 296 296 296 293 292 291 290
297 297 298 299 298 297 297 298 299 299 301 301 300 300 299 300 301 303 301 301 302 303 303 303 305 305 304 304 303 304 305 304 299 299 297 295 295 295 294 293 292 290 290 289
299 299 298 297 296 296 298 298 298 300 301 301 299 299 300 300 301 302 302 302 302 301 302 303 304 305 305 305 304 303 303 302 300 299 297 295 294 293 292 291 290 289 287 286
297 297 297 295 296 297 297 298 299 300 301 299 299 299 300 300 300 301 301 301 300 301 301 301 303 303 302 304 302 303 303 300 298 301 296 296 294 292 291 290 290 289 288 288
295 294 295 296 296 298 296 295 299 299 300 298 300 299 300 301 301 301 301 301 300 300 300 300 303 304 302 301 302 302 300 300 300 297 295 293 293 292 291 290 290 289 288 287
296 296 296 297 297 296 297 299 299 300 300 298 298 298 299 300 301 300 300 300 300 301 298 299 300 301 302 298 301 300 299 296 294 293 293 293 293 292 291 291 290 289 288 287
296 296 296 296 296 298 298 296 298 300 302 301 299 299 298 300 300 300 299 300 300 299 300 298 300 299 300 300 297 298 297 296 295 295 294 293 293 291 291 290 289 288 288 287
295 296 296 297 297 298 297 297 298 300 302 299 299 299 298 300 300 300 299 300 299 299 300 300 299 298 299 300 296 295 295 296 296 295 293 293 292 291 289 289 289 288 287 286
295 296 297 297 299 296 295 297 298 299 298 300 300 300 299 300 298 299 299 298 299 300 299 298 297 297 301 299 296 295 296 296 296 294 293 292 291 290 289 289 288 287 286 285
296 297 297 296 295 299 299 297 298 298 299 299 301 299 299 299 298 299 299 299 298 300 299 298 297 297 296 296 295 294 295 295 295 293 291 290 290 289 289 289 288 286 285 282
297 296 296 298 299 298 298 298 297 299 299 299 299 299 299 300 300 297 297 299 297 301 297 297 295 298 296 294 295 295 294 294 294 294 292 290 290 289 288 285 283 281 280 279
296 298 298 298 296 294 296 296 298 298 298 299 299 298 298 299 298 294 296 293 295 298 293 296 298 298 297 296 294 293 293 293 293 292 291 289 288 286 284 281 279 279 279 278
296 295 291 294 294 297 299 301 298 296 297 299 298 297 296 294 294 294 293 295 296 293 295 300 297 297 295 294 294 293 293 292 289 288 286 284 282 281 281 280 279 279 277 277
295 296 295 295 296 295 297 294 296 295 297 297 296 295 295 293 290 294 295 293 294 294 301 298 296 295 294 293 293 292 289 287 285 284 283 281 281 280 278 279 279 278 276 276
295 295 296 295 294 296 297 297 298 297 295 294 295 296 293 295 295 296 294 299 299 298 296 295 294 292 292 291 290 289 288 286 283 282 282 280 279 278 278 277 277 276 277 277
296 295 296 298 296 297 296 297 294 295 295 297 295 294 298 295 297 299 297 296 297 294 293 292 292 291 289 288 286 286 284 283 282 281 280 280 279 278 276 276 276 276 276 276

GFSNW_925_thetae_114.txt.gz
Theta_e
298 299 299 299 300 302 302 302 304 301 304 305 302 309 309 309 311 311 311 313 314 313 312 312 312 317 315 310 310 315 315 315 317 313 314 312 313 314 316 313 313 314 313 318
298 298 298 298 299 301 302 302 301 300 301 306 305 305 309 309 311 311 312 313 312 310 310 313 312 313 312 310 312 316 314 315 317 315 313 311 312 311 313 313 314 315 312 314
299 299 298 298 298 300 301 298 300 299 298 300 304 305 307 309 308 310 312 312 311 309 310 310 311 313 311 309 309 312 314 315 315 315 313 311 310 310 313 314 313 310 309 313
298 298 298 297 298 298 301 297 301 299 301 300 303 304 305 306 309 310 308 312 309 308 309 310 311 312 310 307 310 308 308 310 310 310 311 310 309 304 308 312 310 309 308 312
297 297 297 297 296 297 299 298 301 300 299 300 302 304 309 306 307 308 310 310 308 308 308 308 307 310 310 308 303 307 307 309 309 311 310 306 304 303 302 302 306 309 309 309
297 297 297 296 296 297 296 296 299 302 303 300 302 302 303 305 306 307 307 307 308 310 308 307 305 307 307 307 305 305 306 307 310 313 310 309 307 303 307 306 305 307 306 305
296 296 296 296 296 297 297 297 300 302 303 304 303 302 302 303 304 307 307 308 308 306 304 304 304 305 306 304 304 304 304 306 307 308 308 311 306 306 307 304 301 303 303 301
296 296 296 296 297 296 298 299 300 301 300 303 304 304 304 302 302 305 308 308 306 303 303 304 305 304 305 306 306 305 304 306 308 306 306 306 305 305 304 303 301 298 301 297
295 296 296 296 297 297 298 298 300 300 302 301 303 305 304 303 301 305 307 306 305 302 300 303 306 304 303 304 304 305 305 304 304 305 305 306 302 303 302 300 299 295 296 298
295 295 296 296 297 298 298 298 298 299 301 300 301 304 302 304 305 303 304 305 301 301 300 299 303 306 303 304 304 303 302 302 303 306 304 305 303 303 302 299 298 294 292 290
296 296 295 296 297 298 298 298 299 299 299 300 298 301 304 305 302 302 302 302 302 299 301 303 302 303 304 303 301 303 302 304 305 304 303 305 297 301 302 293 292 291 288 288
296 297 297 298 298 298 298 297 298 299 296 300 298 298 300 303 303 301 300 301 300 300 300 301 303 305 307 305 307 305 302 299 301 301 298 296 295 294 293 292 291 291 288 287
297 296 297 298 296 299 298 298 298 299 299 299 299 299 298 302 303 301 301 299 301 302 301 301 304 306 304 306 302 304 304 300 297 298 297 296 295 295 294 292 290 290 289 288
296 297 297 297 299 298 297 298 298 300 300 299 299 299 300 299 301 301 301 301 300 300 301 300 304 306 303 304 303 302 302 301 299 298 296 295 294 293 292 291 290 289 287 286
296 296 296 298 299 298 298 298 298 300 299 297 298 298 300 300 300 300 301 299 298 299 299 300 303 302 302 302 301 301 301 298 297 296 296 294 293 292 291 290 289 286 286 285
297 299 298 297 297 298 298 295 298 300 300 295 298 297 299 300 300 300 300 299 298 298 299 300 301 302 301 301 301 300 299 298 297 294 294 292 292 291 290 290 288 287 287 286
297 297 296 296 297 298 296 298 299 299 299 294 296 297 297 299 300 298 299 298 298 297 297 298 300 301 301 297 299 299 296 294 293 292 292 292 291 291 290 289 288 288 286 285
296 296 296 298 297 298 298 297 298 299 300 297 298 298 297 298 299 299 297 298 298 297 297 297 298 297 299 300 297 296 294 293 293 293 293 292 292 291 290 289 288 287 286 285
296 296 297 297 297 297 297 297 299 299 299 297 297 297 295 297 298 297 297 298 297 297 298 299 298 296 299 298 297 295 294 293 295 293 292 291 291 291 290 288 288 287 287 285
296 295 296 297 298 296 296 297 295 296 296 298 298 296 298 298 294 296 297 296 297 299 298 296 297 296 298 297 295 294 294 295 293 292 292 292 291 290 288 288 287 287 285 283
296 295 294 295 295 298 297 294 295 295 297 298 298 296 298 297 297 297 297 297 296 300 299 298 297 297 295 294 293 293 293 295 293 291 290 290 289 288 288 287 286 285 284 282
296 296 296 297 298 295 296 295 295 298 299 297 298 297 297 298 298 296 296 299 296 302 295 295 293 297 293 293 293 292 293 293 293 291 290 288 288 288 288 287 285 283 281 280
297 297 297 295 292 291 292 293 296 296 296 297 296 297 296 297 295 294 295 292 293 294 287 294 298 297 295 294 293 293 291 292 291 289 288 287 286 286 286 283 281 280 278 278
294 293 290 289 289 296 299 300 295 294 295 297 295 295 296 292 294 290 291 292 293 288 293 296 297 297 295 293 293 293 290 289 289 286 285 285 285 283 282 281 280 279 277 276
294 294 294 292 295 294 295 294 296 294 295 295 295 294 294 291 288 290 292 290 290 291 290 295 296 295 294 293 293 291 286 285 284 284 283 282 282 281 279 279 279 278 277 276
293 294 294 291 295 296 297 297 295 296 293 292 294 294 291 292 292 294 291 295 292 290 294 294 294 294 293 292 291 288 285 284 282 282 282 280 280 279 278 278 278 277 276 275
294 294 296 290 294 296 296 294 293 292 294 292 294 293 295 293 294 297 296 295 296 293 293 292 291 291 289 287 285 284 282 282 281 281 280 279 278 278 277 276 275 276 276 276

GFSNW_925_thetae_117.txt.gz
Theta_e
298 298 298 301 300 300 302 302 305 301 305 307 304 308 308 308 309 308 309 312 312 312 312 312 311 314 314 310 312 313 313 315 317 315 312 312 313 314 313 309 311 314 306 308
298 298 298 300 300 301 302 302 302 300 301 307 305 305 308 308 308 308 310 310 311 311 311 312 311 311 310 309 312 313 313 314 315 315 313 312 315 313 314 312 312 315 312 311
299 298 297 299 299 300 301 299 301 298 299 301 304 305 308 309 308 309 310 311 310 310 310 310 311 312 311 309 310 314 313 313 313 313 312 311 314 314 313 314 314 313 312 313
299 298 296 297 298 299 301 299 300 299 300 301 304 304 305 306 309 308 309 309 310 310 310 309 311 311 309 306 313 311 310 312 311 312 312 312 312 313 313 313 312 312 309 311
297 298 298 297 297 297 300 297 300 300 299 300 303 303 305 305 305 307 310 309 309 310 310 309 308 310 309 308 307 307 306 308 309 310 311 311 311 307 302 309 311 311 310 311
296 295 296 297 296 297 298 297 298 300 300 299 302 302 303 303 304 304 305 307 308 309 308 307 307 306 307 308 306 305 307 308 310 312 311 314 314 307 304 306 305 308 308 306
296 296 296 296 295 297 296 297 297 299 300 301 301 301 301 302 302 305 306 305 306 306 306 305 305 304 304 305 304 305 305 307 308 310 309 313 307 305 307 305 303 303 303 302
296 296 296 296 295 295 296 297 298 300 301 300 302 302 301 301 301 302 302 303 306 304 305 306 307 305 307 306 305 304 304 304 308 306 309 306 305 304 302 304 303 299 301 297
296 296 295 296 296 297 296 296 297 298 300 301 302 303 302 302 304 302 301 305 305 305 303 305 307 306 306 307 306 305 305 304 306 306 306 307 300 303 302 298 298 296 296 294
295 296 296 296 296 297 297 297 297 299 300 298 301 302 302 303 303 303 303 306 305 302 303 303 303 304 303 305 306 307 307 305 306 305 305 302 302 302 301 297 298 294 294 293
293 294 295 295 296 295 296 297 297 298 297 299 299 300 301 303 302 301 301 303 302 301 304 306 303 301 301 302 297 303 304 305 304 303 303 302 299 301 301 294 292 290 287 288
294 293 295 295 295 295 297 298 297 298 297 298 298 298 298 299 301 298 299 301 301 301 303 301 303 305 300 301 303 302 299 299 300 302 299 296 295 294 291 291 291 288 286 287
296 296 295 295 295 295 297 297 299 298 299 299 300 298 298 298 300 301 301 297 301 300 300 301 302 304 300 302 299 304 302 299 297 299 296 296 295 293 291 290 289 286 285 285
296 296 296 296 296 297 298 297 297 299 300 297 300 298 299 299 301 301 300 300 300 300 299 297 298 303 302 303 302 303 302 300 299 297 296 295 294 292 291 290 288 287 286 284
296 296 297 297 298 298 298 297 297 299 298 297 298 298 299 301 300 302 300 299 297 297 298 298 301 301 303 300 301 301 300 299 298 298 296 295 294 291 290 290 289 287 285 284
297 297 297 296 298 298 297 296 298 299 299 295 299 297 299 299 300 299 299 298 297 296 298 300 301 302 303 302 301 300 298 297 296 296 294 292 291 290 291 289 287 286 285 284
296 297 296 297 297 297 296 296 298 299 299 292 295 297 296 298 298 298 297 297 297 296 296 299 300 300 301 299 301 298 295 293 293 291 291 292 290 290 290 287 286 286 285 284
297 297 298 297 297 297 298 296 299 300 298 294 294 296 296 297 297 298 296 298 296 296 296 297 298 297 299 300 298 294 293 292 292 292 292 291 290 290 289 287 287 286 285 284
297 297 297 297 297 297 297 298 299 299 298 295 295 295 294 295 296 296 296 296 296 296 298 298 298 296 298 297 297 293 292 293 292 292 291 290 290 290 288 287 286 286 285 284
297 296 296 297 297 297 298 296 295 295 295 296 297 295 298 297 294 296 296 295 296 298 298 295 297 295 296 296 295 293 292 292 291 291 291 290 290 290 288 287 286 286 285 284
296 293 295 296 296 296 296 295 294 293 297 297 297 296 298 296 296 296 295 297 296 300 298 297 296 296 294 293 293 292 292 291 291 290 290 290 290 289 287 287 287 286 285 283
295 295 295 296 297 294 295 294 295 297 299 296 296 297 297 297 296 296 296 298 296 302 294 296 294 292 292 292 292 291 291 291 291 290 288 288 288 287 287 286 285 284 282 279
297 296 295 295 292 290 291 292 296 294 295 295 295 296 295 295 294 293 295 293 293 294 288 293 293 295 293 293 293 291 290 290 289 288 288 287 287 287 286 284 282 280 279 278
293 294 291 290 290 297 298 298 294 293 292 295 294 293 294 291 293 290 293 292 292 288 291 295 296 295 294 293 292 291 288 286 286 285 285 285 286 285 284 283 280 279 277 276
293 293 292 294 295 295 296 295 295 291 291 294 293 292 293 290 289 290 291 291 289 290 288 293 296 295 293 292 291 283 282 282 282 284 284 283 283 282 280 280 280 279 277 276
293 294 294 292 293 296 298 297 294 295 290 290 293 293 291 292 292 293 290 293 289 287 294 294 294 294 293 293 290 285 280 282 282 283 283 283 281 280 279 278 279 278 278 276
294 294 291 286 291 295 296 295 295 291 294 293 294 292 296 292 293 296 295 292 292 293 293 292 292 292 292 289 286 282 282 282 282 282 281 280 279 278 278 277 276 277 277 276

GFSNW_925_thetae_120.txt.gz
Theta_e
302 300 299 299 299 300 301 301 303 301 305 307 305 307 306 306 306 307 307 310 310 310 311 312 312 312 311 310 310 311 310 312 314 314 312 311 313 313 313 315 312 311 305 307
300 299 299 298 298 301 301 301 301 300 302 306 306 305 307 306 307 307 308 308 310 311 311 312 310 310 310 309 312 312 313 313 316 311 311 311 314 313 312 312 312 315 310 309
299 298 298 297 299 301 301 299 301 299 301 303 304 306 307 308 307 307 308 309 308 309 309 309 310 311 311 309 310 313 312 312 312 312 310 310 313 313 314 315 316 314 311 311
298 298 297 297 298 300 301 300 301 299 301 303 304 305 305 306 307 308 308 310 309 309 310 309 309 309 310 307 309 312 310 313 312 311 311 312 311 312 313 316 315 315 312 310
298 298 296 296 298 299 301 298 300 300 299 301 304 303 304 305 305 306 308 308 308 308 309 308 308 308 308 309 309 309 307 309 309 310 310 312 312 311 310 312 314 313 311 310
299 299 298 296 297 298 296 295 298 296 297 299 303 303 303 303 304 304 304 305 308 308 307 306 306 306 306 308 308 305 307 308 309 311 309 309 313 310 308 306 305 309 312 308
298 298 297 296 296 297 295 296 297 299 299 299 301 301 301 302 302 303 304 303 304 304 303 304 303 304 304 306 306 305 307 307 309 311 310 313 306 302 306 304 305 304 304 303
297 297 297 295 295 296 297 297 297 299 298 299 301 301 300 300 300 302 302 302 303 303 305 308 308 307 306 307 306 306 304 305 309 309 309 307 304 304 301 302 302 300 302 299
296 296 296 295 295 296 296 296 297 298 296 296 299 300 300 300 299 299 300 300 302 302 305 306 307 306 309 309 308 305 304 305 308 306 304 305 299 302 302 300 301 297 298 296
296 296 295 295 295 295 296 295 296 297 299 297 299 301 302 299 299 297 301 303 304 302 303 304 307 307 305 308 308 307 307 306 307 305 305 302 300 301 299 300 300 297 297 295
295 296 296 295 295 296 296 295 296 296 297 297 298 300 301 302 300 300 302 304 302 302 304 305 304 303 303 304 300 305 306 306 305 305 305 302 300 301 301 296 292 292 291 292
294 294 295 296 296 296 296 295 296 296 297 298 298 299 299 299 300 298 300 300 299 299 302 303 304 306 300 300 302 301 304 298 298 300 298 294 295 295 292 292 290 287 288 288
293 293 294 295 295 296 295 295 296 296 297 297 298 298 298 298 298 299 302 300 299 299 298 299 300 306 301 305 299 301 300 298 294 297 295 295 294 292 291 290 288 286 287 287
294 294 293 294 295 296 295 296 296 296 298 299 296 298 297 298 298 299 300 299 300 299 301 301 303 305 301 300 300 299 299 298 298 297 296 295 294 292 290 287 286 285 285 285
296 296 295 295 295 295 296 296 296 298 299 298 297 297 298 299 299 300 301 300 300 301 300 300 301 300 298 297 298 298 299 299 300 300 297 296 294 291 289 287 286 285 284 283
295 295 296 296 295 296 296 294 296 296 298 296 300 297 297 299 299 301 300 299 297 297 298 299 298 300 299 298 301 299 298 297 296 296 294 292 291 290 289 287 286 285 284 283
296 296 296 297 297 297 296 297 297 296 297 296 299 299 297 299 300 299 298 297 297 295 295 297 298 299 301 302 303 298 294 293 292 291 291 292 290 291 289 286 286 285 283 283
297 297 296 296 297 297 297 297 297 297 298 294 298 299 298 297 298 299 295 296 295 294 294 295 297 297 299 303 298 293 292 292 292 292 291 291 289 288 287 286 284 284 284 283
297 296 296 295 296 297 297 298 298 298 298 296 294 296 295 294 295 295 295 294 296 294 297 297 296 296 298 297 297 293 292 293 292 290 290 289 289 288 287 285 285 285 284 283
297 296 296 296 297 296 297 297 297 297 296 294 293 292 295 295 291 295 296 294 296 299 297 294 296 295 296 295 294 292 292 291 290 290 290 290 289 288 287 286 285 285 284 283
296 292 295 295 295 295 295 293 294 292 296 295 295 296 297 295 296 296 295 296 296 299 298 296 296 297 295 293 292 291 291 290 290 290 290 289 289 288 287 286 285 285 284 283
294 296 296 295 296 294 295 293 295 296 299 295 296 296 296 296 295 296 295 298 296 301 292 295 294 292 293 292 292 291 290 289 289 289 289 288 288 287 286 286 286 285 282 279
296 295 294 294 291 291 292 292 295 294 295 294 294 295 294 294 293 293 295 293 293 293 289 294 292 294 292 291 290 289 289 289 288 287 287 287 287 287 286 285 283 281 279 278
294 295 292 291 289 295 295 297 294 295 292 294 293 292 293 290 292 289 293 291 292 290 291 292 289 293 291 291 290 289 287 285 286 284 284 284 285 284 283 282 281 279 277 276
293 293 293 294 295 295 296 295 296 293 290 291 292 292 292 290 289 290 292 292 289 289 286 289 295 292 291 292 290 283 280 279 279 281 281 282 283 282 281 280 280 279 277 276
293 294 295 291 294 298 298 296 295 291 289 290 292 292 291 292 292 292 289 291 287 286 292 294 294 292 292 291 287 278 279 280 281 282 283 282 282 281 280 279 279 278 278 276
293 290 290 287 290 294 294 294 291 290 293 292 294 293 296 292 292 295 294 292 291 292 293 292 293 292 292 288 283 280 280 281 282 282 282 281 281 280 279 278 277 277 277 277